[[{"header":{"parameterUnit":"m.s-1","parameterCategory":1,"la1":30.6,"la2":28.766,"lo1":-90.7593,"lo2":-88.6598,"dy":0.0162,"dx":0.0183,"nx":116,"ny":114,"refTime":"2023-11-08T06:00:00:Z","depth":0,"parameterNumber":2,"parameterNumberName":"U-component_of_WINDS"},"data":[0.0,0.0,0.0,0.0,0.0,0.0,0.0,0.0,0.0,0.0,0.0,0.0,0.0,0.0,0.0,0.0,0.0,0.0,0.0,0.0,0.0,0.0,0.0,0.0,0.0,0.0,0.0,0.0,0.0,0.0,0.0,0.0,0.0,0.0,0.0,0.0,0.0,0.0,0.0,0.0,0.0,0.0,0.0,0.0,0.0,0.0,0.0,0.0,0.0,0.0,0.0,0.0,0.0,0.0,0.0,0.0,0.0,0.0,0.0,0.0,0.0,0.0,0.0,0.0,0.0,0.0,0.0,0.0,0.0,0.0,0.0,0.0,0.0,0.0,0.0,0.0,0.0,0.0,0.0,0.0,0.0,0.0,0.0,0.0,0.0,0.0,0.0,0.0,0.0,0.0,0.0,0.0,0.0,0.0,0.0,0.0,0.0,0.0,0.0,0.0,0.0,0.0,0.0,0.0,0.0,0.0,0.0,0.0,0.0,0.0,0.0,0.0,0.0,0.0,0.0,0.0,0.0,0.0,0.0,0.0,0.0,0.0,0.0,0.0,0.0,0.0,0.0,0.0,0.0,0.0,0.0,0.0,0.0,0.0,0.0,0.0,0.0,0.0,0.0,0.0,0.0,0.0,0.0,0.0,0.0,0.0,0.0,0.0,0.0,0.0,0.0,0.0,0.0,0.0,0.0,0.0,0.0,0.0,0.0,0.0,0.0,0.0,0.0,0.0,0.0,0.0,0.0,0.0,0.0,0.0,0.0,0.0,0.0,0.0,0.0,0.0,0.0,0.0,0.0,0.0,0.0,0.0,0.0,0.0,0.0,0.0,0.0,0.0,0.0,0.0,0.0,0.0,0.0,0.0,0.0,0.0,0.0,0.0,0.0,0.0,0.0,0.0,0.0,0.0,0.0,0.0,0.0,0.0,0.0,0.0,0.0,0.0,0.0,0.0,0.0,0.0,0.0,0.0,0.0,0.0,0.0,0.0,0.0,0.0,0.0,0.0,0.0,0.0,0.0,0.0,0.0,0.0,0.0,0.0,0.0,0.0,0.0,0.0,0.0,0.0,0.0,0.0,0.0,0.0,0.0,0.0,0.0,0.0,0.0,0.0,0.0,0.0,0.0,0.0,0.0,0.0,0.0,0.0,0.0,0.0,0.0,0.0,0.0,0.0,0.0,0.0,0.0,0.0,0.0,0.0,0.0,0.0,0.0,0.0,0.0,0.0,0.0,0.0,0.0,0.0,0.0,0.0,0.0,0.0,0.0,0.0,0.0,0.0,0.0,0.0,0.0,0.0,0.0,0.0,0.0,0.0,0.0,0.0,0.0,0.0,0.0,0.0,0.0,0.0,0.0,0.0,0.0,0.0,0.0,0.0,0.0,0.0,0.0,0.0,0.0,0.0,0.0,0.0,0.0,0.0,0.0,0.0,0.0,0.0,0.0,0.0,0.0,0.0,0.0,0.0,0.0,0.0,0.0,0.0,0.0,0.0,0.0,0.0,0.0,0.0,0.0,0.0,0.0,0.0,0.0,0.0,0.0,0.0,0.0,0.0,0.0,0.0,0.0,0.0,0.0,0.0,0.0,0.0,0.0,0.0,0.0,0.0,0.0,0.0,0.0,0.0,0.0,0.0,0.0,0.0,0.0,0.0,0.0,0.0,0.0,0.0,0.0,0.0,0.0,0.0,0.0,0.0,0.0,0.0,0.0,0.0,0.0,0.0,0.0,0.0,0.0,0.0,0.0,0.0,0.0,0.0,0.0,0.0,0.0,0.0,0.0,0.0,0.0,0.0,0.0,0.0,0.0,0.0,0.0,0.0,0.0,0.0,0.0,0.0,0.0,0.0,0.0,0.0,0.0,0.0,0.0,0.0,0.0,0.0,0.0,0.0,0.0,0.0,0.0,0.0,0.0,0.0,0.0,0.0,0.0,0.0,0.0,0.0,0.0,0.0,0.0,0.0,0.0,0.0,0.0,0.0,0.0,0.0,0.0,0.0,0.0,0.0,0.0,0.0,0.0,0.0,0.0,0.0,0.0,0.0,0.0,0.0,0.0,0.0,0.0,0.0,0.0,0.0,0.0,0.0,0.0,0.0,0.0,0.0,0.0,0.0,0.0,0.0,0.0,0.0,0.0,0.0,0.0,0.0,0.0,0.0,0.0,0.0,0.0,0.0,0.0,0.0,0.0,0.0,0.0,0.0,0.0,0.0,0.0,0.0,0.0,0.0,0.0,0.0,0.0,0.0,0.0,0.0,0.0,0.0,0.0,0.0,0.0,0.0,0.0,0.0,0.0,0.0,0.0,0.0,0.0,0.0,0.0,0.0,0.0,0.0,0.0,0.0,0.0,0.0,0.0,0.0,0.0,0.0,0.0,0.0,0.0,0.0,0.0,0.0,0.0,0.0,0.0,0.0,0.0,0.0,0.0,0.0,0.0,0.0,0.0,0.0,0.0,0.0,0.0,0.0,0.0,0.0,0.0,0.0,0.0,0.0,0.0,0.0,0.0,0.0,0.0,0.0,0.0,0.0,0.0,0.0,0.0,0.0,0.0,0.0,0.0,0.0,0.0,0.0,0.0,0.0,0.0,0.0,0.0,0.0,0.0,0.0,0.0,0.0,0.0,0.0,0.0,0.0,0.0,0.0,0.0,0.0,0.0,0.0,0.0,0.0,0.0,0.0,0.0,0.0,0.0,0.0,0.0,0.0,0.0,0.0,0.0,0.0,0.0,0.0,0.0,0.0,0.0,0.0,0.0,0.0,0.0,0.0,0.0,0.0,0.0,0.0,0.0,0.0,0.0,0.0,0.0,0.0,0.0,0.0,0.0,0.0,0.0,0.0,0.0,0.0,0.0,0.0,0.0,0.0,0.0,0.0,0.0,0.0,0.0,0.0,0.0,0.0,0.0,0.0,0.0,0.0,0.0,0.0,0.0,0.0,0.0,0.0,0.0,0.0,0.0,0.0,0.0,0.0,0.0,0.0,0.0,0.0,0.0,0.0,0.0,0.0,0.0,0.0,0.0,0.0,0.0,0.0,0.0,0.0,0.0,0.0,0.0,0.0,0.0,0.0,0.0,0.0,0.0,0.0,0.0,0.0,0.0,0.0,0.0,0.0,0.0,0.0,0.0,0.0,0.0,0.0,0.0,0.0,0.0,0.0,0.0,0.0,0.0,0.0,0.0,0.0,0.0,0.0,0.0,0.0,0.0,0.0,0.0,0.0,0.0,0.0,0.0,0.0,0.0,0.0,0.0,0.0,0.0,0.0,0.0,0.0,0.0,0.0,0.0,0.0,0.0,0.0,0.0,0.0,0.0,0.0,0.0,0.0,0.0,0.0,0.0,0.0,0.0,0.0,0.0,0.0,0.0,0.0,0.0,0.0,0.0,0.0,0.0,0.0,0.0,0.0,0.0,0.0,0.0,0.0,0.0,0.0,0.0,0.0,0.0,0.0,0.0,0.0,0.0,0.0,0.0,0.0,0.0,0.0,0.0,0.0,0.0,0.0,0.0,0.0,0.0,0.0,0.0,0.0,0.0,0.0,0.0,0.0,0.0,0.0,0.0,0.0,0.0,0.0,0.0,0.0,0.0,0.0,0.0,0.0,0.0,0.0,0.0,0.0,0.0,0.0,0.0,0.0,0.0,0.0,0.0,0.0,0.0,0.0,0.0,0.0,0.0,0.0,0.0,0.0,0.0,0.0,0.0,0.0,0.0,0.0,0.0,0.0,0.0,0.0,0.0,0.0,0.0,0.0,0.0,0.0,0.0,0.0,0.0,0.0,0.0,0.0,0.0,0.0,0.0,0.0,0.0,0.0,0.0,0.0,0.0,0.0,0.0,0.0,0.0,0.0,0.0,0.0,0.0,0.0,0.0,0.0,0.0,0.0,0.0,0.0,0.0,0.0,0.0,0.0,0.0,0.0,0.0,0.0,0.0,0.0,0.0,0.0,0.0,0.0,0.0,0.0,0.0,0.0,0.0,0.0,0.0,0.0,0.0,0.0,0.0,0.0,0.0,0.0,0.0,0.0,0.0,0.0,0.0,0.0,0.0,0.0,0.0,0.0,0.0,0.0,0.0,0.0,0.0,0.0,0.0,0.0,0.0,0.0,0.0,0.0,0.0,0.0,0.0,0.0,0.0,0.0,0.0,0.0,0.0,0.0,0.0,0.0,0.0,0.0,0.0,0.0,0.0,0.0,0.0,0.0,0.0,0.0,0.0,0.0,0.0,0.0,0.0,0.0,0.0,0.0,0.0,0.0,0.0,0.0,0.0,0.0,0.0,0.0,0.0,0.0,0.0,0.0,0.0,0.0,0.0,0.0,0.0,0.0,0.0,0.0,0.0,0.0,0.0,0.0,0.0,0.0,0.0,0.0,0.0,0.0,0.0,0.0,0.0,0.0,0.0,0.0,0.0,0.0,0.0,0.0,0.0,0.0,0.0,0.0,0.0,0.0,0.0,0.0,0.0,0.0,0.0,0.0,0.0,0.0,0.0,0.0,0.0,0.0,0.0,0.0,0.0,0.0,0.0,0.0,0.0,0.0,0.0,0.0,0.0,0.0,0.0,0.0,0.0,0.0,0.0,0.0,0.0,0.0,0.0,0.0,0.0,0.0,0.0,0.0,0.0,0.0,0.0,0.0,0.0,0.0,0.0,0.0,0.0,0.0,0.0,0.0,0.0,0.0,0.0,0.0,0.0,0.0,0.0,0.0,0.0,0.0,0.0,0.0,0.0,0.0,0.0,0.0,0.0,0.0,0.0,0.0,0.0,0.0,0.0,0.0,0.0,0.0,0.0,0.0,0.0,0.0,0.0,0.0,0.0,0.0,0.0,0.0,0.0,0.0,0.0,0.0,0.0,0.0,0.0,0.0,0.0,0.0,0.0,0.0,0.0,0.0,0.0,0.0,0.0,0.0,0.0,0.0,0.0,0.0,0.0,0.0,0.0,0.0,0.0,0.0,0.0,0.0,0.0,0.0,0.0,0.0,0.0,0.0,0.0,0.0,0.0,0.0,0.0,0.0,0.0,0.0,0.0,0.0,0.0,0.0,0.0,0.0,0.0,0.0,0.0,0.0,0.0,0.0,0.0,0.0,0.0,0.0,0.0,0.0,0.0,0.0,0.0,0.0,0.0,0.0,0.0,0.0,0.0,0.0,0.0,0.0,0.0,0.0,0.0,0.0,0.0,0.0,0.0,0.0,0.0,0.0,0.0,0.0,0.0,0.0,0.0,0.0,0.0,0.0,0.0,0.0,0.0,0.0,0.0,0.0,0.0,0.0,0.0,0.0,0.0,0.0,0.0,0.0,0.0,0.0,0.0,0.0,0.0,0.0,0.0,0.0,0.0,0.0,0.0,0.0,0.0,0.0,0.0,0.0,0.0,0.0,0.0,0.0,0.0,0.0,0.0,0.0,0.0,0.0,0.0,0.0,0.0,0.0,0.0,0.0,0.0,0.0,0.0,0.0,0.0,0.0,0.0,0.0,0.0,0.0,0.0,0.0,0.0,0.0,0.0,0.0,0.0,0.0,0.0,0.0,0.0,0.0,0.0,0.0,0.0,0.0,0.0,0.0,0.0,0.0,0.0,0.0,0.0,0.0,0.0,0.0,0.0,0.0,0.0,0.0,0.0,0.0,0.0,0.0,0.0,0.0,0.0,0.0,0.0,0.0,0.0,0.0,0.0,0.0,0.0,0.0,0.0,0.0,0.0,0.0,0.0,0.0,0.0,0.0,0.0,0.0,0.0,0.0,0.0,0.0,0.0,0.0,0.0,0.0,0.0,0.0,0.0,0.0,0.0,0.0,0.0,0.0,0.0,0.0,0.0,0.0,0.0,0.0,0.0,0.0,0.0,0.0,0.0,0.0,0.0,0.0,0.0,0.0,0.0,0.0,0.0,0.0,0.0,0.0,0.0,0.0,0.0,0.0,0.0,0.0,0.0,0.0,0.0,0.0,0.0,0.0,0.0,0.0,0.0,0.0,0.0,0.0,0.0,0.0,0.0,0.0,0.0,0.0,0.0,0.0,0.0,0.0,0.0,0.0,0.0,0.0,0.0,0.0,0.0,0.0,0.0,0.0,0.0,0.0,0.0,0.0,0.0,0.0,0.0,0.0,0.0,0.0,4.1311,4.1311,0.0,0.0,0.0,0.0,0.0,0.0,0.0,0.0,0.0,0.0,0.0,0.0,0.0,0.0,0.0,0.0,0.0,0.0,0.0,0.0,0.0,0.0,0.0,0.0,0.0,0.0,0.0,0.0,0.0,0.0,0.0,0.0,0.0,0.0,0.0,0.0,0.0,0.0,3.7083,3.7477,3.8648,3.8482,3.8881,3.9685,0.0,0.0,0.0,0.0,0.0,0.0,0.0,0.0,0.0,0.0,0.0,0.0,0.0,0.0,0.0,0.0,0.0,0.0,0.0,0.0,0.0,0.0,0.0,0.0,0.0,0.0,0.0,0.0,0.0,0.0,0.0,0.0,0.0,0.0,0.0,0.0,0.0,0.0,0.0,0.0,0.0,0.0,0.0,0.0,0.0,0.0,0.0,0.0,0.0,0.0,0.0,0.0,0.0,0.0,0.0,0.0,0.0,0.0,0.0,0.0,0.0,0.0,0.0,0.0,0.0,0.0,0.0,0.0,0.0,0.0,4.129,4.1442,0.0,0.0,0.0,0.0,0.0,0.0,0.0,0.0,0.0,0.0,0.0,0.0,0.0,0.0,0.0,0.0,0.0,0.0,0.0,0.0,0.0,0.0,0.0,0.0,3.0354,3.1487,3.1432,3.1474,0.0,0.0,0.0,0.0,0.0,0.0,0.0,0.0,0.0,0.0,3.678,3.7183,3.7875,3.8122,3.8751,3.9697,3.9697,0.0,0.0,0.0,0.0,0.0,0.0,0.0,0.0,0.0,0.0,0.0,0.0,0.0,0.0,0.0,0.0,0.0,0.0,0.0,0.0,0.0,0.0,0.0,0.0,0.0,0.0,0.0,0.0,0.0,0.0,0.0,0.0,0.0,0.0,0.0,0.0,0.0,0.0,0.0,0.0,0.0,0.0,0.0,0.0,0.0,0.0,0.0,0.0,0.0,0.0,0.0,0.0,0.0,0.0,0.0,0.0,0.0,0.0,0.0,0.0,0.0,0.0,0.0,4.053,4.0683,4.0786,4.0735,4.099,4.1439,4.1439,4.172,4.2189,4.2345,0.0,0.0,0.0,0.0,0.0,0.0,0.0,0.0,0.0,0.0,0.0,0.0,0.0,0.0,0.0,0.0,0.0,0.0,0.0,0.0,0.0,3.0484,3.0354,3.1487,3.0712,3.0548,0.0,0.0,0.0,0.0,0.0,0.0,0.0,3.6202,3.674,3.7019,3.7487,3.8306,3.9413,3.9439,3.9555,3.9697,3.9697,3.9697,3.971,0.0,0.0,0.0,0.0,0.0,0.0,0.0,0.0,0.0,0.0,0.0,0.0,0.0,0.0,0.0,0.0,0.0,0.0,0.0,0.0,0.0,0.0,0.0,0.0,0.0,0.0,0.0,0.0,0.0,0.0,0.0,0.0,0.0,0.0,0.0,0.0,0.0,0.0,0.0,0.0,0.0,3.9697,3.9697,0.0,0.0,0.0,0.0,0.0,0.0,0.0,0.0,0.0,0.0,0.0,0.0,0.0,3.9826,4.0045,4.0305,4.0675,4.1144,4.1169,4.1448,4.1873,4.1648,4.1726,4.2001,4.2003,0.0,4.2172,4.2939,0.0,0.0,0.0,0.0,0.0,0.0,0.0,0.0,0.0,0.0,0.0,0.0,0.0,0.0,0.0,0.0,0.0,0.0,0.0,0.0,0.0,2.9486,2.9541,3.0026,2.987,2.9951,3.0443,3.0844,0.0,0.0,0.0,3.372,3.2973,3.555,3.6975,3.7086,3.7498,3.7963,3.8477,3.8633,3.9063,3.9697,3.9697,3.9697,3.9697,3.9697,0.0,0.0,0.0,0.0,0.0,0.0,0.0,0.0,0.0,0.0,0.0,0.0,0.0,0.0,0.0,0.0,0.0,0.0,0.0,0.0,0.0,0.0,0.0,0.0,0.0,0.0,0.0,0.0,0.0,0.0,0.0,0.0,0.0,0.0,0.0,0.0,0.0,0.0,0.0,3.9697,3.9697,3.9697,3.9697,3.9697,0.0,0.0,0.0,0.0,0.0,0.0,0.0,0.0,0.0,4.0588,4.0613,4.0666,4.0772,4.0892,4.1071,4.1296,4.1309,4.141,4.1637,4.153,4.1734,4.2172,4.2172,4.2324,4.2655,4.3001,4.3383,4.3706,0.0,0.0,0.0,0.0,4.449,4.449,0.0,0.0,0.0,0.0,0.0,0.0,0.0,0.0,0.0,0.0,0.0,0.0,2.8666,2.8906,2.9082,2.9082,2.9389,2.9598,2.9598,3.054,0.0,0.0,0.0,3.3405,3.2379,3.5544,3.7177,3.7086,3.7444,3.7753,3.8084,3.828,3.8842,3.9697,3.9697,3.9697,3.9697,3.9697,3.9697,3.9685,0.0,0.0,0.0,0.0,0.0,0.0,0.0,0.0,0.0,0.0,0.0,0.0,0.0,0.0,0.0,0.0,0.0,0.0,0.0,0.0,0.0,0.0,0.0,0.0,0.0,0.0,0.0,0.0,0.0,0.0,0.0,0.0,0.0,0.0,0.0,0.0,0.0,3.9491,3.9697,3.9697,3.9697,3.9747,0.0,0.0,0.0,0.0,0.0,0.0,4.0675,4.07,4.0826,4.1102,4.1102,4.1026,4.0901,4.1163,4.1289,4.1289,4.1603,4.1729,4.1729,4.1729,4.1982,4.24,4.24,4.2637,4.2992,4.3059,4.3367,4.3777,4.3872,4.3899,4.3927,4.4107,4.419,4.419,0.0,0.0,0.0,0.0,0.0,0.0,0.0,0.0,0.0,0.0,0.0,2.9559,2.954,2.9559,2.9559,2.9559,2.9579,2.9598,2.9598,3.0012,3.0752,3.1863,3.2466,3.3894,3.6267,3.7086,3.7364,3.7086,3.7631,3.8475,3.9594,3.9607,3.9645,3.9697,3.9697,3.9697,3.9697,3.9697,3.9697,3.9697,3.9685,0.0,0.0,0.0,0.0,0.0,0.0,0.0,0.0,0.0,0.0,0.0,0.0,0.0,0.0,0.0,0.0,0.0,0.0,0.0,0.0,0.0,0.0,0.0,0.0,0.0,0.0,0.0,0.0,0.0,0.0,0.0,0.0,0.0,0.0,0.0,0.0,0.0,0.0,3.9697,3.9697,0.0,0.0,0.0,0.0,4.1188,4.1214,4.1214,4.1264,4.1264,4.1051,4.0563,4.0538,4.03,3.9798,4.0775,4.1289,4.1314,4.2409,4.29,4.29,4.29,4.2925,4.2964,4.2964,4.2989,4.3028,4.3259,4.3383,4.3462,4.3777,4.3899,4.3899,4.3927,4.3927,4.3927,0.0,0.0,0.0,0.0,0.0,0.0,0.0,0.0,3.0527,3.0234,3.0073,2.9877,2.9618,2.9819,2.9995,2.9995,3.0268,3.0444,3.0444,3.1288,3.164,3.1317,3.3634,3.5567,3.6898,3.6538,3.6754,3.7594,3.7817,3.8528,3.9697,3.9697,3.9697,3.9697,3.9697,3.9697,3.9697,3.9697,3.9697,3.9697,3.9697,3.9697,0.0,0.0,0.0,0.0,0.0,0.0,0.0,0.0,0.0,0.0,0.0,0.0,0.0,0.0,0.0,0.0,0.0,0.0,0.0,0.0,0.0,0.0,0.0,0.0,0.0,0.0,0.0,0.0,0.0,0.0,0.0,0.0,0.0,0.0,0.0,0.0,0.0,4.0675,4.0725,0.0,4.0499,4.0512,4.0437,4.0287,4.0261,4.0412,4.0775,4.0775,4.104,4.1582,4.1607,4.1669,4.182,4.2183,4.2384,4.2409,4.2799,4.3014,4.3014,4.3014,4.3014,4.3014,4.3014,4.3014,4.3014,4.3087,4.3129,4.3142,4.3279,4.3321,4.3335,4.3529,4.3572,4.3572,0.0,0.0,0.0,0.0,0.0,0.0,0.0,0.0,3.0796,3.0483,3.0444,3.0332,3.0067,3.0288,3.0444,3.0444,3.0718,3.0913,3.0913,3.1643,3.1773,3.1068,3.3881,3.5319,3.5008,3.5954,3.6632,3.7009,3.8029,3.8908,3.9697,3.9697,3.9697,3.9697,3.9697,3.9697,3.9697,3.9697,3.9697,3.9697,3.9697,3.9697,3.966,0.0,0.0,0.0,0.0,0.0,0.0,0.0,0.0,0.0,0.0,0.0,0.0,0.0,0.0,0.0,0.0,0.0,0.0,0.0,0.0,0.0,0.0,0.0,0.0,0.0,0.0,0.0,0.0,0.0,0.0,0.0,0.0,0.0,0.0,0.0,4.0549,4.0725,4.075,4.0675,4.0512,4.0512,4.0437,4.0236,4.0438,4.069,4.1053,4.1254,4.1619,4.2174,4.2199,4.2261,4.2434,4.2637,4.2738,4.2738,4.3115,4.3277,4.3277,4.3452,4.3553,4.3553,4.3553,4.3553,4.3528,4.3352,4.3277,4.3251,4.3076,4.3014,4.3028,4.3198,4.3268,4.3293,0.0,0.0,0.0,0.0,0.0,0.0,0.0,3.0913,3.0913,3.0913,3.0913,3.0913,3.0913,3.0913,3.0913,3.0913,3.0913,3.0913,3.0913,3.0913,3.1025,3.1325,3.3034,3.3063,3.1083,3.5517,3.7046,3.5371,3.8254,3.9671,3.9697,3.9697,3.9697,3.9697,3.9697,3.9697,3.9697,3.9697,3.9697,3.9697,3.9697,3.9697,3.9697,0.0,0.0,0.0,0.0,0.0,0.0,0.0,0.0,0.0,0.0,0.0,0.0,0.0,0.0,0.0,0.0,0.0,0.0,0.0,0.0,0.0,0.0,0.0,0.0,0.0,0.0,0.0,0.0,0.0,0.0,0.0,0.0,0.0,3.7025,3.8967,4.027,3.9796,3.9746,3.9959,4.0512,4.0563,4.075,4.1264,4.1845,4.2174,4.2174,4.2663,4.2713,4.2224,4.2224,4.1945,4.1389,4.197,4.2274,4.2299,4.3327,4.3815,4.384,4.4353,4.4589,4.4589,4.4589,4.4589,4.4564,4.4027,4.3815,4.3765,4.3226,4.3014,4.3014,4.3014,4.3014,4.3115,0.0,0.0,0.0,0.0,0.0,0.0,0.0,3.0913,3.0913,3.0913,3.0913,3.0913,3.0913,3.0913,3.0913,3.0913,3.0913,3.0913,3.0913,3.0913,3.133,3.2256,3.3169,3.3782,3.409,3.579,3.6844,3.7193,3.8003,3.8842,3.9697,3.9697,3.9697,3.9697,3.9697,3.9697,3.9697,3.9697,3.9697,3.9697,3.9697,3.9697,3.9607,0.0,0.0,0.0,0.0,0.0,0.0,0.0,0.0,0.0,0.0,0.0,0.0,0.0,0.0,0.0,0.0,0.0,0.0,0.0,0.0,0.0,0.0,0.0,0.0,0.0,0.0,0.0,0.0,0.0,0.0,0.0,3.6766,3.7524,3.7928,3.8543,3.9423,4.0574,4.0734,4.0984,4.1677,4.1733,4.1619,4.1314,4.1453,4.1542,4.1542,4.1692,4.1907,4.2199,4.2576,4.2875,4.3098,4.365,4.394,4.394,4.4227,4.4378,4.4378,4.4514,4.4589,4.4589,4.4589,4.4589,4.4589,4.4453,4.4378,4.4278,4.3352,4.3014,4.3014,4.3014,4.3251,4.3589,0.0,0.0,0.0,0.0,0.0,0.0,0.0,3.0913,3.0913,3.0913,3.0913,3.0913,3.0913,3.0913,3.0913,3.0913,3.0913,3.0913,3.0913,3.101,3.1388,3.207,3.2693,3.3268,3.381,3.5393,3.6457,3.6969,3.8108,3.8999,3.9697,3.9697,3.9697,3.9697,3.9697,3.9697,3.9697,3.9697,3.9697,3.9697,3.9697,3.9697,3.9633,3.8921,3.8659,3.858,3.7886,3.734,3.6925,3.6925,0.0,0.0,0.0,0.0,0.0,0.0,0.0,0.0,0.0,0.0,0.0,0.0,0.0,0.0,0.0,0.0,0.0,0.0,0.0,0.0,0.0,0.0,0.0,0.0,3.6028,3.6647,3.7072,3.8335,3.9309,3.9594,4.0564,4.1128,4.103,4.1495,4.1681,4.1314,4.1542,4.1781,4.1993,4.2244,4.2596,4.3176,4.3503,4.3815,4.4127,4.4439,4.4589,4.4589,4.4855,4.498,4.498,4.5206,4.5307,4.5307,4.5307,4.5307,4.5292,4.5056,4.498,4.4895,0.0,0.0,0.0,0.0,4.3865,4.4177,0.0,0.0,0.0,0.0,0.0,0.0,0.0,3.0913,3.0913,3.0913,3.1039,3.1156,3.1156,3.1185,3.1199,3.1199,3.1068,3.0981,3.0937,3.131,3.1464,3.131,3.2076,3.2399,3.2242,3.4717,3.5995,3.5945,3.819,3.9362,3.9516,3.9516,3.9556,3.9697,3.9697,3.9697,3.9697,3.9697,3.9697,3.9697,3.9697,3.9633,3.9465,3.9349,3.9232,3.9102,3.8947,3.8214,3.73,3.73,0.0,0.0,0.0,0.0,0.0,0.0,0.0,0.0,0.0,0.0,0.0,0.0,0.0,0.0,0.0,0.0,0.0,0.0,0.0,0.0,0.0,0.0,0.0,0.0,3.5402,3.5402,3.5402,3.8035,3.9377,3.7759,3.9525,4.0529,3.9657,4.0674,4.1361,4.1348,4.2064,4.2538,4.2718,4.3458,0.0,0.0,0.0,4.4446,4.4446,4.4536,4.4634,4.4805,4.5321,4.5587,4.5612,4.6075,4.6286,4.6286,4.6286,4.6286,4.6261,4.5773,4.5587,4.5522,4.4855,4.4589,4.4589,4.4589,4.464,4.478,0.0,0.0,0.0,0.0,0.0,0.0,0.0,3.0913,3.0913,3.0913,3.194,3.2672,3.2672,3.2865,3.3007,3.3007,3.217,3.1498,3.1238,3.2387,3.2544,3.1354,3.2807,3.407,3.493,3.4878,3.569,3.7474,3.7073,3.7354,3.824,3.824,3.8777,3.9697,3.9697,3.9697,3.9697,3.9697,3.9697,3.9697,3.9697,3.9128,3.8148,3.7233,3.6317,3.5383,3.4399,3.3903,3.3706,3.3706,3.3551,3.3388,3.3388,0.0,0.0,0.0,0.0,0.0,0.0,0.0,0.0,0.0,0.0,0.0,0.0,0.0,0.0,0.0,0.0,0.0,0.0,0.0,0.0,3.5402,3.5402,3.5402,3.5402,3.6835,3.774,3.7405,3.7762,3.8778,4.0602,4.1373,4.1754,4.1697,4.3214,4.3256,4.1181,4.3218,4.3492,4.1432,4.284,4.3639,4.3639,4.4111,4.4901,4.5959,4.61,0.0,4.615,4.6235,4.6286,4.6286,4.6286,4.6286,4.6286,4.62,4.615,4.6035,4.5006,4.4589,4.4589,4.4589,4.4905,4.5347,0.0,0.0,0.0,0.0,0.0,0.0,0.0,3.0913,3.1112,3.1715,3.2565,3.3332,3.3915,3.3691,3.3452,3.3297,3.2221,3.2055,3.3205,3.3424,3.3494,3.3501,3.437,3.5201,3.5918,3.5567,3.6195,3.791,3.7327,3.7647,3.8803,3.8803,3.9128,3.9697,3.9697,3.9697,3.9671,3.9063,3.8803,3.8751,3.8188,3.7247,3.6263,3.6831,3.6344,3.5264,3.4656,3.4078,3.3614,3.3614,3.3351,3.3058,3.3058,3.3203,3.3451,0.0,0.0,0.0,0.0,0.0,0.0,0.0,0.0,0.0,0.0,0.0,0.0,0.0,0.0,3.5402,0.0,0.0,3.5402,3.5402,3.5402,3.5402,3.5402,3.5951,3.6344,3.6344,3.8044,3.9285,3.9531,4.0949,4.1667,4.1214,4.2081,4.2123,4.1068,4.2262,4.2502,4.142,4.2977,4.385,4.385,4.4161,4.4645,4.5297,4.5297,4.5444,4.5706,4.6398,4.6863,4.7089,4.7089,4.7089,4.7089,4.7089,4.7089,4.7039,4.6461,4.5934,4.5457,4.5457,4.5633,4.5899,0.0,0.0,0.0,0.0,0.0,0.0,0.0,3.1097,3.16,3.2571,3.3339,3.4167,3.5214,3.4695,3.4125,3.3754,3.2758,3.3084,3.5233,3.4736,3.4764,3.5658,3.5972,3.6244,3.6511,3.609,3.6584,3.8067,3.7627,3.8169,3.9686,3.9686,3.9803,4.0023,4.0023,4.0023,3.9933,3.8855,3.8472,3.8438,3.717,3.6036,3.5313,3.689,3.6669,3.5526,3.5616,3.5066,3.4307,3.4393,3.4039,3.3542,3.3542,3.3791,3.4123,3.4205,3.4495,0.0,0.0,0.0,0.0,0.0,0.0,0.0,0.0,0.0,3.5402,3.5402,3.5402,3.5402,3.5402,3.5402,3.5402,3.5402,3.5402,3.5443,3.5526,3.5547,3.5568,3.5671,3.8305,3.9605,3.8271,4.0098,4.1068,4.0423,4.0707,4.0865,4.0788,4.126,4.1505,4.1421,4.2777,4.3545,4.3647,4.3647,4.382,4.4149,4.407,4.4252,4.4705,4.5706,4.6384,4.681,4.7075,4.7349,4.7606,4.7606,4.7606,4.7606,4.7606,4.7064,4.6311,4.6537,4.6612,4.6612,0.0,0.0,0.0,0.0,0.0,0.0,0.0,0.0,3.2542,3.2685,3.4745,3.6375,3.6804,3.6979,3.6736,3.5927,3.5512,3.5402,3.5645,3.6767,3.6902,3.5754,3.6955,3.766,3.77,3.5731,3.6026,3.869,3.6611,3.6964,3.9619,3.9619,4.0161,4.1113,4.1113,4.1113,4.1088,4.0467,4.0489,4.0782,3.9032,3.793,3.7244,3.6383,3.4819,3.3153,3.3559,3.3619,3.3601,3.3997,3.4096,3.4019,3.4019,3.406,3.4185,3.4614,0.0,3.4868,3.5252,3.5361,3.5402,3.5402,3.5402,3.5402,0.0,0.0,3.5402,3.5402,3.5402,3.5402,3.5402,3.5402,3.5402,3.5402,3.5402,3.5547,3.5961,3.6023,3.6168,3.6581,3.6645,3.7189,3.85,3.9308,3.9705,3.9549,4.1086,4.1005,3.868,4.0831,4.1062,3.8714,3.9953,4.0845,4.127,4.127,4.21,4.367,4.3242,4.309,4.3136,4.2866,4.2775,4.2908,4.417,4.5392,4.6461,4.6461,4.6461,4.6461,4.6461,4.6411,4.6411,4.7365,4.7716,4.7716,0.0,0.0,0.0,0.0,0.0,0.0,0.0,0.0,0.0,3.4628,3.5818,3.6992,3.7976,3.7727,3.7343,3.6992,3.6199,3.6389,3.7926,3.7963,3.795,3.8018,3.8633,3.9082,3.9402,3.7817,3.8064,4.0256,3.8613,3.8759,4.0602,4.0602,4.0832,4.1289,4.1289,4.1289,4.1248,4.0355,3.9676,3.9074,3.7654,3.6482,3.5561,3.5005,3.428,3.3534,3.375,3.3812,0.0,3.404,3.4288,3.451,3.451,3.4682,3.49,3.5086,3.5148,0.0,3.5361,3.5402,0.0,0.0,3.5402,3.5402,3.5402,3.5402,3.5402,3.5402,3.563,3.5816,3.5816,3.6023,3.6209,0.0,3.6209,3.6271,3.6478,3.6515,3.668,3.7156,3.7032,3.72,3.7932,3.8889,3.9233,3.8743,3.9421,3.9386,3.8275,3.9254,3.9481,3.8581,3.9613,4.0432,4.0918,4.0634,4.0864,4.1619,4.1434,4.1495,4.1828,4.2431,4.2885,4.3258,4.4642,4.555,4.61,4.6394,4.7021,4.7798,4.8109,4.8234,4.8134,4.728,4.6979,4.6979,0.0,0.0,0.0,0.0,0.0,0.0,0.0,0.0,0.0,0.0,3.7111,3.7814,3.8891,3.8417,3.8031,3.8095,3.7237,3.7567,3.9556,3.8882,3.879,3.9671,3.9848,4.0099,4.0487,3.9522,3.9851,4.1542,4.0389,4.0489,4.1768,4.1768,4.1768,4.1768,4.1768,4.1738,4.1577,4.0695,3.9551,3.8257,3.7015,3.5792,3.4658,3.4319,3.4189,3.4183,3.4165,3.4154,3.4159,3.4193,3.4455,3.4835,3.4835,3.5092,3.5371,3.5278,3.5263,3.5263,3.5263,0.0,0.0,3.5402,3.5402,3.5443,3.5552,3.5588,3.563,3.5754,3.6064,3.6292,3.6292,3.6577,3.6804,3.6804,3.6804,3.6846,3.697,3.6991,3.7177,3.7632,3.7674,3.7674,3.7674,3.8536,3.8827,3.8233,3.8208,3.8249,3.8357,3.827,3.8382,3.8782,3.9361,3.9863,4.032,3.9976,3.9868,3.9997,3.9997,4.0224,4.0614,4.164,4.2527,4.3334,4.4296,4.5139,4.5894,4.6295,4.7293,4.8576,4.8962,4.9138,4.8937,4.733,4.6938,4.7214,0.0,0.0,0.0,0.0,0.0,0.0,0.0,0.0,0.0,0.0,0.0,0.0,0.0,3.9384,3.9349,3.962,3.9349,3.9336,3.9684,3.9671,3.9671,3.9697,4.0199,4.0487,4.0512,3.9889,4.0416,4.2174,4.0978,4.1275,4.2964,4.2964,4.2964,4.2964,4.2964,4.2782,4.2452,4.2221,4.1314,3.9913,3.8431,3.7214,3.6106,3.486,3.4383,3.4369,3.4314,3.4294,3.4294,3.4366,3.4617,3.4901,3.4901,3.5139,0.0,3.5015,3.4922,3.4922,3.4922,3.5154,3.5402,3.5402,3.5402,3.5526,3.5981,3.6085,3.6209,3.6644,3.6763,3.6784,3.6784,3.6784,3.6804,3.6804,3.6804,3.697,3.7405,3.7467,3.7653,3.8125,3.8187,3.8187,0.0,3.8221,3.8237,3.8208,3.8208,3.8378,3.8762,3.8402,3.8382,3.8782,3.8453,3.8449,3.885,3.885,3.9057,3.9513,3.9513,3.953,3.9551,3.9585,4.0371,4.1672,4.1706,4.3285,4.5806,4.583,4.6667,4.7933,4.7958,4.7958,4.7942,4.7883,4.856,4.949,0.0,0.0,0.0,0.0,0.0,0.0,0.0,0.0,0.0,0.0,0.0,0.0,0.0,0.0,0.0,0.0,4.0418,4.0484,4.0737,4.0254,4.0041,4.0236,4.0412,4.0675,4.1026,4.1228,4.1789,4.2738,4.2323,4.2437,4.3014,4.3014,4.3014,4.3014,4.3014,4.2944,4.2835,4.2772,4.1483,3.9428,3.8716,3.7194,3.5299,3.4657,3.4407,3.4372,0.0,3.4171,3.4361,3.4378,3.447,3.4563,3.4563,3.4797,3.5092,3.5201,3.5232,3.5232,3.5232,3.5309,3.5469,3.5795,3.5857,3.5981,3.6473,3.6561,3.6618,3.6763,3.7053,3.726,3.726,3.7508,3.7732,3.7732,3.7732,3.7777,3.7939,3.796,3.8022,3.8187,3.8208,0.0,0.0,0.0,0.0,3.8208,3.8208,3.827,3.8382,3.8253,3.8382,3.8782,3.8419,3.8543,3.9275,3.8965,3.9047,3.9502,3.9502,3.9502,3.9537,4.0477,4.0644,4.0272,4.1183,4.2671,4.4449,4.4832,4.6383,4.8526,4.8887,4.9038,4.9038,4.9038,4.9264,4.949,0.0,0.0,0.0,0.0,0.0,0.0,0.0,0.0,0.0,0.0,0.0,0.0,0.0,0.0,0.0,0.0,0.0,4.0925,4.0965,4.0615,4.0469,4.0629,4.0949,4.1279,4.1617,4.2171,4.2637,4.3014,4.3014,4.3014,4.3014,4.3014,4.3014,4.3014,4.3014,4.2681,4.2136,4.215,4.0558,3.7999,3.7768,3.6332,3.4345,3.4126,3.4047,0.0,3.3796,3.3859,3.4047,3.4047,3.4126,3.422,3.422,3.4454,3.4782,3.5123,3.5216,3.5258,3.5438,3.5557,3.5754,3.623,3.6333,3.6457,3.6949,3.7053,3.7094,3.726,3.7529,3.7752,3.7752,3.8001,3.8208,3.8208,3.8208,3.8208,3.8208,3.8208,3.8208,3.8208,3.8208,3.8208,0.0,0.0,0.0,3.8208,3.8208,3.8253,3.8419,3.8291,3.8382,3.8782,3.8547,3.8692,3.9237,3.913,3.9296,3.9751,3.9751,3.9833,4.003,4.0948,4.0861,4.0048,4.0965,4.2442,4.4224,4.4097,4.604,4.9056,4.8882,4.9129,4.959,4.959,4.959,4.949,0.0,0.0,0.0,0.0,0.0,0.0,0.0,0.0,0.0,0.0,0.0,0.0,0.0,0.0,0.0,0.0,0.0,0.0,4.0523,4.0757,4.0896,4.0909,4.1718,4.2158,4.2158,4.2685,4.2972,4.2958,4.2986,4.3,4.2986,4.2986,4.2986,4.2986,4.2972,4.2065,4.0567,4.0572,3.8757,3.5915,3.5842,3.486,3.3418,3.3402,3.3402,3.3402,3.3402,3.3402,3.3402,3.3402,3.3623,3.3906,3.3937,3.4173,3.4501,3.4849,3.4962,3.5044,3.5529,3.5889,3.625,3.6722,3.6846,3.697,3.7425,3.7529,3.767,3.8104,3.8208,3.8208,0.0,0.0,3.8208,3.8208,3.8208,3.8208,3.8208,3.8208,3.8208,0.0,0.0,0.0,0.0,0.0,0.0,3.8229,3.8208,3.8378,3.8782,3.8444,3.8419,3.8824,3.8844,3.8844,3.8865,3.9337,3.9792,4.0244,4.0244,4.0468,4.09,4.09,4.09,4.09,4.09,4.2534,4.5102,4.3752,4.5729,4.9461,4.8052,4.8371,4.959,4.959,4.959,4.959,0.0,0.0,0.0,0.0,0.0,0.0,0.0,0.0,0.0,0.0,0.0,0.0,0.0,0.0,0.0,0.0,0.0,0.0,4.1962,4.1247,4.0929,4.1188,4.1419,4.1535,4.1535,4.2264,4.2538,4.2337,4.2776,4.2863,4.2611,4.2611,4.2611,4.2636,4.2411,4.1563,4.0239,4.0239,3.8669,3.6179,3.5898,3.5,3.3749,3.3497,3.3402,3.3402,3.3402,3.3402,3.3402,3.3402,0.0,0.0,3.4485,3.4704,3.4905,3.5597,3.5794,3.5897,3.6366,3.6554,3.6726,3.7198,3.7322,3.7446,3.7918,3.8022,3.8063,3.8187,3.8208,3.8208,0.0,0.0,0.0,3.8208,3.8208,0.0,3.8208,3.8208,0.0,3.8208,0.0,3.8208,3.8208,3.8208,0.0,0.0,3.8378,3.8378,3.8782,3.8696,3.8861,3.9316,3.9337,3.9482,3.9847,4.0303,4.0593,4.0717,4.0717,4.0776,4.09,4.09,4.09,4.09,4.09,4.2534,4.5164,4.4812,4.6603,4.9558,4.9177,4.9258,4.959,4.959,4.959,4.9665,0.0,0.0,0.0,0.0,0.0,0.0,0.0,0.0,0.0,0.0,0.0,0.0,0.0,0.0,0.0,0.0,0.0,0.0,0.0,4.1498,4.1295,4.1629,4.1643,4.1699,4.1825,4.2164,4.2241,4.211,4.2425,4.2509,4.2326,4.2326,4.2326,4.2326,4.2181,4.1052,3.9296,3.9164,3.7596,0.0,0.0,3.432,3.3654,3.3465,3.3402,3.3402,3.3402,0.0,0.0,0.0,0.0,3.4056,3.4931,3.5212,3.5372,3.6176,0.0,3.6515,3.697,3.7115,3.7218,3.7674,3.7815,3.7877,3.8146,3.8208,3.8208,3.8208,3.8208,3.8208,3.8208,3.8208,3.8208,0.0,0.0,0.0,3.8208,3.8208,3.8208,0.0,3.8208,0.0,3.846,3.8464,3.8651,0.0,3.8713,3.8651,3.9072,3.9109,3.9233,3.9502,3.9709,4.0037,4.0507,4.0755,4.09,4.09,4.09,4.09,4.0918,4.1107,4.1208,4.1229,4.1436,4.2768,4.4858,4.491,4.6652,4.9298,4.9372,4.9793,5.036,5.036,5.036,5.0385,0.0,0.0,0.0,0.0,0.0,0.0,0.0,0.0,0.0,0.0,0.0,0.0,0.0,0.0,0.0,0.0,0.0,0.0,0.0,0.0,4.1688,4.1983,4.1983,4.2086,4.2316,4.2128,4.2025,4.1983,4.2068,4.2082,4.2015,4.2015,4.2015,4.2015,4.2011,4.0562,3.8141,3.7858,3.6225,3.3812,3.3513,3.3402,3.3402,0.0,0.0,0.0,0.0,0.0,0.0,0.0,3.4648,3.4254,3.5412,3.5761,3.5906,3.6683,3.6887,3.6991,3.7467,3.7591,3.7674,3.8104,3.8208,3.8208,3.8208,3.8208,3.8208,3.8208,0.0,3.8208,3.8208,3.8208,3.8208,3.8208,0.0,3.8208,3.8208,3.8208,3.8208,3.8208,3.8249,3.8419,3.8762,3.8844,3.9089,3.9564,3.9233,3.9154,3.9564,3.9585,3.9626,3.9688,4.0081,4.0489,4.0897,4.09,4.0921,4.0983,4.0983,4.1042,4.1104,4.1519,4.1794,4.2014,4.2211,4.3215,4.4725,4.4854,4.6466,4.8944,4.9276,5.0166,5.1289,5.1289,5.1289,5.1314,0.0,0.0,0.0,0.0,0.0,0.0,0.0,0.0,0.0,0.0,0.0,0.0,0.0,0.0,0.0,0.0,0.0,0.0,0.0,0.0,0.0,4.1344,4.1369,4.1373,4.1416,4.1616,4.1588,4.1369,4.1869,4.1958,4.1692,4.1692,4.1692,4.1678,4.1459,3.9922,3.7474,3.7392,3.5879,3.3481,3.3418,3.3402,3.3402,3.3402,0.0,0.0,0.0,0.0,0.0,0.0,3.5039,3.5078,3.6232,3.6584,3.6703,3.7223,3.7384,3.7467,3.796,3.8084,3.8104,3.8187,3.8208,3.8208,3.8208,3.8208,0.0,0.0,3.8208,3.8208,3.8208,3.8208,3.8208,3.8208,3.8208,3.8208,3.8208,3.8208,3.8208,0.0,3.8485,3.872,3.8782,3.9134,0.0,0.0,3.9999,3.9995,4.0075,4.0078,4.0264,4.0634,4.0735,4.0817,4.09,4.09,4.1087,4.1477,4.1477,4.1685,4.2058,4.214,4.2873,4.4008,4.2832,4.3852,4.6406,4.6424,4.7382,4.9029,5.0385,5.1072,5.1289,5.1289,5.1289,5.1364,0.0,0.0,0.0,0.0,0.0,0.0,0.0,0.0,0.0,0.0,4.1735,0.0,0.0,0.0,0.0,0.0,0.0,0.0,0.0,0.0,0.0,0.0,0.0,0.0,4.1416,4.1416,4.133,4.1187,0.0,4.1545,4.1402,4.1402,4.1402,4.1373,4.0519,3.9084,3.7263,3.6597,3.5191,3.3402,3.3402,3.3402,0.0,0.0,0.0,0.0,0.0,0.0,0.0,0.0,3.5543,3.5632,3.6359,3.6697,3.6946,3.7398,3.7558,3.7649,3.8096,3.8037,3.7937,3.8158,3.8208,3.8208,3.8208,0.0,0.0,0.0,3.8208,3.8208,3.8208,3.8208,0.0,3.8208,3.8208,3.8208,3.8208,3.8208,3.8291,3.8485,3.8675,3.8989,3.9482,3.973,4.0058,4.053,4.0572,4.0551,4.0569,4.0551,4.0655,4.0879,4.1146,4.1252,4.1252,4.1519,4.1747,4.1954,4.1954,4.2078,4.2306,4.2515,4.3025,4.3723,4.4052,4.4985,4.6456,4.8102,4.9178,4.9976,5.1838,5.2553,5.2595,5.2896,5.3014,5.2997,0.0,0.0,0.0,0.0,0.0,0.0,0.0,4.1763,4.1606,4.1606,4.1901,4.1958,4.1635,4.1606,0.0,0.0,0.0,0.0,0.0,0.0,0.0,0.0,0.0,0.0,0.0,0.0,0.0,4.1187,4.1187,0.0,0.0,0.0,0.0,0.0,4.0097,3.8758,3.7226,3.6231,3.4881,0.0,0.0,3.3402,0.0,0.0,0.0,0.0,0.0,0.0,0.0,0.0,3.5923,3.5973,3.6223,3.6655,3.7113,3.7497,3.7599,3.7666,3.7987,3.7837,3.7666,3.7987,3.8141,3.8191,3.8087,3.8141,0.0,3.8108,3.8141,3.8208,3.8208,3.8208,3.8229,0.0,3.827,3.8229,3.8316,3.8336,3.846,0.0,3.8968,0.0,4.0123,4.0306,0.0,4.0859,4.0983,4.1045,4.1045,4.1045,4.1104,4.1208,4.156,4.1747,4.1747,4.212,4.2348,4.243,4.243,4.2493,4.2596,4.3245,4.3728,4.4159,4.5853,4.6773,4.729,4.9876,5.0948,5.1156,5.3122,5.3884,5.3934,5.4446,5.4597,5.4522,0.0,0.0,0.0,0.0,0.0,0.0,0.0,4.1621,4.1606,4.1606,4.1901,4.1958,4.1635,4.1606,0.0,0.0,0.0,0.0,0.0,0.0,0.0,0.0,0.0,0.0,0.0,0.0,0.0,4.1187,4.1187,0.0,0.0,0.0,0.0,0.0,0.0,3.9621,3.7293,3.7188,0.0,0.0,0.0,0.0,0.0,0.0,0.0,0.0,0.0,0.0,0.0,0.0,0.0,3.5991,3.6025,3.6715,3.7538,3.7599,0.0,0.0,3.7649,3.7616,3.7599,3.7649,3.792,3.8087,3.7733,0.0,3.8087,3.7716,3.7954,3.8208,3.8208,3.8208,3.8316,3.8696,3.8444,3.8316,3.8696,3.8741,3.8758,3.8803,0.0,0.0,4.0185,4.0593,4.0838,4.09,4.1273,4.154,4.154,4.154,4.1726,4.2161,4.2203,4.2223,4.2223,4.2285,4.2474,4.283,4.283,4.3058,4.3528,4.4977,4.6422,4.7836,4.8502,4.961,5.0938,5.173,5.2049,5.2218,5.3886,5.4522,5.4522,5.4572,5.4597,5.4597,0.0,0.0,0.0,0.0,0.0,0.0,0.0,4.1449,4.1359,4.1359,4.1773,4.1926,4.1416,4.1688,0.0,0.0,0.0,0.0,0.0,0.0,0.0,0.0,0.0,0.0,0.0,0.0,4.1187,4.1187,4.1187,0.0,0.0,0.0,0.0,0.0,0.0,3.8268,3.7203,3.5617,0.0,0.0,0.0,0.0,0.0,0.0,0.0,0.0,0.0,0.0,3.5999,0.0,0.0,0.0,3.5999,3.642,0.0,0.0,3.7297,3.7348,3.7549,3.7448,3.7348,3.7549,3.7565,3.7552,3.7582,0.0,3.7803,3.7632,3.792,3.8208,3.8208,3.8398,3.8526,3.8444,3.8733,3.894,3.8803,3.903,3.9337,3.9606,3.9978,0.0,0.0,0.0,4.1022,4.1312,4.1767,4.214,4.2373,4.2143,4.2099,4.2285,4.2536,4.2663,4.2663,4.2932,4.3159,4.3306,4.3306,4.3409,4.3653,4.557,4.6804,4.7533,4.9931,5.1318,5.1977,5.3163,5.3638,5.3735,5.4699,5.5082,5.5107,5.544,5.5541,5.5516,0.0,0.0,0.0,0.0,0.0,0.0,4.1763,4.1445,4.1187,4.1187,4.1631,4.1759,4.1268,4.1645,4.1745,4.123,0.0,0.0,0.0,0.0,0.0,0.0,0.0,0.0,0.0,0.0,4.1187,4.1187,4.1187,4.1187,0.0,0.0,4.0985,4.0557,0.0,0.0,0.0,0.0,0.0,0.0,0.0,0.0,0.0,0.0,0.0,0.0,0.0,0.0,0.0,0.0,0.0,0.0,0.0,0.0,0.0,0.0,3.6927,3.6978,3.7213,3.7112,3.6994,3.723,3.7196,3.7129,0.0,0.0,3.7565,3.7465,3.7854,3.8208,3.8208,3.8423,3.8568,3.8398,3.8882,3.9233,3.903,3.942,3.9833,4.0164,0.0,4.0593,4.1045,4.1229,4.1501,4.1956,4.2288,4.2642,4.3078,4.2847,4.2681,4.2681,4.2952,4.3099,4.3099,4.343,4.3658,4.3822,4.4316,4.436,4.4106,4.7063,4.8134,4.7898,5.1554,5.315,5.3247,5.4551,5.5056,5.5107,5.5509,5.5641,5.5666,5.605,5.62,5.6168,0.0,0.0,0.0,0.0,0.0,0.0,0.0,4.1598,4.1187,4.1187,4.1435,4.1492,4.1215,4.1435,4.1492,4.1215,0.0,0.0,0.0,0.0,0.0,0.0,0.0,0.0,0.0,0.0,0.0,0.0,4.1187,4.1187,4.1187,4.1187,4.0499,3.9275,0.0,0.0,0.0,0.0,0.0,0.0,0.0,0.0,0.0,0.0,0.0,0.0,0.0,0.0,0.0,0.0,0.0,0.0,0.0,3.5999,3.6067,3.64,3.6519,3.6519,3.6519,3.6519,3.6519,3.6519,3.6826,3.6994,0.0,3.7095,3.7498,3.7163,3.7686,3.8208,3.8208,3.8208,3.8336,3.8737,3.8803,3.8968,3.944,3.9895,4.0185,0.0,0.0,4.1084,4.156,4.2016,4.2453,4.2851,4.2892,4.3099,4.3554,4.3575,4.3575,4.3575,4.3575,4.3575,4.3575,4.3596,4.3823,4.4317,4.596,4.6141,4.5157,4.996,5.1279,4.9988,5.3728,5.5372,5.5397,5.5949,5.6175,5.6175,5.6175,5.6175,5.6175,5.62,5.62,5.62,0.0,0.0,0.0,0.0,0.0,0.0,0.0,4.1316,4.1187,4.1187,4.1421,4.1492,4.1215,4.1435,4.1478,4.1215,0.0,0.0,0.0,0.0,0.0,0.0,0.0,0.0,0.0,0.0,0.0,0.0,0.0,0.0,4.1187,4.1187,4.0971,4.0557,4.0054,3.8877,0.0,0.0,0.0,0.0,0.0,0.0,3.5195,0.0,0.0,0.0,0.0,0.0,0.0,0.0,0.0,0.0,0.0,0.0,0.0,3.6135,3.6336,3.6502,3.6502,3.6502,3.6502,3.6502,3.642,3.6369,3.6468,3.6688,3.6823,3.6705,3.728,3.7885,3.8214,3.8457,3.8758,3.9213,3.9561,3.9809,3.9957,0.0,0.0,4.0693,4.1087,4.156,0.0,4.2474,4.2766,4.2892,4.3203,4.343,4.3575,4.3596,4.3596,4.3596,4.3596,4.3741,4.4091,4.4091,4.4319,4.4774,4.5318,4.5942,4.6747,4.9745,5.1446,5.2204,5.4811,5.5942,5.5968,5.6143,5.62,5.62,5.62,5.62,5.62,5.62,5.62,5.62,0.0,0.0,0.0,0.0,0.0,0.0,0.0,4.1759,4.1803,4.2089,4.2287,4.2287,4.1982,4.2098,4.2026,4.1528,0.0,0.0,0.0,0.0,0.0,0.0,0.0,0.0,0.0,0.0,0.0,0.0,0.0,0.0,0.0,0.0,0.0,4.0403,3.9577,3.8491,0.0,0.0,0.0,0.0,0.0,0.0,3.541,0.0,0.0,0.0,0.0,0.0,0.0,0.0,0.0,0.0,0.0,0.0,0.0,0.0,3.6132,3.6319,3.6319,3.6319,3.6319,3.6319,3.6132,0.0,3.6268,3.6823,3.7139,3.662,3.7516,3.8397,3.8334,3.8624,3.9017,3.9426,3.9892,4.0199,4.0202,0.0,0.0,4.1128,4.1708,0.0,4.2495,4.2911,4.3161,4.3161,4.343,4.3698,4.3844,4.3844,4.3946,4.4132,4.3967,4.4091,4.4567,4.4567,4.5086,4.6191,4.6813,4.773,4.8943,5.1544,5.2928,5.3418,5.536,5.62,0.0,5.62,5.62,5.62,5.62,5.62,5.62,5.62,5.62,5.62,0.0,0.0,0.0,0.0,0.0,0.0,0.0,0.0,0.0,0.0,4.3674,4.3541,4.3231,4.3172,4.2884,0.0,0.0,0.0,0.0,0.0,0.0,0.0,0.0,0.0,0.0,0.0,0.0,4.1187,4.1187,4.1187,4.1187,0.0,0.0,0.0,3.9334,0.0,0.0,0.0,0.0,0.0,0.0,0.0,0.0,0.0,0.0,0.0,0.0,0.0,0.0,0.0,0.0,0.0,0.0,0.0,0.0,0.0,0.0,0.0,0.0,3.5999,3.5999,0.0,0.0,0.0,3.6016,3.7324,0.0,3.6812,3.8182,3.937,3.8507,3.8718,3.9125,3.9533,3.9937,4.0206,4.0244,4.0655,0.0,0.0,4.2414,4.2913,4.2954,4.3347,4.3596,4.3656,4.3637,4.3844,4.4319,4.436,4.4625,4.5199,4.4783,4.4725,4.5063,4.5161,4.6212,4.8162,4.9838,5.0949,5.1562,5.4633,5.5251,5.3975,5.5509,5.62,5.62,5.62,5.62,5.62,5.62,5.62,5.62,5.62,5.62,5.62,0.0,0.0,0.0,0.0,0.0,0.0,0.0,0.0,0.0,0.0,0.0,4.3276,4.3202,4.3018,0.0,0.0,0.0,0.0,0.0,0.0,0.0,0.0,0.0,0.0,0.0,0.0,0.0,4.1187,4.1187,4.1187,4.1187,4.1187,0.0,0.0,0.0,0.0,0.0,0.0,0.0,0.0,0.0,0.0,0.0,0.0,0.0,0.0,3.5999,3.5999,0.0,0.0,0.0,0.0,0.0,0.0,0.0,0.0,3.6758,3.7361,3.6304,0.0,3.5999,3.5999,3.6809,3.7327,0.0,3.7143,3.7928,3.6872,3.7271,3.803,3.8768,3.8952,3.9347,4.0395,4.0347,4.0327,4.0675,4.1128,0.0,4.2497,4.2768,4.3037,4.3389,4.3534,4.376,4.4112,4.4132,4.4339,4.4795,4.4836,4.561,4.7322,4.7255,4.6672,4.5539,4.6759,4.7796,4.8645,5.032,5.1849,5.3162,5.3937,5.4782,5.5619,5.6029,5.62,5.62,5.62,5.62,5.62,5.62,5.62,5.62,5.62,5.62,5.62,0.0,0.0,0.0,0.0,0.0,0.0,0.0,0.0,0.0,0.0,0.0,0.0,0.0,0.0,0.0,0.0,0.0,0.0,0.0,0.0,0.0,0.0,0.0,0.0,0.0,0.0,0.0,0.0,0.0,4.1187,0.0,0.0,0.0,0.0,0.0,0.0,0.0,0.0,0.0,0.0,3.5556,0.0,0.0,0.0,0.0,0.0,3.5999,3.5999,0.0,3.5999,3.5999,3.5999,0.0,0.0,0.0,0.0,3.7512,3.7925,3.7159,3.6961,3.6961,3.6961,3.7042,3.7277,3.7813,3.8157,3.8229,3.7733,0.0,3.8557,3.8795,3.8962,3.944,4.0461,4.0409,4.0462,0.0,4.1791,4.2373,4.2851,4.3099,4.3306,4.3594,4.3782,4.4029,4.4277,4.4505,4.5146,4.6349,4.5725,4.6269,4.8368,4.8427,4.7997,4.711,4.874,4.9688,4.9956,5.162,5.3256,5.4856,5.4856,5.5343,5.62,5.62,5.62,5.62,5.62,5.62,5.62,5.62,5.62,5.62,5.62,5.62,5.62,0.0,0.0,0.0,0.0,0.0,0.0,0.0,0.0,0.0,0.0,0.0,0.0,0.0,0.0,0.0,0.0,0.0,0.0,0.0,0.0,0.0,0.0,0.0,0.0,0.0,0.0,0.0,0.0,0.0,0.0,0.0,0.0,4.1235,0.0,0.0,0.0,0.0,0.0,0.0,0.0,3.6263,0.0,0.0,0.0,0.0,0.0,0.0,0.0,0.0,3.6067,3.6152,3.6321,3.6321,0.0,0.0,0.0,0.0,0.0,3.7942,3.8092,3.8374,3.8158,3.7193,3.6944,0.0,0.0,0.0,0.0,0.0,0.0,3.8743,3.8918,0.0,0.0,4.0317,4.0704,4.1583,4.2398,4.2934,4.2996,4.3347,4.3731,4.4059,4.4433,4.4726,4.4872,4.5248,4.6272,4.8109,4.6681,4.6832,4.9094,4.9175,4.9175,4.9175,5.083,5.1658,5.1697,5.3312,5.4837,5.62,5.62,5.62,5.62,5.62,5.62,5.62,5.62,5.62,5.62,5.62,5.62,5.62,5.62,5.62,5.62,0.0,0.0,0.0,0.0,0.0,0.0,0.0,0.0,0.0,0.0,0.0,0.0,0.0,0.0,0.0,0.0,0.0,0.0,0.0,0.0,0.0,0.0,0.0,0.0,0.0,0.0,0.0,0.0,0.0,0.0,4.1187,4.1187,4.1427,0.0,0.0,0.0,0.0,0.0,0.0,0.0,3.7629,0.0,0.0,0.0,0.0,0.0,0.0,0.0,0.0,3.6386,3.6792,3.7775,3.7775,0.0,0.0,0.0,0.0,0.0,3.7294,3.8059,3.9572,3.8407,3.7925,0.0,0.0,0.0,0.0,0.0,0.0,0.0,0.0,3.9154,3.9339,0.0,4.0419,4.1206,4.206,4.2585,4.3037,4.3451,4.3573,4.431,4.6131,4.6371,4.6722,4.7447,4.7577,4.7935,4.865,4.7106,4.7646,5.0811,5.0908,5.0908,5.0908,5.2518,5.3331,5.335,5.5004,5.5937,5.62,5.62,5.62,5.62,5.62,5.62,5.62,5.62,5.62,5.62,5.62,5.62,5.62,5.62,5.62,5.62,0.0,0.0,0.0,0.0,0.0,0.0,0.0,0.0,0.0,0.0,0.0,0.0,0.0,0.0,0.0,0.0,0.0,0.0,0.0,0.0,0.0,0.0,0.0,0.0,0.0,0.0,0.0,0.0,0.0,4.1187,4.1211,4.1514,4.139,4.0901,0.0,0.0,0.0,0.0,0.0,0.0,0.0,0.0,0.0,0.0,0.0,0.0,0.0,0.0,0.0,0.0,3.7562,3.8092,3.8092,0.0,0.0,0.0,0.0,0.0,3.9719,3.9403,3.9429,3.9529,3.8448,0.0,0.0,0.0,0.0,0.0,0.0,0.0,0.0,3.9044,3.9408,3.9976,4.0987,4.1842,4.2232,4.2856,4.3451,4.3906,4.4768,4.5812,4.7007,4.7367,4.8041,4.9346,4.8007,4.801,5.0053,4.8543,4.8367,4.9897,5.083,5.1293,5.1293,5.2897,5.3688,5.3707,5.4479,5.5324,5.62,5.62,5.62,5.62,5.62,5.62,5.62,5.62,5.62,5.62,5.62,5.62,5.62,5.62,5.62,5.62,0.0,0.0,0.0,0.0,0.0,0.0,0.0,0.0,0.0,0.0,0.0,0.0,0.0,0.0,0.0,0.0,0.0,0.0,0.0,0.0,0.0,0.0,0.0,0.0,0.0,0.0,4.1394,4.1394,4.1259,4.1259,4.1403,4.1947,4.1695,0.0,0.0,0.0,0.0,0.0,0.0,0.0,0.0,0.0,0.0,0.0,0.0,0.0,0.0,0.0,0.0,0.0,0.0,0.0,0.0,0.0,0.0,4.1968,4.1761,4.1206,4.1399,4.0349,3.9336,3.9968,0.0,0.0,0.0,0.0,0.0,0.0,0.0,0.0,0.0,3.932,3.9605,4.0318,4.1411,4.2313,4.2792,4.3735,4.4628,4.5348,4.6312,4.7405,4.8611,4.8707,4.9263,5.0658,4.9072,4.882,5.0617,4.9509,4.8978,4.9371,5.0637,5.1486,5.1869,5.3086,5.3919,5.4292,5.4292,5.4949,5.62,5.62,5.62,5.62,5.62,5.62,5.62,5.62,5.62,5.62,5.62,5.6276,5.6376,5.6251,5.6276,5.6376,0.0,0.0,0.0,0.0,0.0,0.0,0.0,0.0,0.0,0.0,0.0,0.0,0.0,0.0,0.0,0.0,0.0,0.0,0.0,0.0,0.0,0.0,0.0,0.0,0.0,4.2212,4.1947,4.1947,4.1427,4.1451,4.1947,4.2477,4.2922,4.3248,0.0,0.0,0.0,0.0,0.0,0.0,0.0,0.0,0.0,0.0,0.0,0.0,0.0,0.0,0.0,0.0,0.0,0.0,0.0,0.0,4.2182,4.2277,4.3098,4.3278,3.9873,3.9789,4.0241,3.8535,3.7681,0.0,3.9678,3.8975,0.0,4.0355,0.0,0.0,0.0,4.0497,3.998,4.0429,4.1213,4.2395,4.4259,4.5707,4.7103,4.8596,4.7938,4.8766,5.2337,5.1306,5.0643,5.1201,5.2437,5.1942,4.9135,4.886,4.9528,5.1062,5.1236,5.2022,5.3501,5.3632,5.4479,5.6011,5.6011,5.6066,5.62,5.62,5.62,5.62,5.62,5.62,5.62,5.62,5.62,5.62,5.62,5.6502,5.6885,5.6376,5.6527,5.686,0.0,0.0,0.0,0.0,0.0,0.0,0.0,0.0,0.0,0.0,0.0,0.0,0.0,0.0,0.0,0.0,0.0,0.0,0.0,0.0,0.0,0.0,0.0,4.3907,4.373,4.2919,4.2515,4.2515,4.2284,4.2284,4.2501,4.2991,0.0,0.0,0.0,0.0,0.0,0.0,0.0,0.0,0.0,0.0,0.0,0.0,0.0,0.0,0.0,0.0,0.0,0.0,4.0797,4.1601,4.2134,4.2309,4.2467,4.331,4.2866,4.1994,4.1456,4.0808,4.0355,4.0574,3.9359,0.0,0.0,4.0143,4.0814,3.9978,4.0115,0.0,0.0,4.0554,4.0734,4.2142,4.3038,4.4203,4.6064,4.6508,4.7027,4.7986,4.8876,4.9664,5.0354,5.17,5.2192,5.1347,5.0908,5.0578,5.0365,5.0345,5.0656,5.1274,5.227,5.3086,5.3688,5.3688,5.4534,5.62,5.5134,5.5195,5.62,5.62,5.62,5.62,5.62,5.6401,5.6702,5.6702,5.6928,5.7248,5.7248,5.7399,5.7549,5.7349,5.7399,5.7531,0.0,0.0,0.0,0.0,0.0,0.0,0.0,0.0,0.0,0.0,0.0,0.0,0.0,0.0,0.0,0.0,0.0,0.0,0.0,0.0,0.0,0.0,0.0,4.43,4.43,4.3634,4.3183,4.3015,4.3015,4.3015,4.3015,0.0,0.0,0.0,0.0,0.0,0.0,0.0,0.0,0.0,0.0,0.0,0.0,0.0,0.0,0.0,0.0,0.0,0.0,0.0,4.1505,4.2309,4.2309,4.2594,4.3051,4.3687,4.272,4.1556,4.19,4.1015,4.0175,4.0934,0.0,0.0,3.8858,4.0345,4.143,4.0186,4.0963,4.159,4.0677,0.0,4.1952,4.3486,4.4746,4.6214,4.8197,4.8366,4.8518,4.9132,5.0525,5.1155,5.0417,5.1903,5.2708,5.2099,5.1004,5.0637,5.1274,5.1773,5.206,5.206,5.3124,5.3956,5.4479,5.4479,5.506,5.62,5.5195,5.525,5.62,5.6376,5.6451,5.6451,5.6652,5.6928,5.728,5.728,5.7531,5.7901,5.7901,5.8001,5.8127,5.7951,5.8001,5.8127,0.0,0.0,0.0,0.0,0.0,0.0,0.0,0.0,0.0,0.0,0.0,0.0,0.0,0.0,0.0,0.0,0.0,0.0,0.0,0.0,0.0,0.0,0.0,4.43,4.43,4.43,4.4051,4.3514,4.3514,4.3514,4.3514,4.4051,0.0,0.0,0.0,0.0,0.0,0.0,0.0,0.0,0.0,3.7709,0.0,0.0,0.0,0.0,0.0,0.0,0.0,0.0,4.2309,4.2325,4.2325,4.3232,4.4101,4.3179,4.2898,4.2452,4.051,3.9997,3.9786,3.8856,0.0,0.0,3.9451,3.9236,3.9678,4.1213,4.2154,4.2271,4.0813,4.2162,4.3698,4.4248,4.6012,4.8183,5.0674,5.1534,5.2168,5.2827,5.3087,5.3322,5.3632,5.227,5.2003,5.3557,5.3688,5.301,5.1409,5.284,5.3707,5.3707,5.3707,5.4516,5.6182,5.62,5.62,5.62,5.6734,5.6728,5.6244,5.6778,5.701,5.7035,5.765,5.7901,5.7901,5.7901,5.7926,5.7926,5.7926,5.8252,5.8635,5.8102,5.8234,5.8635,0.0,0.0,0.0,0.0,0.0,0.0,0.0,0.0,0.0,0.0,0.0,0.0,0.0,0.0,0.0,0.0,0.0,0.0,0.0,0.0,0.0,0.0,0.0,0.0,0.0,0.0,4.4228,4.4075,4.4075,4.4075,0.0,0.0,0.0,4.4254,0.0,0.0,0.0,0.0,0.0,0.0,3.985,4.0046,0.0,0.0,0.0,0.0,0.0,0.0,0.0,0.0,0.0,0.0,4.3701,4.3529,4.3261,4.2982,4.1922,4.0732,4.0159,3.9518,3.9192,3.9959,3.9915,3.9886,0.0,4.1627,0.0,0.0,4.362,4.3457,4.4173,4.4116,4.4797,4.7271,4.7691,4.8847,5.2027,5.2073,5.1986,5.2622,5.3001,5.2887,5.2079,5.3675,5.3994,5.2156,5.3067,5.3482,5.301,5.3444,5.4236,5.5417,5.5453,5.5717,5.62,5.6577,5.6778,5.6778,5.7355,5.733,5.6784,5.7355,5.7631,5.765,5.7826,5.8127,5.8485,5.888,5.9031,5.9031,5.9031,5.9131,5.9257,5.9081,5.9131,5.9232,0.0,0.0,0.0,0.0,0.0,0.0,0.0,0.0,0.0,0.0,0.0,0.0,0.0,0.0,0.0,0.0,0.0,0.0,0.0,0.0,4.43,4.43,4.43,4.43,0.0,4.43,4.43,0.0,0.0,0.0,0.0,0.0,0.0,4.4269,0.0,4.3545,0.0,0.0,0.0,4.2925,4.0968,4.1377,4.2878,0.0,0.0,0.0,0.0,0.0,0.0,0.0,0.0,0.0,4.375,4.3,4.213,4.2535,4.1399,3.9933,3.9551,3.9046,3.8849,3.9895,3.9682,3.9518,4.0801,4.2298,4.3401,4.3516,4.3516,4.386,4.5051,4.5233,4.6198,4.9236,4.9874,5.0806,5.3269,5.257,5.1833,5.185,5.266,5.2698,5.1409,5.3675,5.467,5.3355,5.3519,5.3994,5.467,5.4708,5.5177,5.6182,5.6401,5.6527,5.6527,5.7079,5.7355,5.7355,5.7932,5.8033,5.7688,5.8033,5.8227,5.8227,5.8453,5.873,5.9037,5.9357,5.9483,5.9483,5.9483,5.9483,5.9483,5.9483,5.9483,5.9483,0.0,0.0,0.0,0.0,0.0,0.0,0.0,0.0,0.0,0.0,0.0,0.0,0.0,0.0,0.0,0.0,0.0,0.0,0.0,0.0,4.43,4.43,4.43,4.43,4.43,0.0,0.0,0.0,0.0,0.0,0.0,0.0,4.43,4.43,0.0,4.4192,0.0,4.2862,4.3067,4.4083,4.1457,4.1968,4.4021,4.1393,0.0,0.0,0.0,0.0,0.0,0.0,0.0,0.0,4.2777,4.1901,4.0913,4.1815,4.1048,3.9703,3.8838,3.8631,3.8749,3.9101,3.9258,3.9551,4.0371,4.1843,4.2703,4.1695,4.2718,4.3949,4.4483,4.5796,4.7658,5.0246,5.1822,5.3083,5.4199,5.3138,5.1916,5.1123,5.245,5.2963,5.1793,5.3048,5.4553,5.6084,5.4782,5.4596,5.6127,5.62,5.6226,5.6276,5.6753,5.7035,5.7085,5.7656,5.7976,5.7976,5.8529,5.8761,5.8761,5.8761,5.8761,5.8786,5.9282,5.9483,5.9483,5.9483,5.9483,5.9483,5.9483,5.9483,5.9483,5.9483,5.9483,5.9483,0.0,0.0,0.0,0.0,0.0,0.0,0.0,0.0,0.0,0.0,0.0,0.0,0.0,0.0,0.0,0.0,0.0,0.0,0.0,0.0,4.43,4.43,4.43,4.43,4.43,4.43,0.0,0.0,0.0,0.0,0.0,0.0,0.0,4.4254,0.0,4.3326,4.4207,4.2862,4.3067,4.4161,4.2515,4.2831,4.413,4.2483,4.2862,0.0,0.0,0.0,0.0,0.0,0.0,0.0,4.161,4.0777,4.0215,4.0442,3.9752,3.8854,3.8644,3.8827,3.9082,3.918,3.9708,4.0371,4.0918,4.2548,4.3851,4.3608,4.4875,4.6125,4.6524,4.7202,4.8336,5.0247,5.0071,5.0694,5.353,5.3892,5.3817,5.3648,5.4472,5.4979,5.4695,5.5269,5.5809,5.6182,5.5864,5.5827,5.6182,5.62,5.6401,5.6809,5.6935,5.723,5.77,5.8234,5.8535,5.8535,5.9081,5.9332,5.9332,5.9332,5.9332,5.9332,5.9433,5.9483,5.9483,5.9483,5.9483,5.9483,5.9483,5.9483,5.9483,5.9483,5.9483,5.9483,0.0,0.0,0.0,0.0,0.0,0.0,0.0,0.0,0.0,0.0,0.0,0.0,0.0,0.0,0.0,0.0,0.0,0.0,0.0,0.0,0.0,0.0,4.43,4.43,4.43,4.43,4.43,0.0,0.0,0.0,0.0,0.0,0.0,4.3342,0.0,4.3295,4.3342,4.3295,4.3654,4.4238,4.3545,4.367,4.4223,4.3529,0.0,4.43,4.43,0.0,0.0,0.0,0.0,0.0,0.0,0.0,3.9457,4.1834,4.0666,3.8795,3.9738,3.9612,3.9297,3.9708,4.0332,4.0937,4.1406,4.2307,4.3173,4.3596,4.4789,4.5931,4.6339,4.6656,4.7479,4.9373,4.9855,5.0617,5.2351,5.2982,5.3252,5.3252,5.3967,5.4434,5.4434,5.5515,5.62,5.62,5.62,5.6301,5.6577,5.6577,5.6853,5.7405,5.7681,5.7957,5.8284,5.883,5.9062,5.9106,5.9357,5.9483,5.9483,5.9483,5.9483,5.9483,5.9483,5.9483,5.9483,5.9483,5.9483,5.9483,5.9483,5.9483,5.9483,5.9483,5.9483,5.9483,0.0,0.0,0.0,0.0,0.0,0.0,0.0,0.0,0.0,0.0,0.0,0.0,0.0,0.0,0.0,0.0,0.0,0.0,0.0,0.0,0.0,0.0,4.43,4.43,4.43,4.43,4.43,0.0,0.0,0.0,0.0,0.0,0.0,4.2673,0.0,0.0,4.2388,4.3717,4.4176,4.3974,4.4207,4.43,0.0,0.0,0.0,0.0,4.4062,4.4396,4.4618,4.3159,0.0,0.0,0.0,0.0,3.8839,4.294,4.1767,3.9425,4.0729,4.0275,3.9629,4.041,4.0957,4.1387,4.1719,4.1914,4.2226,4.295,4.408,4.5009,4.5223,4.5525,4.6407,4.8454,4.9953,5.1062,5.1639,5.2126,5.2374,5.2321,5.3025,5.3516,5.3516,5.509,5.6146,5.62,5.6276,5.6527,5.6985,5.7085,5.743,5.8027,5.8459,5.8736,5.8836,5.9282,5.9483,5.9483,5.9483,5.9483,5.9483,5.9483,5.9483,5.9483,5.9483,5.9483,5.9483,5.9483,5.9483,5.9483,5.9483,5.9483,5.9483,5.9483,5.9483,5.9508,0.0,0.0,0.0,0.0,0.0,0.0,0.0,0.0,0.0,0.0,0.0,0.0,0.0,0.0,0.0,0.0,0.0,0.0,4.43,0.0,0.0,4.43,4.43,4.43,4.43,4.43,4.43,0.0,0.0,0.0,0.0,0.0,0.0,4.4005,0.0,0.0,0.0,4.3717,4.3623,4.2673,4.3826,4.43,0.0,0.0,0.0,0.0,0.0,0.0,4.3671,4.226,4.197,0.0,0.0,0.0,3.8641,3.9297,4.03,4.095,3.9806,3.9916,4.045,4.0976,4.1426,4.1738,4.1797,4.2383,4.295,4.3067,4.4382,4.5184,4.4131,4.519,4.6785,4.852,4.8993,5.0148,5.3058,5.3817,5.3948,5.3615,5.4272,5.4756,5.4756,5.5337,5.5834,5.6182,5.6627,5.691,5.6985,5.7481,5.8027,5.8585,5.866,5.8911,5.9382,5.9458,5.9483,5.9483,5.9483,5.9483,5.9483,5.9483,5.9483,5.9483,5.9483,5.9483,5.9483,5.9483,5.9483,5.9483,5.9483,5.9483,5.9483,5.9483,5.9483,5.9558,0.0,0.0,0.0,0.0,0.0,0.0,0.0,0.0,0.0,0.0,0.0,0.0,0.0,0.0,0.0,4.4316,4.43,4.43,4.43,4.43,4.43,4.43,4.43,4.43,4.43,4.43,0.0,0.0,0.0,0.0,0.0,4.2657,4.2175,0.0,0.0,0.0,0.0,0.0,0.0,0.0,0.0,0.0,0.0,0.0,0.0,0.0,0.0,0.0,0.0,4.1477,4.1594,4.2449,4.1004,0.0,0.0,0.0,4.2197,4.1316,4.0216,4.1018,4.2073,4.1641,4.166,4.1933,4.2422,4.2833,4.3165,4.3399,4.4785,4.5815,4.5271,4.5779,4.6848,4.852,4.9582,5.0733,5.2198,5.3365,5.401,5.3822,5.4496,5.4911,5.4682,5.5448,5.6051,5.6295,5.673,5.7286,5.7932,5.8208,5.8585,5.9131,5.9156,5.9257,5.9483,5.9483,5.9483,5.9483,5.9483,5.9483,5.9483,5.9483,5.9483,5.9483,5.9483,5.9483,5.9483,5.9483,5.9483,5.9483,5.9483,5.9483,5.9533,5.9834,5.996,6.0035,0.0,0.0,0.0,0.0,0.0,0.0,0.0,0.0,0.0,0.0,0.0,0.0,0.0,0.0,0.0,0.0,4.43,4.43,4.43,4.43,4.43,4.43,4.43,4.43,4.43,4.43,0.0,0.0,0.0,0.0,4.3764,4.3122,4.1872,0.0,4.1296,0.0,0.0,0.0,0.0,0.0,0.0,0.0,0.0,0.0,0.0,0.0,0.0,0.0,0.0,0.0,0.0,0.0,0.0,4.0882,0.0,0.0,0.0,4.1856,4.1872,4.2779,4.3495,4.2621,4.2585,4.2823,4.3051,4.3184,4.3463,4.4209,4.5393,4.6546,4.7407,4.7228,4.7467,4.917,5.0478,5.1447,5.1892,5.3001,5.3803,5.3803,5.4328,5.4608,5.4416,5.5454,5.6208,5.6383,5.7037,5.7807,5.866,5.8836,5.9106,5.9483,5.9483,5.9483,5.9483,5.9483,5.9483,5.9483,5.9483,5.9483,5.9508,5.9633,5.9709,5.9684,5.9558,5.9483,5.9483,5.9483,5.9483,5.9483,5.9483,5.9583,5.9759,6.0141,6.0392,6.0613,0.0,0.0,0.0,0.0,0.0,0.0,0.0,0.0,0.0,0.0,0.0,0.0,0.0,0.0,4.4656,4.4331,4.43,4.43,4.43,4.43,4.43,4.43,4.43,0.0,4.43,0.0,0.0,0.0,0.0,0.0,4.2436,4.3623,4.2768,4.0192,4.0273,4.0306,4.0306,0.0,0.0,0.0,0.0,0.0,0.0,0.0,0.0,0.0,0.0,0.0,0.0,0.0,0.0,0.0,0.0,0.0,0.0,0.0,0.0,0.0,4.5112,4.4963,4.4233,4.4099,4.474,4.5001,4.3453,4.3399,4.4145,4.5819,4.6244,4.7268,5.0439,4.9738,4.9209,5.0908,5.1236,5.1854,5.3441,5.3747,5.3803,5.3803,5.3841,5.401,5.436,5.5315,5.6047,5.6396,5.7762,5.8635,5.871,5.9182,5.9458,5.9483,5.9483,5.9483,5.9483,5.9483,5.9483,5.9483,5.9483,5.9483,5.9508,6.0035,6.0267,6.0217,5.9734,5.9483,5.9483,5.9483,5.9483,5.9483,5.9483,5.9809,6.0267,6.0292,6.0663,6.1235,0.0,0.0,0.0,0.0,0.0,0.0,0.0,0.0,0.0,0.0,0.0,0.0,0.0,4.4486,4.4424,4.4316,4.43,4.43,4.43,4.43,4.43,4.43,4.43,4.43,4.43,0.0,0.0,0.0,0.0,4.3216,4.3561,4.227,4.1759,4.1891,4.0735,4.0334,4.0535,3.9626,0.0,0.0,0.0,0.0,0.0,0.0,0.0,0.0,0.0,0.0,0.0,0.0,0.0,0.0,0.0,0.0,0.0,0.0,0.0,4.6374,4.6392,4.688,4.7279,4.6824,4.614,4.5524,4.5209,4.5271,4.5556,4.6184,4.7168,4.8599,5.0888,5.0811,5.0946,5.2641,5.2887,5.312,5.3728,5.3803,5.3803,5.3803,5.4029,5.4281,5.4506,5.5536,5.6462,5.7059,5.8097,5.8836,5.9207,5.9382,5.9483,5.9483,5.9483,5.9483,5.9483,5.9483,5.9483,5.9508,5.9859,5.9991,6.0035,6.0613,6.0864,6.0864,6.0663,6.0607,6.0607,6.0607,6.0607,6.0607,6.0607,6.0708,6.0914,6.1266,6.1542,6.1793,0.0,0.0,0.0,0.0,0.0,0.0,0.0,0.0,0.0,0.0,0.0,0.0,0.0,0.0,4.43,4.43,4.43,4.43,4.43,4.43,4.43,4.43,4.43,4.43,4.43,0.0,0.0,0.0,0.0,0.0,0.0,4.2137,4.1505,4.1678,4.0478,4.0068,0.0,0.0,0.0,3.9734,0.0,0.0,3.9782,0.0,0.0,0.0,0.0,0.0,0.0,0.0,0.0,0.0,0.0,0.0,0.0,0.0,0.0,0.0,4.7712,4.8553,4.9522,4.902,4.8184,4.7302,4.6483,4.6727,4.6988,4.6426,4.8084,4.9973,5.1101,5.1758,5.2484,5.361,5.3803,5.3803,5.3803,5.3803,5.3803,5.3803,5.4047,5.4372,5.4796,5.5849,5.6808,5.7646,5.8472,5.9112,5.9483,5.9483,5.9483,5.9483,5.9483,5.9483,5.9483,5.9684,5.9784,5.9784,6.0337,6.0613,6.0638,6.119,6.1466,6.1466,6.1642,6.1517,6.121,6.121,6.121,6.121,6.121,6.1311,6.1492,6.1868,6.2119,6.2325,0.0,0.0,0.0,0.0,0.0,0.0,0.0,0.0,0.0,0.0,0.0,0.0,0.0,0.0,0.0,4.43,4.43,4.43,4.43,4.4324,4.4324,4.4324,4.4348,4.4348,4.4348,0.0,0.0,0.0,0.0,0.0,0.0,0.0,4.2053,0.0,3.9354,3.9357,3.9292,0.0,3.8422,4.0158,0.0,4.1284,4.2757,0.0,0.0,0.0,4.2027,4.1777,0.0,0.0,0.0,0.0,0.0,0.0,0.0,0.0,0.0,0.0,0.0,0.0,0.0,5.0597,5.0945,5.0439,4.7188,4.7706,4.8401,4.6727,4.8993,5.1274,5.1236,5.2565,5.3672,5.3728,5.3766,5.3803,5.3803,5.3803,5.3803,5.3803,5.3803,5.4213,5.5199,5.6154,5.7114,5.8042,5.895,5.9483,5.9483,5.9483,5.9483,5.9483,5.9483,5.9508,5.9508,6.006,6.0317,6.0342,6.0939,6.1235,6.1235,6.1768,6.2019,6.2049,6.2576,6.2199,6.126,6.126,6.126,6.126,6.126,6.1567,6.2019,6.2019,6.235,6.2802,0.0,0.0,0.0,0.0,0.0,0.0,0.0,0.0,0.0,0.0,0.0,0.0,0.0,0.0,0.0,4.43,4.43,4.43,4.43,4.4661,4.4893,4.4893,4.5253,4.5469,4.5469,0.0,0.0,0.0,0.0,0.0,0.0,0.0,0.0,0.0,3.8761,3.8499,3.8777,3.8032,0.0,0.0,4.0207,4.0492,0.0,0.0,0.0,0.0,0.0,4.2009,0.0,0.0,4.1825,4.1207,0.0,0.0,0.0,0.0,0.0,0.0,5.09,0.0,0.0,0.0,0.0,0.0,5.0128,5.0265,5.0128,4.8441,4.9816,5.0927,4.9719,4.9875,5.0598,5.1773,5.3001,5.3803,5.3803,5.3803,5.3803,5.3803,5.414,5.463,5.5318,5.6544,5.7547,5.8191,5.9026,5.9483,5.9483,5.9483,5.9483,5.9483,5.9483,5.9684,6.0066,6.0217,6.0537,6.0939,6.1517,6.1768,6.1793,6.2325,6.2576,6.2576,6.2752,6.2626,6.235,6.235,6.235,6.235,6.235,6.245,6.2576,6.2576,6.2676,6.2802,0.0,0.0,0.0,0.0,0.0,0.0,0.0,0.0,0.0,0.0,0.0,0.0,0.0,0.0,0.0,0.0,4.4965,4.4965,4.4965,4.5253,4.5421,4.5421,4.5149,4.4984,0.0,0.0,0.0,0.0,0.0,0.0,0.0,0.0,0.0,0.0,0.0,0.0,0.0,0.0,0.0,0.0,3.9794,0.0,0.0,4.0494,4.1088,0.0,0.0,0.0,4.1758,4.2001,4.205,0.0,0.0,0.0,0.0,0.0,0.0,0.0,0.0,0.0,0.0,0.0,0.0,0.0,5.0598,5.0811,5.042,4.7307,4.8579,4.9738,4.8064,4.8322,4.9347,5.1023,5.2122,5.3001,5.3709,5.3803,5.3875,5.4092,5.4423,5.4962,5.5902,5.6731,5.7496,5.8242,5.8736,5.9062,5.9256,5.9411,5.9483,5.9483,5.9709,5.9985,6.0292,6.0769,6.119,6.1542,6.2094,6.2325,6.235,6.2468,6.2638,6.2781,6.2618,6.2638,6.2802,6.2802,6.2802,6.2802,6.2802,6.2802,6.2802,6.2802,6.2802,6.2802,0.0,0.0,0.0,0.0,0.0,0.0,0.0,0.0,0.0,0.0,0.0,0.0,0.0,0.0,0.0,0.0,4.5902,4.5838,4.5669,4.5701,0.0,0.0,0.0,0.0,0.0,0.0,0.0,0.0,0.0,0.0,0.0,0.0,0.0,0.0,0.0,0.0,0.0,0.0,0.0,3.9336,3.9297,3.9551,0.0,0.0,4.0254,0.0,4.0645,4.0937,4.1328,4.1328,4.252,0.0,0.0,0.0,0.0,0.0,5.0048,0.0,0.0,0.0,0.0,0.0,0.0,0.0,5.0031,5.052,5.0245,4.5535,4.7107,4.8796,4.6928,4.7945,4.9562,5.1062,5.1293,5.1892,5.3554,5.3803,5.3996,5.4544,5.4645,5.5226,5.661,5.6833,5.7253,5.8163,5.8271,5.8462,5.8809,5.9192,5.9411,5.9372,5.9977,6.0297,6.0314,6.1426,6.2044,6.2074,6.2576,6.2802,6.2781,6.2372,6.2413,6.2781,6.2372,6.2413,6.2802,6.2741,6.2761,6.2802,6.2802,6.2802,6.2802,6.2802,6.2802,6.2802,0.0,0.0,0.0,0.0,0.0,0.0,0.0,0.0,0.0,0.0,0.0,0.0,0.0,0.0,0.0,0.0,0.0,4.5412,0.0,0.0,0.0,0.0,0.0,0.0,0.0,0.0,0.0,0.0,0.0,0.0,0.0,0.0,0.0,0.0,0.0,0.0,0.0,0.0,0.0,4.0215,3.9902,0.0,4.0391,4.0391,4.0879,4.1543,4.1543,4.1797,4.2167,0.0,4.2426,4.2982,0.0,0.0,0.0,0.0,0.0,0.0,0.0,0.0,0.0,0.0,0.0,0.0,5.2963,5.3101,5.266,5.0303,5.1428,5.1912,4.8875,4.968,5.0927,5.1255,5.1293,5.1892,5.3554,5.3803,5.3996,5.4544,5.4977,5.5525,5.6253,5.6982,5.7534,5.771,5.8089,5.835,5.8403,5.8789,5.8867,5.8541,5.9664,6.036,6.0448,6.1487,6.222,6.2651,6.2752,6.2802,6.2781,6.2372,6.2413,6.2781,6.2372,6.2413,6.2761,6.2454,6.2495,6.2802,6.2802,6.2802,6.2802,6.2802,6.2802,6.2802,0.0,0.0,0.0,0.0,0.0,0.0,0.0,0.0,0.0,0.0,0.0,0.0,0.0,0.0,0.0,0.0,0.0,0.0,0.0,0.0,0.0,0.0,0.0,0.0,0.0,0.0,0.0,0.0,0.0,0.0,0.0,0.0,0.0,0.0,0.0,0.0,0.0,0.0,4.0781,4.1094,4.0703,0.0,4.1172,4.1367,4.1718,4.2089,4.2089,4.2226,4.2441,4.2676,4.2754,0.0,0.0,4.4422,4.5169,0.0,4.858,4.9347,0.0,0.0,0.0,5.3572,0.0,0.0,0.0,5.2565,5.2084,5.0401,5.0733,5.0791,4.9111,4.9484,5.0323,5.1158,5.1293,5.1892,5.3554,5.402,5.438,5.4928,5.5462,5.6015,5.6544,5.7011,5.7299,5.7299,5.7695,5.7951,5.7951,5.8364,5.8698,5.8995,5.9905,6.0552,6.0899,6.1694,6.2118,6.2142,6.2146,6.2146,6.2121,6.1713,6.1754,6.2146,6.1692,6.1754,6.2125,6.194,6.1981,6.2167,6.2393,6.2618,6.2781,6.2556,6.2618,6.2761,0.0,0.0,0.0,0.0,0.0,0.0,0.0,0.0,0.0,0.0,0.0,0.0,0.0,0.0,0.0,0.0,0.0,0.0,0.0,0.0,0.0,0.0,0.0,4.064,0.0,0.0,0.0,0.0,0.0,0.0,0.0,0.0,0.0,0.0,0.0,0.0,0.0,0.0,0.0,4.1894,0.0,4.1719,4.1953,4.2285,4.246,4.2538,4.2616,4.2656,4.2714,4.3106,0.0,4.3282,4.3594,4.4145,0.0,0.0,0.0,0.0,0.0,0.0,0.0,0.0,0.0,5.3441,0.0,0.0,0.0,5.0031,4.9758,4.9758,4.9758,4.9758,5.0206,5.1543,5.1797,5.2302,5.3754,5.4423,5.4904,5.5337,5.5871,5.6424,5.6953,5.7001,5.7001,5.7001,5.7299,5.7497,5.7497,5.7912,5.8532,5.9306,6.0029,6.0594,6.1058,6.1729,6.1878,6.1502,6.1485,6.1506,6.1482,6.1004,6.107,6.1461,6.0983,6.107,6.1489,6.1399,6.1423,6.1551,6.1899,6.2249,6.2516,6.2187,6.2331,6.2638,0.0,0.0,0.0,0.0,0.0,0.0,0.0,0.0,0.0,0.0,0.0,0.0,0.0,0.0,0.0,0.0,0.0,0.0,4.1226,0.0,0.0,0.0,0.0,0.0,3.9989,0.0,0.0,0.0,0.0,0.0,0.0,0.0,0.0,0.0,4.0879,0.0,0.0,0.0,4.2285,0.0,4.2754,4.2656,0.0,4.2382,4.2676,4.3067,4.3418,4.3555,4.3574,0.0,4.3633,4.3633,0.0,4.5779,0.0,0.0,0.0,0.0,0.0,0.0,0.0,0.0,5.3803,0.0,0.0,0.0,5.3459,5.3271,0.0,5.3233,5.3233,0.0,0.0,5.3478,5.3516,5.374,5.4409,5.4977,5.5337,5.5385,5.5871,5.6424,5.6953,5.7001,5.7001,5.7001,5.7041,5.708,5.708,5.7458,5.7779,5.8012,5.9291,6.0032,6.0162,6.1091,6.1551,6.151,6.151,6.1506,6.1482,6.1004,6.107,6.1489,6.1008,6.107,6.1468,6.1049,6.1133,6.151,6.1572,6.161,6.1647,6.1606,6.1853,6.2249,0.0,0.0,0.0,0.0,0.0,0.0,0.0,0.0,0.0,0.0,0.0,0.0,0.0,0.0,0.0,0.0,0.0,4.1646,0.0,0.0,0.0,0.0,0.0,0.0,0.0,0.0,0.0,0.0,4.0118,0.0,0.0,0.0,0.0,0.0,4.1797,0.0,4.2167,0.0,4.2812,0.0,0.0,0.0,0.0,4.3144,4.3281,4.3457,4.3633,4.3711,4.3836,0.0,4.4535,0.0,0.0,0.0,0.0,0.0,0.0,0.0,0.0,0.0,0.0,0.0,0.0,0.0,0.0,0.0,5.3803,0.0,0.0,0.0,0.0,0.0,0.0,0.0,5.426,5.4447,5.5001,5.553,5.5871,5.5871,5.6328,5.676,5.6977,5.7001,5.7001,5.7001,5.7001,5.7001,5.7001,5.7449,5.8,5.8657,5.9492,6.013,6.048,6.0865,6.0966,6.0737,6.0737,6.0737,6.0733,6.0548,6.0718,6.1198,6.1008,6.1202,6.1665,6.145,6.1492,6.1686,6.1686,6.1589,6.1465,6.117,6.1378,6.175,0.0,0.0,0.0,0.0,0.0,0.0,0.0,0.0,0.0,0.0,0.0,0.0,4.2578,4.1102,0.0,0.0,0.0,4.0334,0.0,0.0,4.0059,0.0,0.0,0.0,0.0,0.0,0.0,0.0,0.0,4.1211,4.1543,0.0,0.0,0.0,0.0,4.2577,4.2616,0.0,4.3263,4.3302,4.3574,4.3711,4.3711,4.3711,4.3711,4.3711,4.3711,4.3711,4.3897,4.531,4.494,0.0,4.7526,0.0,0.0,0.0,0.0,0.0,5.2426,0.0,0.0,0.0,0.0,0.0,0.0,0.0,0.0,0.0,0.0,0.0,0.0,0.0,0.0,0.0,0.0,5.5001,5.5554,5.5943,5.6188,5.6188,5.6688,5.7001,5.7001,5.7001,5.7001,5.7001,5.7001,5.7001,5.7001,5.7506,5.8197,5.9098,5.9586,6.0075,6.0608,6.0653,6.0486,6.0192,6.0192,6.0264,6.0409,6.0409,6.0697,6.1203,6.1203,6.1443,6.1807,6.1807,6.1807,6.1807,6.1807,6.171,6.1509,6.1025,6.114,6.1449,0.0,4.3057,0.0,0.0,0.0,0.0,0.0,0.0,0.0,0.0,0.0,0.0,0.0,0.0,0.0,0.0,0.0,4.1433,3.9996,0.0,4.0489,0.0,0.0,0.0,0.0,0.0,0.0,0.0,0.0,4.2363,4.2363,4.2382,0.0,0.0,4.2871,4.3067,4.3106,4.3496,4.3691,4.3691,4.3691,4.3711,4.3711,0.0,4.3711,4.3711,4.3711,0.0,0.0,4.4281,4.4417,4.4769,0.0,0.0,0.0,0.0,0.0,0.0,0.0,0.0,0.0,5.5337,0.0,0.0,0.0,0.0,5.5337,0.0,0.0,0.0,0.0,0.0,0.0,0.0,0.0,0.0,0.0,5.6188,5.6188,5.6188,5.6688,5.7001,5.7001,5.7001,5.7001,5.7001,5.7001,5.7001,5.7001,5.7506,5.8055,5.8604,5.9154,5.9684,6.0213,6.0213,6.0213,6.0192,6.0192,6.0457,6.0983,6.0983,6.1275,6.1758,6.1758,6.1782,6.1807,6.1807,6.1807,6.1807,6.1807,6.1804,6.1729,6.1176,6.1259,6.1522,0.0,0.0,0.0,0.0,0.0,0.0,0.0,4.0323,0.0,0.0,0.0,0.0,0.0,0.0,4.1032,0.0,0.0,4.1417,4.1172,4.1289,0.0,0.0,0.0,4.1992,0.0,0.0,0.0,0.0,0.0,0.0,4.2851,4.2851,4.3008,0.0,0.0,4.3496,0.0,0.0,0.0,0.0,0.0,4.4315,4.453,0.0,4.416,4.4199,4.4452,4.4549,4.4737,4.601,4.6509,4.7092,5.0071,5.147,5.2332,5.4054,5.4978,5.5385,0.0,0.0,5.5385,5.5385,0.0,0.0,0.0,0.0,0.0,0.0,0.0,0.0,0.0,0.0,0.0,0.0,0.0,0.0,0.0,5.6736,5.6736,5.6736,5.6881,5.7001,5.7001,5.7001,5.7001,5.7001,5.7001,5.7001,5.7001,5.7862,5.8416,5.8584,5.947,6.0024,6.0192,6.0192,6.0192,6.0192,6.0553,6.0839,6.1007,6.1371,6.1807,6.2312,6.2312,6.2504,6.2795,6.2795,6.2795,6.2795,6.2795,6.2795,6.2698,6.1831,6.1625,6.1727,3.9394,0.0,0.0,0.0,0.0,0.0,0.0,0.0,0.0,0.0,4.0117,0.0,4.0547,0.0,4.1016,0.0,4.1465,4.1738,4.2012,4.2011,0.0,4.2402,4.2402,0.0,0.0,0.0,0.0,0.0,0.0,4.3027,4.3321,4.3321,4.3437,4.3711,4.3711,4.3711,4.3711,4.3887,4.3945,0.0,0.0,4.4764,0.0,0.0,4.4766,4.4648,4.4901,4.4998,4.5188,4.6451,4.7313,4.8442,5.1412,5.2835,5.374,5.5449,5.5987,5.5987,5.5987,5.5987,0.0,5.5987,5.5987,0.0,5.5987,0.0,0.0,0.0,0.0,0.0,0.0,0.0,0.0,0.0,0.0,0.0,0.0,5.7001,5.7001,5.7001,5.7001,5.6762,5.6094,5.6618,5.6718,5.6094,5.6033,5.6409,5.7225,5.7513,5.8019,5.8852,5.9084,5.9515,6.0192,5.9536,5.9653,6.0481,6.0839,6.12,6.1563,6.1948,6.236,6.2865,6.2865,6.3011,6.3301,6.3301,6.3301,6.3301,6.3301,6.3301,6.3205,6.2384,6.1951,6.185,0.0,0.0,0.0,0.0,3.9961,0.0,0.0,0.0,4.0137,0.0,4.0586,4.0918,4.1738,4.1836,4.1972,4.2382,4.2402,0.0,4.2441,4.2441,0.0,0.0,4.246,4.246,4.246,0.0,0.0,0.0,0.0,0.0,4.3711,4.3711,4.3711,4.373,4.373,4.375,4.3789,4.4238,4.4433,4.4492,4.4881,4.5057,4.5115,4.5547,4.543,4.5037,4.5057,4.5057,4.5135,4.5588,4.6868,4.8692,5.0859,5.2717,5.4459,5.6263,5.6785,5.6829,5.6909,5.6929,5.6929,5.6929,5.6929,0.0,0.0,0.0,5.7001,0.0,0.0,0.0,0.0,0.0,0.0,0.0,0.0,0.0,0.0,0.0,5.7001,5.7001,5.7001,5.6314,5.4612,5.5913,5.6174,5.4571,5.4344,5.5311,5.7665,5.6666,5.7077,5.9336,5.8107,5.83,6.0171,5.8343,5.8621,6.1007,6.1031,6.1587,6.2598,6.26,6.2889,6.3301,6.3301,6.3301,6.3301,6.3301,6.3301,6.3301,6.3301,6.3301,6.3251,6.2793,6.2312,6.1879,4.0274,4.0879,4.1406,0.0,4.0977,4.0469,0.0,0.0,0.0,0.0,4.1914,4.2011,4.2226,4.2246,4.2285,4.2402,4.2402,0.0,0.0,0.0,0.0,4.3339,4.3379,4.3379,4.3379,4.3476,0.0,4.3555,0.0,0.0,4.3711,4.3711,4.3887,4.4219,4.4219,4.4394,4.4666,4.4783,4.5058,4.5373,4.549,4.5703,4.5996,4.6094,4.5879,4.5547,4.5859,4.5976,4.5996,4.6113,4.7108,4.8398,4.8986,5.0193,5.1731,5.3438,5.3958,5.4216,5.5463,5.5818,5.5818,5.5818,5.6111,5.6424,5.6424,0.0,0.0,0.0,0.0,0.0,0.0,0.0,0.0,0.0,0.0,0.0,0.0,0.0,0.0,5.7001,5.7001,5.6821,5.6358,5.5506,5.5365,5.6234,5.5059,5.5311,5.7665,5.7867,5.8372,5.9378,5.8107,5.83,6.0171,5.8343,5.8621,6.1007,6.1419,6.1972,6.26,6.2963,6.3203,6.3301,6.3301,6.3301,6.3301,6.3301,6.3301,6.3301,6.3301,6.3301,6.3277,6.3157,6.3035,6.2893,4.1289,0.0,0.0,4.2363,0.0,0.0,4.168,4.1914,0.0,4.2382,4.2402,0.0,4.2675,4.2715,4.2793,4.2948,4.2968,0.0,0.0,0.0,0.0,4.3691,4.3711,4.3711,4.3711,4.3711,0.0,4.4004,0.0,0.0,4.4256,4.4256,4.4393,4.4647,4.4647,4.4783,4.5018,4.5234,4.5566,4.5957,4.5957,4.6094,0.0,4.6504,4.6426,4.6289,4.6699,4.6848,4.6821,4.6821,4.8648,5.0913,5.0913,5.2327,5.4117,5.4814,5.5047,5.52,5.59,5.6107,5.6107,5.6107,5.6328,5.6496,5.6236,5.6428,5.6592,0.0,5.6299,5.6376,0.0,0.0,0.0,0.0,0.0,0.0,0.0,0.0,0.0,0.0,5.7001,5.7001,5.7001,5.5365,5.4734,5.5728,5.4161,5.4255,5.679,5.6452,5.6521,5.7237,5.6525,5.7052,5.8962,5.8122,5.8926,6.1347,6.1879,6.2408,6.2891,6.3179,6.3301,6.3301,6.3301,6.3301,6.3301,6.3301,6.3301,6.3301,6.3301,6.3301,6.3301,6.3301,6.3301,6.3301,0.0,0.0,0.0,0.0,0.0,0.0,0.0,4.2538,0.0,4.2558,0.0,4.2734,4.3145,4.3184,4.3321,4.3672,0.0,4.3711,4.3711,4.3711,4.373,4.3789,4.3789,4.3828,4.3867,4.3867,0.0,0.0,0.0,0.0,4.4998,4.4998,4.5037,4.5096,4.5096,4.5115,4.5193,4.5664,4.6055,4.6387,4.6445,4.6465,4.6504,4.6853,4.695,4.695,4.7363,4.7529,4.7542,4.7794,5.0305,5.3431,5.3925,5.5589,5.7348,5.7369,5.7371,5.7316,5.7061,5.7001,5.7001,5.7001,5.7049,5.6977,5.652,5.6452,5.6376,5.5914,5.5818,5.5938,5.6352,0.0,0.0,0.0,0.0,0.0,0.0,0.0,0.0,0.0,0.0,0.0,5.7001,5.5365,5.4385,5.4653,5.3097,5.3212,5.5668,5.4386,5.3842,5.4477,5.4499,5.5466,5.7468,5.7903,5.9393,6.1903,6.2381,6.2841,6.3301,6.3301,6.3301,6.3301,6.3301,6.3301,6.3301,6.3301,6.3301,6.3301,6.3301,6.3301,6.3301,6.3301,6.3301,6.3301,0.0,0.0,0.0,0.0,0.0,4.3476,4.3476,4.3183,4.3086,4.3437,4.3476,4.3516,4.3594,4.3594,4.3633,4.3691,4.3711,0.0,0.0,0.0,0.0,4.4258,4.4277,4.4433,4.4764,4.4764,4.4822,0.0,0.0,0.0,4.4998,4.4998,4.5215,4.5588,4.5588,4.5762,4.6113,4.6501,4.6736,4.6833,4.7207,4.7386,4.7386,4.7441,4.7246,4.6911,4.6989,4.727,4.782,4.9365,4.9134,4.8753,5.1911,5.1928,5.1332,5.4219,5.5076,5.536,5.6642,5.7001,5.7001,5.7001,5.7337,5.7646,5.753,5.7842,5.8151,5.8055,5.8031,5.7935,5.7578,0.0,0.0,0.0,0.0,0.0,0.0,0.0,0.0,0.0,0.0,5.7001,5.7001,5.5365,5.4917,5.6418,5.527,5.4865,5.5754,5.5913,5.5535,5.4522,5.4499,5.5621,5.7951,5.8064,5.958,6.2456,6.2574,6.2841,6.3301,6.3301,6.3301,6.3301,6.3301,6.3301,6.3301,6.3301,6.3301,6.3301,6.3301,6.3301,6.3301,6.3301,6.3301,6.3301,0.0,0.0,0.0,0.0,0.0,0.0,4.4023,4.3887,4.3771,4.3711,4.3711,4.3711,4.3711,4.3926,4.4062,4.4062,4.4237,4.4373,4.4373,4.4373,4.4471,4.4686,4.4705,0.0,4.4998,4.4998,4.5115,4.5371,0.0,0.0,0.0,4.5662,4.5801,4.6016,4.623,4.6562,4.6995,4.7187,4.7266,4.7285,4.7522,4.76,4.762,4.7812,4.7773,4.7595,4.7851,4.8089,4.8403,4.9292,4.9762,5.0339,5.2174,5.2369,5.2391,5.4852,5.5581,5.5929,5.7421,5.7818,5.7818,5.7818,5.8031,5.8151,5.7842,5.8007,5.8103,5.7838,5.779,5.779,5.7814,5.7602,0.0,0.0,0.0,0.0,0.0,0.0,0.0,0.0,0.0,0.0,0.0,5.616,5.5322,5.5908,5.544,5.4568,5.3299,5.4426,5.4019,5.1667,5.374,5.5468,5.6641,5.8132,6.0142,6.26,6.1825,6.1594,6.1783,6.1783,6.1783,6.1783,6.1783,6.2365,6.3211,6.2209,6.2388,6.3213,6.2187,6.241,6.3301,6.3301,6.3301,6.3301,0.0,4.3926,0.0,0.0,4.3984,4.4101,4.4473,4.4531,4.4373,4.4003,4.3984,4.3984,4.3984,4.4316,4.4531,4.4531,4.4803,4.4998,4.4998,4.4998,4.5037,4.5135,4.5135,4.5193,4.5271,4.5271,4.5469,0.0,0.0,0.0,4.6308,0.0,4.6582,4.6582,4.6914,4.7266,4.76,4.7698,4.7737,4.7737,4.7835,4.7874,4.7913,4.8245,4.834,4.8398,4.8776,4.9147,4.9483,4.9439,5.0859,5.2801,5.3601,5.4453,5.5398,5.6915,5.7376,5.76,5.8645,5.8945,5.8945,5.8945,5.8945,5.8824,5.8416,5.8319,5.8199,5.779,5.7578,5.7626,5.8079,5.8295,0.0,0.0,0.0,0.0,0.0,0.0,0.0,0.0,0.0,0.0,5.7323,5.6427,5.5348,5.4211,5.4945,5.4272,5.1651,5.2991,5.2542,4.9587,5.3661,5.5754,5.544,5.8612,6.0879,6.2106,6.0968,6.0408,6.0408,6.0408,6.0181,5.9772,6.0227,6.1018,6.1918,6.0408,6.0657,6.1895,6.0363,6.0702,6.2029,6.2029,6.2029,6.2029,0.0,0.0,0.0,4.4881,4.4881,4.4901,4.494,4.494,4.494,4.4881,4.4881,4.4881,4.4881,4.492,4.494,4.494,4.4979,4.4998,4.4998,4.4998,4.5174,4.5627,4.5646,4.5822,4.6172,4.6191,4.6211,0.0,0.0,4.6618,4.6328,0.0,4.7483,4.7483,4.7522,4.7561,4.762,4.7988,4.8144,4.8183,4.8597,4.8776,4.8796,4.8835,4.8812,4.8855,4.8894,4.9979,5.1441,5.1413,5.1593,5.2417,5.5876,5.7048,5.7505,5.9317,5.9844,5.9886,6.0006,6.0048,6.0048,6.0048,6.0048,6.0048,5.9976,5.9976,5.9952,5.9903,5.9519,5.9185,5.9254,5.8488,5.7886,0.0,0.0,0.0,0.0,0.0,0.0,0.0,0.0,0.0,0.0,5.487,5.4539,5.1503,5.4491,5.5588,5.3539,5.4062,5.3505,5.1507,5.5601,5.7241,5.5964,6.0198,6.1734,6.0588,6.0476,6.0408,6.0408,6.0408,5.9407,5.7775,5.9613,5.9476,5.7937,5.7752,5.7798,5.7937,5.7752,5.7798,5.796,5.796,5.796,5.796,4.4744,4.4881,4.4998,4.4998,4.4998,4.5096,4.5371,4.541,4.5508,4.5762,4.533,4.4998,4.4998,4.5232,4.541,4.541,4.5644,4.5779,4.5779,4.5779,4.5859,4.6055,4.6289,4.6504,4.6658,4.6933,4.707,0.0,0.0,0.0,0.0,4.7444,4.7737,4.7949,4.7949,4.8128,4.8402,4.8808,4.8981,4.902,4.9496,4.9672,4.9672,4.9672,4.9672,4.9672,4.9672,5.0167,5.0799,5.0799,5.1938,5.3637,5.5181,5.5662,5.6032,5.7956,5.8513,5.8771,5.9898,6.0192,6.0192,6.0192,6.0192,6.0192,6.0192,6.0192,6.0192,6.0192,6.0024,5.9879,5.9879,5.9543,5.9254,5.9254,0.0,0.0,0.0,0.0,0.0,0.0,0.0,0.0,0.0,5.6308,5.6228,5.4893,5.5924,5.5383,5.2649,5.4031,5.458,5.3864,5.4933,5.5839,5.6467,5.8479,5.9181,5.8583,5.8583,5.796,5.68,5.68,5.6356,5.5699,5.7729,5.8145,5.7312,5.6098,5.6309,5.7288,5.6075,5.6332,5.7544,5.8766,5.9201,5.9384,4.5215,4.5291,4.5389,4.5389,4.5389,4.5486,4.5842,4.5998,4.6152,4.6445,4.6052,4.5662,4.5408,4.5781,4.6055,4.6055,4.6426,4.668,4.668,4.668,4.668,4.668,4.695,0.0,4.7129,4.7422,4.76,4.76,4.7737,0.0,0.0,4.7855,4.8284,4.8789,4.8789,4.8988,4.9281,4.959,4.9726,4.9722,5.0082,5.0199,5.0199,5.0199,5.0199,5.0199,5.0199,5.0535,5.101,5.101,5.3144,5.5557,5.4424,5.5247,5.681,5.7574,5.8226,5.8982,6.031,6.0673,6.0673,6.0673,6.0553,6.0454,6.0454,6.0312,6.0192,6.0192,5.9747,5.9388,5.9388,5.9388,5.9388,5.9388,0.0,0.0,0.0,0.0,0.0,0.0,5.7482,5.6899,5.5836,5.6206,5.6143,5.5137,5.5245,5.4566,5.28,5.4307,5.5016,5.4628,5.462,5.5021,5.5854,5.6887,5.7102,5.652,5.652,5.577,5.4373,5.3798,5.3825,5.4444,5.5275,5.5628,5.5534,5.4087,5.4349,5.5558,5.4729,5.5275,5.6753,5.8766,5.9156,5.8812,4.5686,4.5996,4.6289,4.6289,4.6289,4.6289,4.6289,4.6618,4.6892,4.6892,4.7285,4.7249,4.6387,4.6638,4.6892,4.6892,4.7305,4.7581,4.7581,4.7581,4.7581,0.0,0.0,4.76,4.76,4.76,4.76,4.76,0.0,0.0,4.762,4.8483,4.9363,5.018,5.018,5.018,5.018,5.0199,5.0199,5.0199,5.0199,5.0199,5.0199,5.0199,5.0199,5.0199,5.0199,5.1386,5.2959,5.2959,5.5532,5.8072,5.4231,5.7021,6.1326,5.9355,6.0191,6.1761,6.1782,6.1782,6.1782,6.1782,6.1395,6.1007,6.1007,6.0577,6.0192,6.0192,5.8705,5.7441,5.7441,5.7441,5.7441,5.7441,0.0,0.0,0.0,0.0,0.0,0.0,5.5115,5.5902,5.214,5.3437,5.3159,4.9846,5.131,5.3168,5.5063,5.5174,5.4514,5.3077,5.532,5.5625,5.3643,5.6143,5.6403,5.4444,5.4444,5.442,5.4325,5.235,5.2523,5.4301,5.2306,5.1474,5.1474,5.145,5.145,5.1668,5.3631,5.442,5.4681,5.6706,5.6192,5.4491,4.6443,4.6618,4.6794,4.7129,4.719,4.719,4.719,4.7285,4.7383,4.7383,4.7522,4.7503,4.7229,4.7285,4.7383,4.7383,4.7522,4.76,4.76,4.76,4.76,4.76,4.7851,4.8144,4.8483,4.875,4.9043,4.9379,4.9515,4.9515,4.9379,4.9652,4.9926,5.0199,5.0199,5.0199,5.0219,5.0488,5.0605,5.0625,5.0918,5.1011,5.1011,5.1011,5.1011,5.1011,5.1011,5.1401,5.1909,5.1909,5.3632,5.558,5.4338,5.7555,6.1653,6.1023,6.1307,6.1807,6.1807,6.1807,6.1807,6.1807,6.1662,6.1563,6.1563,6.1398,6.1277,6.1277,6.0803,6.0297,5.9918,5.877,5.7766,5.7444,5.6793,0.0,5.4675,0.0,0.0,0.0,5.6149,5.6351,5.2482,5.533,5.5884,5.2174,5.3629,5.4406,5.3743,5.3969,5.4524,5.5434,5.3894,5.3406,5.4142,5.4952,5.4349,5.2354,5.375,5.3678,5.2326,5.1693,5.1765,5.2326,5.1693,5.2181,5.3344,5.1964,5.3028,5.5417,5.4705,5.5228,5.6706,5.8697,5.9041,5.8675,4.7129,4.7146,4.7266,4.7561,4.76,4.76,4.76,4.7737,4.7894,4.8069,4.8226,4.8379,4.8558,4.8578,4.8441,4.8109,4.8245,4.8379,4.8558,4.8578,4.8578,4.8578,4.8832,4.9105,4.9379,4.9629,4.9902,5.0199,5.0199,5.0278,5.0434,5.0434,5.0508,5.0644,5.0644,5.0644,5.0664,5.0937,5.1035,5.103,5.1304,5.1401,5.1401,5.1401,5.1401,5.1421,5.1597,5.1655,5.1675,5.1831,5.3217,5.489,5.489,5.7514,6.0712,6.1138,6.1792,6.2362,6.2362,6.2362,6.2362,6.2362,6.2239,6.2047,6.1855,6.1807,6.1807,6.1807,6.1218,6.0622,6.0267,5.9241,5.8076,5.7034,5.644,5.56,5.4151,0.0,5.3949,0.0,0.0,5.5235,5.2801,5.5018,5.5391,5.2409,5.3253,5.3476,5.2441,5.3156,5.3914,5.462,5.2551,5.1988,5.3248,5.3272,5.2644,5.1426,5.3439,5.4135,5.3655,5.3655,5.3655,5.3655,5.3655,5.392,5.4349,5.3849,5.4705,5.6309,5.6566,5.7428,5.8766,6.077,6.1042,6.0567,4.764,4.764,4.7659,4.7737,4.7737,4.7737,4.7776,4.8086,4.8496,4.891,4.9316,4.9703,5.016,5.0199,4.9887,4.9109,4.9355,4.9722,5.018,5.0199,5.0199,5.0199,5.0199,5.0219,5.0238,5.0238,5.0258,5.0297,5.0297,5.0469,5.0859,5.0859,5.103,5.1401,5.1401,5.1401,5.1401,5.144,5.146,5.146,5.1479,5.1499,5.1499,5.1499,5.1499,5.1558,5.1973,5.2153,5.2212,5.2578,5.3919,5.5518,5.5644,5.698,5.8721,5.9907,6.1516,6.2971,6.308,6.31,6.3122,6.3279,6.2963,6.2504,6.2023,6.1795,6.1708,6.1708,6.0265,5.8984,5.896,5.8938,5.8295,5.6301,5.7335,5.7089,5.3329,5.2817,5.2817,5.2817,5.2954,5.2997,5.2858,5.2995,5.2477,5.0964,5.0859,5.0991,5.1382,5.2697,5.2823,5.143,5.1401,5.1401,5.1401,5.1401,5.1474,5.1644,5.3655,5.5581,5.7405,5.7405,5.7335,5.7195,5.7195,5.6122,5.4539,5.6286,5.6051,5.4968,5.856,6.0091,6.0431,6.2388,6.1963,6.0408,4.7988,4.8066,4.8281,4.8922,4.9039,4.918,4.9535,4.9672,4.9769,4.9867,4.9984,5.0082,5.0199,5.0199,5.0238,5.0332,5.018,5.0082,5.0199,5.0199,5.0199,5.0199,5.0199,5.0356,5.0644,5.0664,5.082,5.1109,5.1109,5.1167,5.1265,5.1265,5.1304,5.1401,5.1401,5.1401,5.1421,5.1777,5.1933,5.1953,5.2285,5.2377,5.2377,5.2377,5.2377,5.2422,5.2519,5.2558,5.2578,5.2676,5.3018,5.3668,5.5225,5.6033,5.6682,5.8127,5.8885,5.9513,6.075,6.1087,6.1447,6.2923,6.3227,6.3107,6.2987,6.181,6.0715,6.0715,6.0379,5.9903,5.9513,5.9467,5.8749,5.639,5.5144,5.3608,5.1198,5.0865,5.0865,5.0865,5.2494,5.3003,5.1459,5.3002,5.3294,5.139,5.1265,5.1304,5.1401,5.174,5.1768,5.1401,5.1401,5.1401,5.1401,5.1401,5.2181,5.3726,5.5723,5.6939,5.7405,5.7405,5.6566,5.511,5.511,5.4847,5.4325,5.3248,5.4349,5.6636,5.6051,5.6753,5.8352,6.0363,6.0793,6.0612,4.9023,4.9101,4.9258,4.9746,4.9824,4.9902,5.016,5.0199,5.0278,5.0449,5.0469,5.0527,5.0723,5.0762,5.084,5.105,5.0703,5.0547,5.0742,5.0762,5.0762,5.0762,5.0762,5.0859,5.1069,5.1069,5.1187,5.1401,5.1616,5.1719,5.1714,5.1909,5.1987,5.1987,5.1987,5.1987,5.2007,5.2266,5.2363,5.2383,5.2617,5.2715,5.2715,5.2715,5.2715,5.2734,5.293,5.3033,5.3047,5.3217,5.3295,5.3477,5.4564,5.5588,5.6476,5.7137,5.8464,5.9726,5.9644,6.0316,6.1303,6.2352,6.2601,6.2802,6.3485,6.2833,6.202,6.1763,6.1018,6.0294,6.0018,5.9227,5.791,5.5648,5.4376,5.2991,5.1029,5.0762,5.0762,5.0762,5.1901,5.2279,5.119,5.2259,5.2571,5.1474,5.1401,5.1401,5.1401,5.1401,5.1818,5.274,5.1867,5.1838,5.2764,5.1843,5.2522,5.4731,5.5828,5.6926,5.7989,5.7989,5.7401,5.6382,5.6382,5.5834,5.4993,5.4801,5.5476,5.662,5.643,5.7046,5.813,5.9228,5.9623,5.9762,5.0121,5.0199,5.0219,5.0297,5.0297,5.0317,5.0351,5.0395,5.0488,5.0859,5.0898,5.1011,5.1362,5.1401,5.144,5.1499,5.1211,5.1113,5.1382,5.1401,5.1401,5.1401,5.1479,5.1499,5.1499,5.1577,5.1597,5.1597,5.1992,5.2187,5.2212,5.2539,5.2715,5.2715,5.2715,5.2715,5.269,5.2773,5.2812,5.2812,5.2891,5.291,5.291,5.291,5.291,5.2949,5.3365,5.3482,5.3541,5.3881,5.3998,5.4049,5.438,5.5689,5.7095,5.7075,5.9205,6.1151,5.9248,5.9984,6.132,6.132,6.132,6.1671,6.2974,6.3039,6.2717,6.2247,6.0819,5.9702,5.9702,5.8485,5.6838,5.4833,5.4438,5.3702,5.1693,5.1401,5.1401,5.1401,5.1401,5.1401,5.1401,5.1401,5.1401,5.1401,5.1401,5.144,5.1499,5.1499,5.2445,5.4532,5.2531,5.2249,5.4044,5.2727,5.3096,5.5183,5.5496,5.6716,5.8705,5.8705,5.8539,5.8252,5.8252,5.7101,5.5396,5.7077,5.6787,5.5421,5.7125,5.7798,5.7822,5.8133,5.8252,5.83,5.0199,5.0199,5.0317,5.0644,5.0703,5.082,5.1148,5.1206,5.1245,5.1304,5.1304,5.1343,5.1401,5.1401,5.1558,5.1953,5.1914,5.1758,5.1421,5.1401,5.1401,5.1401,5.1777,5.1973,5.1973,5.2324,5.2519,5.2519,5.2578,5.2617,5.2617,5.2676,5.2715,5.2715,5.2715,5.2715,5.2734,5.313,5.3287,5.3326,5.3672,5.3803,5.3803,5.3803,5.3803,5.3803,5.3881,5.39,5.392,5.3978,5.3998,5.4329,5.6092,5.6828,5.7431,5.9202,6.0091,6.0286,5.9114,5.8991,5.9181,5.9181,5.9181,5.923,5.9471,5.8216,5.6974,5.691,5.6624,5.6429,5.6429,5.7261,5.7265,5.5311,5.4645,5.3702,5.1693,5.1401,5.1401,5.1401,5.1401,5.1401,5.1401,5.1401,5.1401,5.1401,5.1401,5.1558,5.1973,5.1973,5.3066,5.5437,5.2825,5.1748,5.2443,5.4155,5.5236,5.5614,5.7331,5.833,5.8705,5.8705,5.7774,5.6179,5.6179,5.503,5.3192,5.3495,5.3445,5.3192,5.3495,5.3618,5.3841,5.5543,5.6179,5.6421,5.0801,5.0859,5.0894,5.1089,5.1109,5.1187,5.1382,5.1401,5.1499,5.1758,5.1777,5.1875,5.2065,5.2085,5.2207,5.2402,5.2422,5.2344,5.2104,5.2085,5.2085,5.2085,5.2305,5.2422,5.2422,5.2617,5.2715,5.2715,5.2949,5.3091,5.3091,5.3301,5.3393,5.3393,5.3393,5.3393,5.3412,5.3633,5.373,5.373,5.392,5.3998,5.3998,5.3998,5.3998,5.3998,5.3998,5.3998,5.3998,5.3998,5.3998,5.4176,5.5128,5.6197,5.7526,5.968,6.0293,6.0205,5.9744,5.8743,5.8108,5.9251,5.8692,5.8068,5.8925,5.8425,5.764,5.7381,5.6445,5.5693,5.5693,5.5406,5.4869,5.3938,5.3631,5.3169,5.2232,5.2085,5.2085,5.2085,5.2085,5.2085,5.2085,5.2085,5.2085,5.2085,5.2085,5.2182,5.2402,5.2422,5.2926,5.4043,5.3837,5.3317,5.2447,5.3519,5.4212,5.4478,5.5397,5.5963,5.6161,5.6161,5.5641,5.4784,5.4784,5.4279,5.3393,5.3393,5.3393,5.3393,5.3393,5.3393,5.3519,5.4434,5.4784,5.4934,5.1343,5.1401,5.1401,5.1401,5.1499,5.1558,5.1558,5.1636,5.1831,5.2187,5.2226,5.2344,5.2676,5.2715,5.2754,5.2851,5.2871,5.291,5.3008,5.2983,5.293,5.2715,5.2812,5.291,5.2983,5.2983,5.2983,5.2983,5.3359,5.3541,5.3541,5.3867,5.3998,5.3998,5.3998,5.3998,5.3998,5.3998,5.3998,5.3998,5.3998,5.3998,5.3998,5.3998,5.3998,5.3998,5.3998,5.3998,5.3998,5.3998,5.3998,5.4074,5.4564,5.5815,5.7526,5.968,6.0633,6.1021,6.1021,5.9091,5.7501,5.914,5.7952,5.6696,5.7932,5.8214,5.8084,5.7673,5.639,5.5307,5.5307,5.3961,5.2871,5.2871,5.2773,5.2715,5.2715,5.2715,5.2715,5.2715,5.2715,5.2715,5.2715,5.2715,5.2715,5.2715,5.2715,5.2754,5.2851,5.2871,5.291,5.2983,5.4412,5.4425,5.2896,5.2969,5.3183,5.3541,5.3541,5.3691,5.3998,5.3998,5.3998,5.3998,5.3998,5.3998,5.3998,5.3998,5.3998,5.3998,5.3998,5.3998,5.3998,5.3998,5.3998,5.3998,5.1401,5.1401,5.1401,5.1401,5.1777,5.2056,5.2056,5.2363,5.2637,5.2656,5.2656,5.2676,5.2695,5.2715,5.2871,5.3306,5.3345,5.3521,5.3881,5.39,5.3529,5.2754,5.3111,5.3541,5.39,5.39,5.39,5.39,5.3939,5.3959,5.3959,5.3998,5.3998,5.3998,5.3998,5.3998,5.3998,5.3998,5.3998,5.3998,5.3998,5.3998,5.3998,5.3998,5.3998,5.3998,5.3998,5.3998,5.3998,5.3998,5.3998,5.4355,5.6247,5.6978,5.7526,5.968,6.1672,6.318,6.318,6.0217,5.7152,5.7302,5.5764,5.4259,5.4372,5.4423,5.4378,5.4358,5.4231,5.4129,5.4129,5.3695,5.3345,5.3345,5.2969,5.2715,5.2715,5.2715,5.2715,5.2715,5.2715,5.2715,5.2715,5.2715,5.2715,5.2715,5.2715,5.2891,5.3331,5.3345,5.3521,5.39,5.3692,5.3502,5.3345,5.373,5.392,5.3959,5.3959,5.3978,5.3998,5.3998,5.3998,5.3998,5.3998,5.3998,5.3998,5.3998,5.3998,5.3998,5.3998,5.3998,5.3998,5.3998,5.3998,5.3998,5.1836,5.2026,5.2202,5.2202,5.2363,5.2461,5.2461,5.2598,5.2812,5.3111,5.313,5.3223,5.3471,5.351,5.3568,5.3769,5.3769,5.3848,5.3998,5.3998,5.3861,5.351,5.3691,5.3822,5.3998,5.3998,5.3998,5.3998,5.3998,5.3998,5.3998,5.3998,5.3998,5.3998,5.3998,5.3998,5.3998,5.3998,5.3998,5.3998,5.3998,5.3998,5.3998,5.3998,5.3998,5.3998,5.3998,5.3998,5.3998,5.3998,5.3998,5.4125,5.4925,5.5178,5.5588,5.7704,5.9827,6.1479,6.1479,6.0315,5.8771,5.7427,5.5537,5.3998,5.3998,5.3998,5.3998,5.3998,5.3998,5.3998,5.3998,5.3887,5.3769,5.3769,5.3607,5.351,5.351,5.351,5.351,5.351,5.351,5.351,5.351,5.351,5.351,5.351,5.351,5.3568,5.3769,5.3769,5.3848,5.3998,5.3867,5.3769,5.3769,5.392,5.3998,5.3998,5.3998,5.3998,5.3998,5.3998,5.3998,5.3998,5.3998,5.3998,5.3998,5.3998,5.3998,5.3998,5.3998,5.3998,5.3998,5.3998,5.3998,5.3998,5.2285,5.2519,5.2715,5.2715,5.2812,5.291,5.291,5.3027,5.3223,5.356,5.3599,5.3691,5.3978,5.3998,5.3998,5.3998,5.3998,5.3998,5.3998,5.3998,5.3998,5.3998,5.3998,5.3998,5.3998,5.3998,5.3998,5.3998,5.3998,5.3998,5.3998,5.3998,5.3998,5.3998,5.3998,5.3998,5.3998,5.3998,5.3998,5.3998,5.3998,5.3998,5.3998,5.3998,5.3998,5.3998,5.3998,5.3998,5.3998,5.3998,5.3998,5.3998,5.3998,5.3998,5.4278,5.5714,5.763,5.914,5.85,5.8796,5.8944,5.7476,5.5537,5.3998,5.3998,5.3998,5.3998,5.3998,5.3998,5.3998,5.3998,5.3998,5.3998,5.3998,5.3998,5.3998,5.3998,5.3998,5.3998,5.3998,5.3998,5.3998,5.3998,5.3998,5.3998,5.3998,5.3998,5.3998,5.3998,5.3998,5.3998,5.3998,5.3998,5.3998,5.3998,5.3998,5.3998,5.3998,5.3998,5.3998,5.3998,5.3998,5.3998,5.3998,5.3998,5.3998,5.3998,5.3998,5.3998,5.3998,5.3998,5.3998,5.3998,5.3998,5.3998,5.3998,5.2715,5.2715,5.2715,5.2715,5.3111,5.3384,5.3384,5.375,5.3998,5.3998,5.3998,5.3998,5.3998,5.3998,5.3998,5.3998,5.3998,5.3998,5.3998,5.3998,5.3998,5.3998,5.3998,5.3998,5.3998,5.3998,5.3998,5.3998,5.3998,5.3998,5.3998,5.3998,5.3998,5.3998,5.3998,5.3998,5.3998,5.3998,5.3998,5.3998,5.3998,5.3998,5.3998,5.3998,5.3998,5.3998,5.3998,5.3998,5.3998,5.3998,5.3998,5.3998,5.3998,5.3998,5.3998,5.3998,5.5462,5.6648,5.4564,5.5512,5.7078,5.7078,5.5512,5.3998,5.3998,5.3998,5.3998,5.3998,5.3998,5.3998,5.3998,5.3998,5.3998,5.3998,5.3998,5.3998,5.3998,5.3998,5.3998,5.3998,5.3998,5.3998,5.3998,5.3998,5.3998,5.3998,5.3998,5.3998,5.3998,5.3998,5.3998,5.3998,5.3998,5.3998,5.3998,5.3998,5.3998,5.3998,5.3998,5.3998,5.3998,5.3998,5.3998,5.3998,5.3998,5.3998,5.3998,5.3998,5.3998,5.3998,5.3998,5.3998,5.3998,5.3998,5.3998,5.3998,5.3189,5.3418,5.3607,5.3607,5.3724,5.3828,5.3828,5.392,5.3998,5.3998,5.3998,5.3998,5.3998,5.3998,5.3998,5.3998,5.3998,5.3998,5.3998,5.3998,5.3998,5.3998,5.3998,5.3998,5.3998,5.3998,5.3998,5.3998,5.3998,5.3998,5.3998,5.3998,5.3998,5.3998,5.3998,5.3998,5.3998,5.3998,5.3998,5.3998,5.3998,5.3998,5.3998,5.3998,5.3998,5.3998,5.3998,5.3998,5.3998,5.3998,5.3998,5.3998,5.3998,5.3998,5.3998,5.3998,5.4437,5.4793,5.4176,5.4437,5.4925,5.4925,5.4462,5.3998,5.3998,5.3998,5.3998,5.3998,5.3998,5.3998,5.3998,5.3998,5.3998,5.3998,5.3998,5.3998,5.3998,5.3998,5.3998,5.3998,5.3998,5.3998,5.3998,5.3998,5.3998,5.3998,5.3998,5.3998,5.3998,5.3998,5.3998,5.3998,5.3998,5.3998,5.3998,5.3998,5.3998,5.3998,5.3998,5.3998,5.3998,5.3998,5.3998,5.3998,5.3998,5.3998,5.3998,5.3998,5.3998,5.3998,5.3998,5.3998,5.3998,5.3998,5.3998,5.3998,5.3658,5.3822,5.3998,5.3998,5.3998,5.3998,5.3998,5.3998,5.3998,5.3998,5.3998,5.3998,5.3998,5.3998,5.3998,5.3998,5.3998,5.3998,5.3998,5.3998,5.3998,5.3998,5.3998,5.3998,5.3998,5.3998,5.3998,5.3998,5.3998,5.3998,5.3998,5.3998,5.3998,5.3998,5.3998,5.3998,5.3998,5.3998,5.3998,5.3998,5.3998,5.3998,5.3998,5.3998,5.3998,5.3998,5.3998,5.3998,5.3998,5.3998,5.3998,5.3998,5.3998,5.3998,5.3998,5.3998,5.3998,5.3998,5.3998,5.3998,5.3998,5.3998,5.3998,5.3998,5.3998,5.3998,5.3998,5.3998,5.3998,5.3998,5.3998,5.3998,5.3998,5.3998,5.3998,5.3998,5.3998,5.3998,5.3998,5.3998,5.3998,5.3998,5.3998,5.3998,5.3998,5.3998,5.3998,5.3998,5.3998,5.3998,5.3998,5.3998,5.3998,5.3998,5.3998,5.3998,5.3998,5.3998,5.3998,5.3998,5.3998,5.3998,5.3998,5.3998,5.3998,5.3998,5.3998,5.3998,5.3998,5.3998,5.3998,5.3998,5.3998,5.3998,5.3998,5.3998,5.3998,5.3998,5.3998,5.3998,5.3998,5.3998,5.3998,5.3998,5.3998,5.3998,5.3998,5.3998,5.3998,5.3998,5.3998,5.3998,5.3998,5.3998,5.3998,5.3998,5.3998,5.3998,5.3998,5.3998,5.3998,5.3998,5.3998,5.3998,5.3998,5.3998,5.3998,5.3998,5.3998,5.3998,5.3998,5.3998,5.3998,5.3998,5.3998,5.3998,5.3998,5.3998,5.3998,5.3998,5.3998,5.3998,5.3998,5.3998,5.3998,5.3998,5.3998,5.3998,5.3998,5.3998,5.3998,5.3998,5.3998,5.3998,5.3998,5.3998,5.3998,5.3998,5.3998,5.3998,5.3998,5.3998,5.3998,5.3998,5.3998,5.3998,5.3998,5.3998,5.3998,5.3998,5.3998,5.3998,5.3998,5.3998,5.3998,5.3998,5.3998,5.3998,5.3998,5.3998,5.3998,5.3998,5.3998,5.3998,5.3998,5.3998,5.3998,5.3998,5.3998,5.3998,5.3998,5.3998,5.3998,5.3998,5.3998,5.3998,5.3998,5.3998,5.3998,5.3998,5.3998,5.3998,5.3998,5.3998,5.3998,5.3998,5.3998,5.3998,5.3998,5.3998,5.3998,5.3998,5.3998,5.3998,5.3998,5.3998,5.3998,5.3998,5.3998,5.3998,5.3998,5.3998,5.3998,5.3998,5.3998,5.3998,5.3998,5.3998,5.3998,5.3998,5.3998,5.3998,5.3998,5.3998,5.3998,5.3998,5.3998,5.3998,5.3998,5.3998,5.3998,5.3998,5.3998,5.3998,5.3998,5.3998,5.3998,5.3998,5.3998,5.3998,5.3998,5.3998,5.3998,5.3998,5.3998,5.3998,5.3998,5.3998,5.3998,5.3998,5.3998,5.3998,5.3998,5.3998,5.3998,5.3998,5.3998,5.3998,5.3998,5.3998,5.3998,5.3998,5.3998,5.3998,5.3998,5.3998,5.3998,5.3998,5.3998,5.3998,5.3998,5.3998,5.3998,5.3998,5.3998,5.3998,5.3998,5.3998,5.3998,5.3998,5.3998,5.3998,5.3998,5.3998,5.3998,5.3998,5.3998,5.3998,5.3998,5.3998,5.3998,5.3998,5.3998,5.3998,5.3998,5.3998,5.3998,5.3998,5.3998,5.3998,5.3998,5.3998,5.3998,5.3998,5.3998,5.3998,5.3998,5.3998,5.3998,5.3998,5.3998,5.3998,5.3998,5.3998,5.3998,5.3998,5.3998,5.3998,5.3998,5.3998,5.3998,5.3998,5.3998,5.3998,5.3998,5.3998,5.3998,5.3998,5.3998,5.3998,5.3998,5.3998,5.3998,5.3998,5.3998,5.3998,5.3998,5.3998,5.3998,5.3998,5.3998,5.3998,5.3998,5.3998,5.3998,5.3998,5.3998,5.3998,5.3998,5.3998,5.3998,5.3998,5.3998,5.3998,5.3998,5.3998,5.3998,5.3998,5.3998,5.3998,5.3998,5.3998,5.3998,5.3998,5.3998,5.3998,5.3998,5.3998,5.3998,5.3998,5.3998,5.3998,5.3998,5.3998,5.3998,5.3998,5.3998,5.3998,5.3998,5.3998,5.3998,5.3998,5.3998,5.3998,5.3998,5.3998,5.3998,5.3998,5.3998,5.3998,5.3998,5.3998,5.3998,5.3998,5.3998,5.3998,5.3998,5.3998,5.3998,5.3998,5.3998,5.3998,5.3998,5.3998,5.3998,5.3998,5.3998,5.3998,5.3998,5.3998,5.3998,5.3998,5.3998,5.3998,5.3998,5.3998,5.3998,5.3998,5.3998,5.3998,5.3998,5.3998,5.3998,5.3998,5.3998,5.3998,5.3998,5.3998,5.3998,5.3998,5.3998,5.3998,5.3998,5.3998,5.3998,5.3998,5.3998,5.3998,5.3998,5.3998,5.3998,5.3998,5.3998,5.3998,5.3998,5.3998,5.3998,5.3998,5.3998,5.3998,5.3998,5.3998,5.3998,5.3998,5.3998,5.3998,5.3998,5.3998,5.3998,5.3998,5.3998,5.3998,5.3998,5.3998,5.3998,5.3998,5.3998,5.3998,5.3998,5.3998,5.3998,5.3998,5.3998,5.3998,5.3998,5.3998,5.3998,5.3998,5.3998,5.3998,5.3998,5.3998,5.3998,5.3998,5.3998,5.3998,5.3998,5.3998,5.3998,5.3998,5.3998,5.3998,5.3998,5.3998,5.3998,5.3998,5.3998,5.3998,5.3998,5.3998,5.3998,5.3998,5.3998,5.3998,5.3998,5.3998,5.3998,5.3998,5.3998,5.3998,5.3998,5.3998,5.3998,5.3998,5.3998,5.3998,5.3998,5.3998,5.3998,5.3998,5.3998,5.3998,5.3998,5.3998,5.3998,5.3998,5.3998,5.3998,5.3998,5.3998,5.3998,5.3998,5.3998,5.3998,5.3998,5.3998,5.3998,5.3998,5.3998,5.3998,5.3998,5.3998,5.3998,5.3998,5.3998,5.3998,5.3998,5.3998,5.3998,5.3998,5.3998,5.3998,5.3998,5.3998,5.3998,5.3998,5.3998,5.3998,5.3998,5.3998,5.3998,5.3998,5.3998,5.3998,5.3998,5.3998,5.3998,5.3998,5.3998,5.3998,5.3998,5.3998,5.3998,5.3998,5.3998,5.3998,5.3998,5.3998,5.3998,5.3998,5.3998,5.3998,5.3998,5.3998,5.3998,5.3998,5.3998,5.3998,5.3998,5.3998,5.3998,5.3998,5.3998,5.3998,5.3998,5.3998,5.3998,5.3998,5.3998,5.3998,5.3998,5.3998,5.3998,5.3998,5.3998,5.3998,5.3998,5.3998,5.3998,5.3998,5.3998,5.3998,5.3998,5.3998,5.3998,5.3998,5.3998,5.3998,5.3998,5.3998,5.3998,5.3998,5.3998,5.3998,5.3998,5.3998,5.3998,5.3998,5.3998,5.3998,5.3998,5.3998,5.3998,5.3998,5.3998,5.3998,5.3998,5.3998,5.3998,5.3998,5.3998,5.3998,5.3998,5.3998,5.3998,5.3998,5.3998,5.3998,5.3998,5.3998,5.3998,5.3998,5.3998,5.3998,5.3998,5.3998,5.3998,5.3998,5.3998,5.3998,5.3998,5.3998,5.3998,5.3998,5.3998,5.3998,5.3998,5.3998,5.3998,5.3998,5.3998,5.3998,5.3998,5.3998,5.3998,5.3998,5.3998,5.3998,5.3998,5.3998,5.3998,5.3998,5.3998,5.3998,5.3998,5.3998,5.3998,5.3998,5.3998,5.3998,5.3998,5.3998,5.3998,5.3998,5.3998,5.3998,5.3998,5.3998,5.3998,5.3998,5.3998,5.3998,5.3998,5.3998,5.3998,5.3998,5.3998,5.3998,5.3998,5.3998,5.3998,5.3998,5.3998,5.3998,5.3998,5.3998,5.3998,5.3998,5.3998,5.3998,5.3998,5.3998,5.3998,5.3998,5.3998,5.3998,5.3998,5.3998,5.3998,5.3998,5.3998,5.3998,5.3998,5.3998,5.3998,5.3998,5.3998,5.3998,5.3998,5.3998,5.3998,5.3998,5.3998,5.3998,5.3998,5.3998,5.3998,5.3998,5.3998,5.3998,5.3998,5.3998,5.3998,5.3998,5.3998,5.3998,5.3998,5.3998,5.3998,5.3998,5.3998,5.3998,5.3998,5.3998,5.3998,5.3998,5.3998,5.3998,5.3998,5.3998,5.3998,5.3998,5.3998,5.3998,5.3998,5.3998,5.3998,5.3998,5.3998,5.3998,5.3998,5.3998]},{"header":{"parameterUnit":"m.s-1","parameterCategory":1,"la1":30.6,"la2":28.766,"lo1":-90.7593,"lo2":-88.6598,"dy":0.0162,"dx":0.0183,"nx":116,"ny":114,"refTime":"2023-11-08T06:00:00:Z","depth":0,"parameterNumber":3,"parameterNumberName":"V-component_of_WINDS"},"data":[0.0,0.0,0.0,0.0,0.0,0.0,0.0,0.0,0.0,0.0,0.0,0.0,0.0,0.0,0.0,0.0,0.0,0.0,0.0,0.0,0.0,0.0,0.0,0.0,0.0,0.0,0.0,0.0,0.0,0.0,0.0,0.0,0.0,0.0,0.0,0.0,0.0,0.0,0.0,0.0,0.0,0.0,0.0,0.0,0.0,0.0,0.0,0.0,0.0,0.0,0.0,0.0,0.0,0.0,0.0,0.0,0.0,0.0,0.0,0.0,0.0,0.0,0.0,0.0,0.0,0.0,0.0,0.0,0.0,0.0,0.0,0.0,0.0,0.0,0.0,0.0,0.0,0.0,0.0,0.0,0.0,0.0,0.0,0.0,0.0,0.0,0.0,0.0,0.0,0.0,0.0,0.0,0.0,0.0,0.0,0.0,0.0,0.0,0.0,0.0,0.0,0.0,0.0,0.0,0.0,0.0,0.0,0.0,0.0,0.0,0.0,0.0,0.0,0.0,0.0,0.0,0.0,0.0,0.0,0.0,0.0,0.0,0.0,0.0,0.0,0.0,0.0,0.0,0.0,0.0,0.0,0.0,0.0,0.0,0.0,0.0,0.0,0.0,0.0,0.0,0.0,0.0,0.0,0.0,0.0,0.0,0.0,0.0,0.0,0.0,0.0,0.0,0.0,0.0,0.0,0.0,0.0,0.0,0.0,0.0,0.0,0.0,0.0,0.0,0.0,0.0,0.0,0.0,0.0,0.0,0.0,0.0,0.0,0.0,0.0,0.0,0.0,0.0,0.0,0.0,0.0,0.0,0.0,0.0,0.0,0.0,0.0,0.0,0.0,0.0,0.0,0.0,0.0,0.0,0.0,0.0,0.0,0.0,0.0,0.0,0.0,0.0,0.0,0.0,0.0,0.0,0.0,0.0,0.0,0.0,0.0,0.0,0.0,0.0,0.0,0.0,0.0,0.0,0.0,0.0,0.0,0.0,0.0,0.0,0.0,0.0,0.0,0.0,0.0,0.0,0.0,0.0,0.0,0.0,0.0,0.0,0.0,0.0,0.0,0.0,0.0,0.0,0.0,0.0,0.0,0.0,0.0,0.0,0.0,0.0,0.0,0.0,0.0,0.0,0.0,0.0,0.0,0.0,0.0,0.0,0.0,0.0,0.0,0.0,0.0,0.0,0.0,0.0,0.0,0.0,0.0,0.0,0.0,0.0,0.0,0.0,0.0,0.0,0.0,0.0,0.0,0.0,0.0,0.0,0.0,0.0,0.0,0.0,0.0,0.0,0.0,0.0,0.0,0.0,0.0,0.0,0.0,0.0,0.0,0.0,0.0,0.0,0.0,0.0,0.0,0.0,0.0,0.0,0.0,0.0,0.0,0.0,0.0,0.0,0.0,0.0,0.0,0.0,0.0,0.0,0.0,0.0,0.0,0.0,0.0,0.0,0.0,0.0,0.0,0.0,0.0,0.0,0.0,0.0,0.0,0.0,0.0,0.0,0.0,0.0,0.0,0.0,0.0,0.0,0.0,0.0,0.0,0.0,0.0,0.0,0.0,0.0,0.0,0.0,0.0,0.0,0.0,0.0,0.0,0.0,0.0,0.0,0.0,0.0,0.0,0.0,0.0,0.0,0.0,0.0,0.0,0.0,0.0,0.0,0.0,0.0,0.0,0.0,0.0,0.0,0.0,0.0,0.0,0.0,0.0,0.0,0.0,0.0,0.0,0.0,0.0,0.0,0.0,0.0,0.0,0.0,0.0,0.0,0.0,0.0,0.0,0.0,0.0,0.0,0.0,0.0,0.0,0.0,0.0,0.0,0.0,0.0,0.0,0.0,0.0,0.0,0.0,0.0,0.0,0.0,0.0,0.0,0.0,0.0,0.0,0.0,0.0,0.0,0.0,0.0,0.0,0.0,0.0,0.0,0.0,0.0,0.0,0.0,0.0,0.0,0.0,0.0,0.0,0.0,0.0,0.0,0.0,0.0,0.0,0.0,0.0,0.0,0.0,0.0,0.0,0.0,0.0,0.0,0.0,0.0,0.0,0.0,0.0,0.0,0.0,0.0,0.0,0.0,0.0,0.0,0.0,0.0,0.0,0.0,0.0,0.0,0.0,0.0,0.0,0.0,0.0,0.0,0.0,0.0,0.0,0.0,0.0,0.0,0.0,0.0,0.0,0.0,0.0,0.0,0.0,0.0,0.0,0.0,0.0,0.0,0.0,0.0,0.0,0.0,0.0,0.0,0.0,0.0,0.0,0.0,0.0,0.0,0.0,0.0,0.0,0.0,0.0,0.0,0.0,0.0,0.0,0.0,0.0,0.0,0.0,0.0,0.0,0.0,0.0,0.0,0.0,0.0,0.0,0.0,0.0,0.0,0.0,0.0,0.0,0.0,0.0,0.0,0.0,0.0,0.0,0.0,0.0,0.0,0.0,0.0,0.0,0.0,0.0,0.0,0.0,0.0,0.0,0.0,0.0,0.0,0.0,0.0,0.0,0.0,0.0,0.0,0.0,0.0,0.0,0.0,0.0,0.0,0.0,0.0,0.0,0.0,0.0,0.0,0.0,0.0,0.0,0.0,0.0,0.0,0.0,0.0,0.0,0.0,0.0,0.0,0.0,0.0,0.0,0.0,0.0,0.0,0.0,0.0,0.0,0.0,0.0,0.0,0.0,0.0,0.0,0.0,0.0,0.0,0.0,0.0,0.0,0.0,0.0,0.0,0.0,0.0,0.0,0.0,0.0,0.0,0.0,0.0,0.0,0.0,0.0,0.0,0.0,0.0,0.0,0.0,0.0,0.0,0.0,0.0,0.0,0.0,0.0,0.0,0.0,0.0,0.0,0.0,0.0,0.0,0.0,0.0,0.0,0.0,0.0,0.0,0.0,0.0,0.0,0.0,0.0,0.0,0.0,0.0,0.0,0.0,0.0,0.0,0.0,0.0,0.0,0.0,0.0,0.0,0.0,0.0,0.0,0.0,0.0,0.0,0.0,0.0,0.0,0.0,0.0,0.0,0.0,0.0,0.0,0.0,0.0,0.0,0.0,0.0,0.0,0.0,0.0,0.0,0.0,0.0,0.0,0.0,0.0,0.0,0.0,0.0,0.0,0.0,0.0,0.0,0.0,0.0,0.0,0.0,0.0,0.0,0.0,0.0,0.0,0.0,0.0,0.0,0.0,0.0,0.0,0.0,0.0,0.0,0.0,0.0,0.0,0.0,0.0,0.0,0.0,0.0,0.0,0.0,0.0,0.0,0.0,0.0,0.0,0.0,0.0,0.0,0.0,0.0,0.0,0.0,0.0,0.0,0.0,0.0,0.0,0.0,0.0,0.0,0.0,0.0,0.0,0.0,0.0,0.0,0.0,0.0,0.0,0.0,0.0,0.0,0.0,0.0,0.0,0.0,0.0,0.0,0.0,0.0,0.0,0.0,0.0,0.0,0.0,0.0,0.0,0.0,0.0,0.0,0.0,0.0,0.0,0.0,0.0,0.0,0.0,0.0,0.0,0.0,0.0,0.0,0.0,0.0,0.0,0.0,0.0,0.0,0.0,0.0,0.0,0.0,0.0,0.0,0.0,0.0,0.0,0.0,0.0,0.0,0.0,0.0,0.0,0.0,0.0,0.0,0.0,0.0,0.0,0.0,0.0,0.0,0.0,0.0,0.0,0.0,0.0,0.0,0.0,0.0,0.0,0.0,0.0,0.0,0.0,0.0,0.0,0.0,0.0,0.0,0.0,0.0,0.0,0.0,0.0,0.0,0.0,0.0,0.0,0.0,0.0,0.0,0.0,0.0,0.0,0.0,0.0,0.0,0.0,0.0,0.0,0.0,0.0,0.0,0.0,0.0,0.0,0.0,0.0,0.0,0.0,0.0,0.0,0.0,0.0,0.0,0.0,0.0,0.0,0.0,0.0,0.0,0.0,0.0,0.0,0.0,0.0,0.0,0.0,0.0,0.0,0.0,0.0,0.0,0.0,0.0,0.0,0.0,0.0,0.0,0.0,0.0,0.0,0.0,0.0,0.0,0.0,0.0,0.0,0.0,0.0,0.0,0.0,0.0,0.0,0.0,0.0,0.0,0.0,0.0,0.0,0.0,0.0,0.0,0.0,0.0,0.0,0.0,0.0,0.0,0.0,0.0,0.0,0.0,0.0,0.0,0.0,0.0,0.0,0.0,0.0,0.0,0.0,0.0,0.0,0.0,0.0,0.0,0.0,0.0,0.0,0.0,0.0,0.0,0.0,0.0,0.0,0.0,0.0,0.0,0.0,0.0,0.0,0.0,0.0,0.0,0.0,0.0,0.0,0.0,0.0,0.0,0.0,0.0,0.0,0.0,0.0,0.0,0.0,0.0,0.0,0.0,0.0,0.0,0.0,0.0,0.0,0.0,0.0,0.0,0.0,0.0,0.0,0.0,0.0,0.0,0.0,0.0,0.0,0.0,0.0,0.0,0.0,0.0,0.0,0.0,0.0,0.0,0.0,0.0,0.0,0.0,0.0,0.0,0.0,0.0,0.0,0.0,0.0,0.0,0.0,0.0,0.0,0.0,0.0,0.0,0.0,0.0,0.0,0.0,0.0,0.0,0.0,0.0,0.0,0.0,0.0,0.0,0.0,0.0,0.0,0.0,0.0,0.0,0.0,0.0,0.0,0.0,0.0,0.0,0.0,0.0,0.0,0.0,0.0,0.0,0.0,0.0,0.0,0.0,0.0,0.0,0.0,0.0,0.0,0.0,0.0,0.0,0.0,0.0,0.0,0.0,0.0,0.0,0.0,0.0,0.0,0.0,0.0,0.0,0.0,0.0,0.0,0.0,0.0,0.0,0.0,0.0,0.0,0.0,0.0,0.0,0.0,0.0,0.0,0.0,0.0,0.0,0.0,0.0,0.0,0.0,0.0,0.0,0.0,0.0,0.0,0.0,0.0,0.0,0.0,0.0,0.0,0.0,0.0,0.0,0.0,0.0,0.0,0.0,0.0,0.0,0.0,0.0,0.0,0.0,0.0,0.0,0.0,0.0,0.0,0.0,0.0,0.0,0.0,0.0,0.0,0.0,0.0,0.0,0.0,0.0,0.0,0.0,0.0,0.0,0.0,0.0,0.0,0.0,0.0,0.0,0.0,0.0,0.0,0.0,0.0,0.0,0.0,0.0,0.0,0.0,0.0,0.0,0.0,0.0,0.0,0.0,0.0,0.0,0.0,0.0,0.0,0.0,0.0,0.0,0.0,0.0,0.0,0.0,0.0,0.0,0.0,0.0,0.0,0.0,0.0,0.0,0.0,0.0,0.0,0.0,0.0,0.0,0.0,0.0,0.0,0.0,0.0,0.0,0.0,0.0,0.0,0.0,0.0,0.0,0.0,0.0,0.0,0.0,0.0,0.0,0.0,0.0,0.0,0.0,0.0,0.0,0.0,0.0,0.0,0.0,0.0,0.0,0.0,0.0,0.0,0.0,0.0,0.0,0.0,0.0,0.0,0.0,0.0,0.0,0.0,0.0,0.0,0.0,0.0,0.0,0.0,0.0,0.0,0.0,0.0,0.0,0.0,0.0,0.0,0.0,0.0,0.0,0.0,0.0,0.0,0.0,0.0,0.0,0.0,0.0,0.0,0.0,0.0,0.0,0.0,0.0,0.0,0.0,0.0,0.0,0.0,0.0,0.0,0.0,0.0,0.0,0.0,0.0,0.0,0.0,0.0,0.0,0.0,0.0,0.0,0.0,0.0,0.0,0.0,0.0,0.0,0.0,0.0,0.0,0.0,0.0,0.0,0.0,0.0,0.0,0.0,0.0,0.0,0.0,0.0,0.0,0.0,0.0,0.0,0.0,0.0,0.0,0.0,0.0,0.0,0.0,0.0,0.0,0.0,0.0,0.0,0.0,0.0,0.0,0.0,0.0,0.0,0.0,0.0,0.0,0.0,0.0,0.0,0.0,0.0,0.0,0.0,0.0,0.0,0.0,0.0,0.0,0.0,0.0,0.0,0.0,0.0,0.0,0.0,0.0,0.0,0.0,0.0,0.0,0.0,0.0,0.0,0.0,0.0,0.0,0.0,0.0,0.0,0.0,0.0,0.0,0.0,0.0,0.0,0.0,0.0,0.0,0.0,0.0,0.0,0.0,4.5906,4.5906,0.0,0.0,0.0,0.0,0.0,0.0,0.0,0.0,0.0,0.0,0.0,0.0,0.0,0.0,0.0,0.0,0.0,0.0,0.0,0.0,0.0,0.0,0.0,0.0,0.0,0.0,0.0,0.0,0.0,0.0,0.0,0.0,0.0,0.0,0.0,0.0,0.0,0.0,4.8355,4.8347,4.802,4.7601,4.7377,4.7268,0.0,0.0,0.0,0.0,0.0,0.0,0.0,0.0,0.0,0.0,0.0,0.0,0.0,0.0,0.0,0.0,0.0,0.0,0.0,0.0,0.0,0.0,0.0,0.0,0.0,0.0,0.0,0.0,0.0,0.0,0.0,0.0,0.0,0.0,0.0,0.0,0.0,0.0,0.0,0.0,0.0,0.0,0.0,0.0,0.0,0.0,0.0,0.0,0.0,0.0,0.0,0.0,0.0,0.0,0.0,0.0,0.0,0.0,0.0,0.0,0.0,0.0,0.0,0.0,0.0,0.0,0.0,0.0,0.0,0.0,4.6135,4.6051,0.0,0.0,0.0,0.0,0.0,0.0,0.0,0.0,0.0,0.0,0.0,0.0,0.0,0.0,0.0,0.0,0.0,0.0,0.0,0.0,0.0,0.0,0.0,0.0,4.7589,4.6847,4.6931,4.6855,0.0,0.0,0.0,0.0,0.0,0.0,0.0,0.0,0.0,0.0,4.9367,4.9065,4.8532,4.8439,4.7987,4.7309,4.7309,0.0,0.0,0.0,0.0,0.0,0.0,0.0,0.0,0.0,0.0,0.0,0.0,0.0,0.0,0.0,0.0,0.0,0.0,0.0,0.0,0.0,0.0,0.0,0.0,0.0,0.0,0.0,0.0,0.0,0.0,0.0,0.0,0.0,0.0,0.0,0.0,0.0,0.0,0.0,0.0,0.0,0.0,0.0,0.0,0.0,0.0,0.0,0.0,0.0,0.0,0.0,0.0,0.0,0.0,0.0,0.0,0.0,0.0,0.0,0.0,0.0,0.0,0.0,4.7063,4.7033,4.6945,4.6989,4.7284,4.7723,4.6787,4.6641,4.7113,4.7183,0.0,0.0,0.0,0.0,0.0,0.0,0.0,0.0,0.0,0.0,0.0,0.0,0.0,0.0,0.0,0.0,0.0,0.0,0.0,0.0,0.0,4.7506,4.7589,4.6847,4.7405,4.7464,0.0,0.0,0.0,0.0,0.0,0.0,0.0,4.9261,4.9397,4.9237,4.8882,4.8293,4.7495,4.7473,4.7428,4.7309,4.7309,4.7309,4.7298,0.0,0.0,0.0,0.0,0.0,0.0,0.0,0.0,0.0,0.0,0.0,0.0,0.0,0.0,0.0,0.0,0.0,0.0,0.0,0.0,0.0,0.0,0.0,0.0,0.0,0.0,0.0,0.0,0.0,0.0,0.0,0.0,0.0,0.0,0.0,0.0,0.0,0.0,0.0,0.0,0.0,4.7309,4.7309,0.0,0.0,0.0,0.0,0.0,0.0,0.0,0.0,0.0,0.0,0.0,0.0,0.0,4.7201,4.6964,4.7716,4.7915,4.7513,4.8469,4.8745,4.8329,4.8522,4.8559,4.8476,4.8319,0.0,4.8379,4.8694,0.0,0.0,0.0,0.0,0.0,0.0,0.0,0.0,0.0,0.0,0.0,0.0,0.0,0.0,0.0,0.0,0.0,0.0,0.0,0.0,0.0,4.8681,4.9012,4.867,4.9315,4.9632,4.9285,4.945,0.0,0.0,0.0,5.0288,5.1385,5.0069,4.9319,4.9187,4.8923,4.8563,4.8157,4.8082,4.7784,4.7309,4.7309,4.7309,4.7309,4.7309,0.0,0.0,0.0,0.0,0.0,0.0,0.0,0.0,0.0,0.0,0.0,0.0,0.0,0.0,0.0,0.0,0.0,0.0,0.0,0.0,0.0,0.0,0.0,0.0,0.0,0.0,0.0,0.0,0.0,0.0,0.0,0.0,0.0,0.0,0.0,0.0,0.0,0.0,0.0,4.7309,4.7309,4.7309,4.7309,4.7309,0.0,0.0,0.0,0.0,0.0,0.0,0.0,0.0,0.0,4.8397,4.8427,4.8383,4.8242,4.8652,4.8757,4.8566,4.9067,4.9186,4.8994,4.9085,4.9271,4.9514,4.9514,4.9692,5.0026,4.9522,4.9551,4.9892,0.0,0.0,0.0,0.0,4.9929,4.9929,0.0,0.0,0.0,0.0,0.0,0.0,0.0,0.0,0.0,0.0,0.0,0.0,4.9619,5.0067,5.0371,5.0371,5.0871,5.1201,5.1201,5.0827,0.0,0.0,0.0,5.1012,5.2451,5.0265,4.9168,4.9187,4.8964,4.8677,4.8418,4.8314,4.7913,4.7309,4.7309,4.7309,4.7309,4.7309,4.7309,4.7268,0.0,0.0,0.0,0.0,0.0,0.0,0.0,0.0,0.0,0.0,0.0,0.0,0.0,0.0,0.0,0.0,0.0,0.0,0.0,0.0,0.0,0.0,0.0,0.0,0.0,0.0,0.0,0.0,0.0,0.0,0.0,0.0,0.0,0.0,0.0,0.0,0.0,4.743,4.7309,4.7309,4.7309,4.7369,0.0,0.0,0.0,0.0,0.0,0.0,4.8528,4.8558,4.8708,4.9037,4.9037,4.8947,4.8798,4.9138,4.9288,4.9288,4.9636,4.9786,4.9786,4.9786,5.0032,5.0446,5.0446,5.0757,5.1122,5.0194,5.0135,5.0555,5.0525,5.0501,5.0477,5.0267,5.0195,5.0195,0.0,0.0,0.0,0.0,0.0,0.0,0.0,0.0,0.0,0.0,0.0,5.1133,5.11,5.1133,5.1133,5.1133,5.1167,5.1201,5.1201,5.1819,5.1883,5.1209,5.1799,5.1392,4.9746,4.9187,4.9025,4.9187,4.8821,4.8208,4.7396,4.7385,4.7352,4.7309,4.7309,4.7309,4.7309,4.7309,4.7309,4.7309,4.7268,0.0,0.0,0.0,0.0,0.0,0.0,0.0,0.0,0.0,0.0,0.0,0.0,0.0,0.0,0.0,0.0,0.0,0.0,0.0,0.0,0.0,0.0,0.0,0.0,0.0,0.0,0.0,0.0,0.0,0.0,0.0,0.0,0.0,0.0,0.0,0.0,0.0,0.0,4.7309,4.7309,0.0,0.0,0.0,0.0,4.9168,4.9198,4.9198,4.9258,4.9258,4.8977,4.8368,4.8338,4.8027,4.7429,4.8648,4.9288,4.9318,5.0541,5.1098,5.1098,5.1098,5.1128,5.1146,5.1146,5.1176,5.1194,5.0846,5.0739,5.0775,5.0555,5.0501,5.0501,5.0477,5.0477,5.0477,0.0,0.0,0.0,0.0,0.0,0.0,0.0,0.0,5.2875,5.2367,5.2055,5.1716,5.1235,5.1615,5.1919,5.1919,5.2393,5.2697,5.2697,5.2428,5.2399,5.2639,5.1422,5.0297,4.9328,4.9547,4.9387,4.88,4.8677,4.8166,4.7309,4.7309,4.7309,4.7309,4.7309,4.7309,4.7309,4.7309,4.7309,4.7309,4.7309,4.7309,0.0,0.0,0.0,0.0,0.0,0.0,0.0,0.0,0.0,0.0,0.0,0.0,0.0,0.0,0.0,0.0,0.0,0.0,0.0,0.0,0.0,0.0,0.0,0.0,0.0,0.0,0.0,0.0,0.0,0.0,0.0,0.0,0.0,0.0,0.0,0.0,0.0,4.8528,4.8588,0.0,4.8319,4.8308,4.8218,4.8038,4.8008,4.8188,4.8648,4.8648,4.8936,4.9501,4.9531,4.9632,4.9811,5.0272,5.0511,5.0541,5.0978,5.1206,5.1206,5.1206,5.1206,5.1206,5.1206,5.1206,5.1206,5.1094,5.1058,5.1047,5.0982,5.0947,5.0935,5.0769,5.068,5.068,0.0,0.0,0.0,0.0,0.0,0.0,0.0,0.0,5.3306,5.2765,5.2697,5.2536,5.2013,5.2427,5.2697,5.2697,5.3171,5.3509,5.3509,5.299,5.2912,5.3374,5.1494,5.0471,5.064,4.9972,4.9477,4.9196,4.8511,4.786,4.7309,4.7309,4.7309,4.7309,4.7309,4.7309,4.7309,4.7309,4.7309,4.7309,4.7309,4.7309,4.7238,0.0,0.0,0.0,0.0,0.0,0.0,0.0,0.0,0.0,0.0,0.0,0.0,0.0,0.0,0.0,0.0,0.0,0.0,0.0,0.0,0.0,0.0,0.0,0.0,0.0,0.0,0.0,0.0,0.0,0.0,0.0,0.0,0.0,0.0,0.0,4.8379,4.8588,4.8618,4.8528,4.8308,4.8308,4.8218,4.7978,4.8166,4.8465,4.8925,4.9164,4.9572,5.0177,5.0207,5.0308,5.0571,5.0757,5.0877,5.0877,5.1325,5.1546,5.1546,5.1756,5.1876,5.1876,5.1876,5.1876,5.1846,5.1636,5.1546,5.1517,5.1307,5.1206,5.1194,5.0999,5.0941,5.097,0.0,0.0,0.0,0.0,0.0,0.0,0.0,5.3509,5.3509,5.3509,5.3509,5.3509,5.3509,5.3509,5.3509,5.3509,5.3509,5.3509,5.3509,5.3509,5.3399,5.3179,5.2041,5.2023,5.3365,5.0284,4.9217,5.0339,4.8334,4.7331,4.7309,4.7309,4.7309,4.7309,4.7309,4.7309,4.7309,4.7309,4.7309,4.7309,4.7309,4.7309,4.7309,0.0,0.0,0.0,0.0,0.0,0.0,0.0,0.0,0.0,0.0,0.0,0.0,0.0,0.0,0.0,0.0,0.0,0.0,0.0,0.0,0.0,0.0,0.0,0.0,0.0,0.0,0.0,0.0,0.0,0.0,0.0,0.0,0.0,5.1078,4.9513,4.8205,4.7532,4.7472,4.7701,4.8308,4.8368,4.8618,4.9258,4.9841,5.0177,5.0177,5.0787,5.0847,5.0237,5.0237,4.9961,4.9408,4.9991,5.0297,5.0327,5.1606,5.2217,5.2247,5.2887,5.3198,5.3198,5.3198,5.3198,5.3169,5.2498,5.2217,5.2157,5.1487,5.1206,5.1206,5.1206,5.1206,5.1325,0.0,0.0,0.0,0.0,0.0,0.0,0.0,5.3509,5.3509,5.3509,5.3509,5.3509,5.3509,5.3509,5.3509,5.3509,5.3509,5.3509,5.3509,5.3509,5.3221,5.2573,5.1909,5.1465,5.1262,5.009,4.9368,4.9106,4.8532,4.7913,4.7309,4.7309,4.7309,4.7309,4.7309,4.7309,4.7309,4.7309,4.7309,4.7309,4.7309,4.7309,4.7385,0.0,0.0,0.0,0.0,0.0,0.0,0.0,0.0,0.0,0.0,0.0,0.0,0.0,0.0,0.0,0.0,0.0,0.0,0.0,0.0,0.0,0.0,0.0,0.0,0.0,0.0,0.0,0.0,0.0,0.0,0.0,5.483,5.3934,5.2594,5.1999,5.1581,5.118,5.1153,5.0752,4.9778,4.968,4.9572,4.9318,4.9456,4.9535,4.9535,4.9714,4.9942,5.0207,5.0656,5.1068,5.139,5.2049,5.2366,5.2366,5.2737,5.2917,5.2917,5.3109,5.3198,5.3198,5.3198,5.3198,5.3198,5.3007,5.2917,5.2797,5.1636,5.1206,5.1206,5.1206,5.1517,5.1947,0.0,0.0,0.0,0.0,0.0,0.0,0.0,5.3509,5.3509,5.3509,5.3509,5.3509,5.3509,5.3509,5.3509,5.3509,5.3509,5.3509,5.3509,5.3408,5.3187,5.2687,5.2256,5.1846,5.1447,5.0371,4.9607,4.9226,4.8449,4.7785,4.7309,4.7309,4.7309,4.7309,4.7309,4.7309,4.7309,4.7309,4.7309,4.7309,4.7309,4.7309,4.7363,4.7849,4.8061,4.8124,4.8574,4.8994,4.9308,4.9308,0.0,0.0,0.0,0.0,0.0,0.0,0.0,0.0,0.0,0.0,0.0,0.0,0.0,0.0,0.0,0.0,0.0,0.0,0.0,0.0,0.0,0.0,0.0,0.0,5.6248,5.5565,5.4671,5.3312,5.2403,5.2335,5.1686,5.0988,5.0414,5.0031,4.9673,4.9318,4.9535,4.9793,5.0074,5.0373,5.0792,5.1427,5.1816,5.2217,5.2618,5.3019,5.3198,5.3198,5.3486,5.3635,5.3635,5.3905,5.4024,5.4024,5.4024,5.4024,5.4037,5.3725,5.3635,5.3503,0.0,0.0,0.0,0.0,5.2276,5.2677,0.0,0.0,0.0,0.0,0.0,0.0,0.0,5.3509,5.3509,5.3509,5.3391,5.3323,5.3323,5.3306,5.3297,5.3297,5.3374,5.3425,5.345,5.3187,5.3051,5.3187,5.2729,5.2485,5.2582,5.084,4.9943,4.9931,4.8335,4.7538,4.746,4.746,4.7376,4.7309,4.7309,4.7309,4.7309,4.7309,4.7309,4.7309,4.7309,4.7363,4.7452,4.7549,4.7645,4.7752,4.7828,4.8366,4.9025,4.9025,0.0,0.0,0.0,0.0,0.0,0.0,0.0,0.0,0.0,0.0,0.0,0.0,0.0,0.0,0.0,0.0,0.0,0.0,0.0,0.0,0.0,0.0,0.0,0.0,5.669,5.669,5.669,5.4005,5.2107,5.2331,5.0961,5.0216,5.0759,5.02,4.9787,4.9798,5.0269,5.0891,5.1706,5.2108,0.0,0.0,0.0,5.3471,5.3471,5.3549,5.3518,5.3426,5.4012,5.4299,5.4329,5.491,5.5192,5.5192,5.5192,5.5192,5.5162,5.4551,5.4299,5.4251,5.3486,5.3198,5.3198,5.3198,5.3258,5.3396,0.0,0.0,0.0,0.0,0.0,0.0,0.0,5.3509,5.3509,5.3509,5.2765,5.2223,5.2223,5.2056,5.1966,5.1966,5.2626,5.3076,5.323,5.2401,5.2303,5.3161,5.2185,5.1322,5.0646,5.0777,5.0209,4.8892,4.9197,4.8984,4.8345,4.8345,4.7966,4.7309,4.7309,4.7309,4.7309,4.7309,4.7309,4.7309,4.7309,4.773,4.8418,4.9075,4.9757,5.0474,5.1149,5.1526,5.1655,5.1655,5.1756,5.1908,5.1908,0.0,0.0,0.0,0.0,0.0,0.0,0.0,0.0,0.0,0.0,0.0,0.0,0.0,0.0,0.0,0.0,0.0,0.0,0.0,0.0,5.669,5.669,5.669,5.669,5.5488,5.4592,5.468,5.4339,5.3619,5.235,5.2541,5.2787,5.2833,5.2715,5.3387,5.5149,5.3818,5.3798,5.5547,5.536,5.5231,5.5231,5.5704,5.5572,5.4803,5.494,0.0,5.4999,5.5132,5.5192,5.5192,5.5192,5.5192,5.5192,5.5059,5.4999,5.4892,5.3665,5.3198,5.3198,5.3198,5.3545,5.4042,0.0,0.0,0.0,0.0,0.0,0.0,0.0,5.3509,5.3348,5.2946,5.2336,5.1758,5.1331,5.1479,5.1634,5.1734,5.2548,5.2696,5.184,5.1653,5.1607,5.1649,5.1075,5.0506,4.995,5.0297,4.9846,4.8604,4.9004,4.8759,4.7945,4.7945,4.773,4.7309,4.7309,4.7309,4.7331,4.7784,4.7945,4.7987,4.8386,4.9065,4.9797,4.9378,4.9738,5.0509,5.0929,5.1364,5.1762,5.1762,5.2256,5.2904,5.2904,5.3135,5.3533,0.0,0.0,0.0,0.0,0.0,0.0,0.0,0.0,0.0,0.0,0.0,0.0,0.0,0.0,5.669,0.0,0.0,5.669,5.669,5.669,5.669,5.669,5.6297,5.5998,5.5998,5.4809,5.4071,5.4472,5.4004,5.3996,5.488,5.481,5.527,5.659,5.5704,5.5767,5.7107,5.6486,5.6158,5.6158,5.646,5.6378,5.5906,5.5906,5.6088,5.6379,5.5912,5.588,5.6149,5.6149,5.6149,5.6149,5.6149,5.6149,5.609,5.5401,5.4773,5.4204,5.4204,5.4413,5.47,0.0,0.0,0.0,0.0,0.0,0.0,0.0,5.3357,5.3016,5.2378,5.18,5.1164,5.0496,5.0807,5.1192,5.1484,5.217,5.1963,5.0435,5.0779,5.076,5.0136,4.9911,4.9714,4.9567,4.9874,4.961,4.8779,4.9119,4.8799,4.7929,4.7929,4.7831,4.7698,4.7698,4.7698,4.7723,4.8304,4.861,4.8786,4.9466,5.0346,5.1141,4.9967,4.9839,5.0326,5.0453,5.0932,5.1587,5.1717,5.2604,5.3614,5.3614,5.4011,5.4541,5.4674,5.5137,0.0,0.0,0.0,0.0,0.0,0.0,0.0,0.0,0.0,5.669,5.669,5.669,5.669,5.669,5.669,5.669,5.669,5.669,5.6756,5.6888,5.6922,5.6955,5.712,5.5056,5.4418,5.6406,5.5412,5.5185,5.6573,5.661,5.6929,5.7847,5.7512,5.772,5.8643,5.7711,5.7232,5.7399,5.7399,5.7366,5.731,5.7174,5.7379,5.7868,5.698,5.6834,5.7293,5.7075,5.6899,5.6735,5.6735,5.6735,5.6735,5.6735,5.6119,5.5222,5.5491,5.5581,5.5581,0.0,0.0,0.0,0.0,0.0,0.0,0.0,0.0,5.2396,5.2307,5.0821,4.9666,4.9399,4.9268,4.9449,4.9992,5.0335,5.0413,5.0145,4.9377,4.9277,5.0068,4.9237,4.8749,4.8718,5.018,5.0449,4.9383,5.0943,5.117,5.0143,5.0143,4.9761,4.9078,4.9078,4.9078,4.9048,4.8549,4.8683,4.9253,4.9512,5.0507,5.1884,5.2538,5.2513,5.2197,5.2772,5.3058,5.3254,5.3882,5.4235,5.4376,5.4376,5.4442,5.4641,5.5293,0.0,5.5733,5.6415,5.6623,5.669,5.669,5.669,5.669,0.0,0.0,5.669,5.669,5.669,5.669,5.669,5.669,5.669,5.669,5.669,5.6922,5.7584,5.7684,5.7916,5.8578,5.78,5.7265,5.7382,5.7732,5.8076,5.8324,5.8067,5.8697,6.0533,5.8961,5.8848,6.0696,5.9794,5.9568,6.0224,6.0224,6.0124,5.9866,5.9211,5.8935,5.8998,5.8228,5.7906,5.7954,5.7047,5.618,5.5401,5.5401,5.5401,5.5401,5.5401,5.5341,5.5341,5.6479,5.6898,5.6898,0.0,0.0,0.0,0.0,0.0,0.0,0.0,0.0,0.0,5.0947,5.007,4.9258,4.8553,4.8697,4.8943,4.9258,4.9795,4.9657,4.8543,4.8563,4.8573,4.847,4.8082,4.802,4.8414,4.9564,4.9916,4.9381,5.0578,5.0712,4.9805,4.9805,4.9616,4.9288,4.9288,4.9288,4.9322,4.9502,5.0048,5.0865,5.1442,5.2375,5.3474,5.3839,5.3841,5.3665,5.3945,5.4045,0.0,5.4409,5.4806,5.5128,5.5128,5.5435,5.5852,5.615,5.6249,0.0,5.6623,5.669,0.0,0.0,5.669,5.669,5.669,5.669,5.669,5.669,5.7054,5.7352,5.7352,5.7684,5.7982,0.0,5.7982,5.8081,5.8413,5.8436,5.8701,5.9463,5.9264,5.9066,5.8971,5.872,5.896,5.9981,5.9913,6.0216,6.1067,6.0302,6.0434,6.1705,6.0348,5.9943,6.0699,6.0278,5.9981,5.9888,5.9588,5.9641,5.998,5.9076,5.8891,5.9199,5.8212,5.7554,5.7215,5.758,5.7423,5.6931,5.7334,5.7483,5.7363,5.6346,5.5987,5.5987,0.0,0.0,0.0,0.0,0.0,0.0,0.0,0.0,0.0,0.0,5.0095,4.9419,4.8376,4.8405,4.846,4.8459,4.9024,4.8821,4.7376,4.7881,4.7955,4.7331,4.7489,4.7788,4.8278,4.9271,4.9709,4.9535,5.0379,5.0449,4.9804,4.9804,4.9804,4.9804,4.9804,4.988,4.9963,5.0283,5.1138,5.2355,5.2955,5.3883,5.4897,5.5155,5.5282,5.524,5.4975,5.489,5.4933,5.5188,5.5577,5.5985,5.5985,5.633,5.6709,5.6767,5.6776,5.6776,5.6776,0.0,0.0,5.669,5.669,5.6756,5.6964,5.6988,5.7054,5.7253,5.775,5.8114,5.8114,5.8535,5.8899,5.8899,5.8899,5.8966,5.9164,5.9198,5.9496,6.0225,6.0291,6.0291,6.0291,5.9697,5.9788,6.1001,6.1109,6.1175,6.1384,6.1208,6.1461,6.2178,6.0792,6.037,6.1098,6.0576,6.0413,6.0609,6.0609,6.088,6.1325,6.0586,6.0349,6.0542,5.9794,5.916,5.8675,5.9155,5.8762,5.7859,5.8351,5.856,5.8321,5.6406,5.597,5.6299,0.0,0.0,0.0,0.0,0.0,0.0,0.0,0.0,0.0,0.0,0.0,0.0,0.0,4.8177,4.7549,4.7374,4.7549,4.7559,4.732,4.7331,4.7331,4.7309,4.7908,4.8278,4.8308,4.9728,5.0357,5.0177,5.1058,5.1371,5.1146,5.1146,5.1146,5.1146,5.1146,5.1298,5.147,5.0596,5.139,5.3268,5.3291,5.4337,5.5965,5.6887,5.7222,5.7094,5.6168,5.586,5.5997,5.6913,5.7081,5.6954,5.6954,5.6853,0.0,5.693,5.6987,5.6987,5.6987,5.6844,5.669,5.669,5.669,5.6888,5.7617,5.7783,5.7982,5.8678,5.8833,5.8866,5.8866,5.8866,5.8899,5.8899,5.8899,5.9164,5.986,5.996,6.0258,6.0976,6.1075,6.1075,0.0,6.1055,6.1044,6.1109,6.1109,6.1417,6.2144,6.1494,6.1461,6.2178,6.1462,6.1419,6.2135,6.2135,6.2466,6.3195,6.3195,6.3184,6.3218,6.3196,6.2651,6.1745,6.1723,6.0578,5.8695,5.8726,5.8113,5.7124,5.7154,5.7154,5.7167,5.7064,5.7872,5.8979,0.0,0.0,0.0,0.0,0.0,0.0,0.0,0.0,0.0,0.0,0.0,0.0,0.0,0.0,0.0,0.0,4.8895,4.884,4.8629,4.832,4.8091,4.7978,4.8188,4.8528,4.8947,4.9847,5.0498,5.0877,5.1171,5.128,5.1206,5.1206,5.1206,5.1206,5.1206,5.1264,5.1304,5.1001,5.2005,5.3773,5.3904,5.5013,5.6662,5.7148,5.7299,5.7275,0.0,5.694,5.687,5.718,5.7261,5.7205,5.7205,5.7063,5.6882,5.6815,5.6796,5.6796,5.6796,5.6747,5.6832,5.7319,5.7419,5.7617,5.8369,5.8545,5.8601,5.8833,5.9297,5.9628,5.9628,6.0026,6.0347,6.0347,6.0347,6.0456,6.0678,6.0711,6.081,6.1075,6.1109,0.0,0.0,0.0,0.0,6.1109,6.1109,6.1208,6.1461,6.1218,6.1461,6.2178,6.1483,6.1682,6.2929,6.2432,6.2565,6.3294,6.3294,6.3294,6.3272,6.2628,6.2474,6.276,6.2073,6.1012,5.9729,6.0174,5.9334,5.7799,5.8261,5.8441,5.8441,5.8441,5.871,5.8979,0.0,0.0,0.0,0.0,0.0,0.0,0.0,0.0,0.0,0.0,0.0,0.0,0.0,0.0,0.0,0.0,0.0,4.9591,4.9557,4.9188,4.8903,4.877,4.891,4.9194,4.9625,5.023,5.0757,5.1206,5.1206,5.1206,5.1206,5.1206,5.1206,5.1206,5.1206,5.1433,5.183,5.1819,5.2976,5.484,5.4952,5.5912,5.7336,5.7467,5.7514,0.0,5.7662,5.7625,5.7514,5.7514,5.7467,5.7411,5.7411,5.7271,5.7072,5.6863,5.6805,5.6872,5.7128,5.7145,5.7253,5.8015,5.8181,5.8379,5.9131,5.9297,5.9363,5.9628,6.0059,6.038,6.038,6.0777,6.1109,6.1109,6.1109,6.1109,6.1109,6.1109,6.1109,6.1109,6.1109,6.1109,0.0,0.0,0.0,6.1109,6.1109,6.1218,6.1483,6.1241,6.1461,6.2178,6.1726,6.1958,6.2907,6.2697,6.2962,6.3691,6.3691,6.3824,6.4023,6.3394,6.345,6.4012,6.3383,6.2262,6.1009,6.1822,6.0683,5.8527,5.9332,5.9432,5.9099,5.9099,5.9099,5.8979,0.0,0.0,0.0,0.0,0.0,0.0,0.0,0.0,0.0,0.0,0.0,0.0,0.0,0.0,0.0,0.0,0.0,0.0,5.007,4.9829,4.9665,4.9654,5.0049,5.0242,5.0242,5.087,5.1241,5.1253,5.1229,5.1217,5.1229,5.1229,5.1229,5.1229,5.1241,5.1888,5.3018,5.2965,5.4211,5.6273,5.6227,5.6887,5.7881,5.7891,5.7891,5.7891,5.7891,5.7891,5.7891,5.7891,5.7763,5.7597,5.7578,5.7439,5.7242,5.7077,5.7053,5.7187,5.7943,5.7997,5.8048,5.8767,5.8966,5.9164,5.9893,6.0059,6.0247,6.0943,6.1109,6.1109,0.0,0.0,6.1109,6.1109,6.1109,6.1109,6.1109,6.1109,6.1109,0.0,0.0,0.0,0.0,0.0,0.0,6.1142,6.1109,6.1417,6.2178,6.156,6.1483,6.2244,6.2277,6.2277,6.231,6.3029,6.3758,6.4443,6.4443,6.4763,6.5414,6.5414,6.5414,6.5414,6.5414,6.4224,6.2399,6.34,6.194,5.9207,6.0207,6.0,5.9099,5.9099,5.9099,5.9099,0.0,0.0,0.0,0.0,0.0,0.0,0.0,0.0,0.0,0.0,0.0,0.0,0.0,0.0,0.0,0.0,0.0,0.0,5.1216,5.0992,5.0797,5.0637,5.0751,5.0808,5.0808,5.1271,5.1602,5.1818,5.1405,5.1281,5.1491,5.1491,5.1491,5.1521,5.1707,5.234,5.3218,5.3218,5.4274,5.6011,5.6145,5.6801,5.7689,5.7836,5.7891,5.7891,5.7891,5.7891,5.7891,5.7891,0.0,0.0,5.7252,5.712,5.7134,5.7489,5.7596,5.7762,5.8482,5.8641,5.881,5.9529,5.9728,5.9926,6.0645,6.081,6.0877,6.1075,6.1109,6.1109,0.0,0.0,0.0,6.1109,6.1109,0.0,6.1109,6.1109,0.0,6.1109,0.0,6.1109,6.1109,6.1109,0.0,0.0,6.1417,6.1417,6.2178,6.2001,6.2266,6.2996,6.3029,6.3261,6.3769,6.4498,6.4962,6.516,6.516,6.5216,6.5414,6.5414,6.5414,6.5414,6.5414,6.4224,6.2306,6.2607,6.1286,5.9126,5.9392,5.9325,5.9099,5.9099,5.9099,5.9189,0.0,0.0,0.0,0.0,0.0,0.0,0.0,0.0,0.0,0.0,0.0,0.0,0.0,0.0,0.0,0.0,0.0,0.0,0.0,5.1793,5.1655,5.1436,5.1425,5.138,5.1277,5.1606,5.1845,5.2002,5.1695,5.1625,5.1776,5.1776,5.1776,5.1776,5.1944,5.2693,5.387,5.3966,5.5023,0.0,0.0,5.726,5.7744,5.7854,5.7891,5.7891,5.7891,0.0,0.0,0.0,0.0,5.7599,5.753,5.7496,5.7581,5.814,0.0,5.8436,5.9164,5.9396,5.9562,6.0291,6.0479,6.0579,6.1009,6.1109,6.1109,6.1109,6.1109,6.1109,6.1109,6.1109,6.1109,0.0,0.0,0.0,6.1109,6.1109,6.1109,0.0,6.1109,0.0,6.155,6.1593,6.1891,0.0,6.1991,6.1891,6.2642,6.2664,6.2863,6.3294,6.3625,6.4111,6.4785,6.5182,6.5414,6.5414,6.5414,6.5414,6.5403,6.5745,6.5867,6.59,6.6231,6.5426,6.3915,6.3878,6.2617,6.0708,6.0698,6.0404,5.9983,5.9983,5.9983,6.0013,0.0,0.0,0.0,0.0,0.0,0.0,0.0,0.0,0.0,0.0,0.0,0.0,0.0,0.0,0.0,0.0,0.0,0.0,0.0,0.0,5.2291,5.2105,5.2105,5.1972,5.1734,5.1937,5.2071,5.2105,5.2036,5.2025,5.2029,5.2029,5.2029,5.2029,5.2082,5.3071,5.4694,5.489,5.5982,5.7652,5.7827,5.7891,5.7891,0.0,0.0,0.0,0.0,0.0,0.0,0.0,5.8202,5.7754,5.8106,5.8214,5.8308,5.8883,5.9032,5.9198,5.996,6.0158,6.0291,6.0943,6.1109,6.1109,6.1109,6.1109,6.1109,6.1109,0.0,6.1109,6.1109,6.1109,6.1109,6.1109,0.0,6.1109,6.1109,6.1109,6.1109,6.1109,6.1175,6.1483,6.2144,6.2277,6.2631,6.3393,6.2863,6.2774,6.3393,6.3426,6.3493,6.3592,6.4222,6.4796,6.537,6.5414,6.5447,6.5547,6.5547,6.5602,6.5701,6.6363,6.656,6.6467,6.7266,6.6905,6.5764,6.5723,6.4545,6.2786,6.2576,6.1915,6.109,6.109,6.109,6.112,0.0,0.0,0.0,0.0,0.0,0.0,0.0,0.0,0.0,0.0,0.0,0.0,0.0,0.0,0.0,0.0,0.0,0.0,0.0,0.0,0.0,5.2563,5.2594,5.2541,5.2507,5.2348,5.2371,5.2594,5.2197,5.2075,5.2238,5.2238,5.2238,5.2249,5.2473,5.3554,5.52,5.5209,5.625,5.7845,5.7881,5.7891,5.7891,5.7891,0.0,0.0,0.0,0.0,0.0,0.0,5.8969,5.8308,5.8657,5.8761,5.8916,5.9605,5.9827,5.996,6.0711,6.091,6.0943,6.1075,6.1109,6.1109,6.1109,6.1109,0.0,0.0,6.1109,6.1109,6.1109,6.1109,6.1109,6.1109,6.1109,6.1109,6.1109,6.1109,6.1109,0.0,6.1626,6.2078,6.2178,6.2741,0.0,0.0,6.4089,6.4045,6.4133,6.4178,6.4476,6.5028,6.5149,6.5282,6.5414,6.5414,6.5712,6.6297,6.6297,6.6628,6.7224,6.7357,6.6893,6.6058,6.7151,6.6489,6.4685,6.4672,6.3924,6.272,6.1737,6.1271,6.109,6.109,6.109,6.118,0.0,0.0,0.0,0.0,0.0,0.0,0.0,0.0,0.0,0.0,5.2204,0.0,0.0,0.0,0.0,0.0,0.0,0.0,0.0,0.0,0.0,0.0,0.0,0.0,5.2507,5.2507,5.2574,5.2687,0.0,5.2405,5.2518,5.2518,5.2518,5.2541,5.3104,5.4073,5.5343,5.5786,5.6729,5.7891,5.7891,5.7891,0.0,0.0,0.0,0.0,0.0,0.0,0.0,0.0,6.0078,5.9707,5.9771,5.9701,5.9777,6.0508,6.0731,6.0766,6.104,6.1169,6.1231,6.114,6.1109,6.1109,6.1109,0.0,0.0,0.0,6.1109,6.1109,6.1109,6.1109,0.0,6.1109,6.1109,6.1109,6.1109,6.1109,6.1241,6.1626,6.1968,6.2509,6.3261,6.3658,6.4144,6.4862,6.4929,6.4895,6.4884,6.4895,6.5061,6.5381,6.5767,6.5977,6.5977,6.6363,6.6728,6.7059,6.7059,6.7258,6.7622,6.7998,6.7862,6.7368,6.7713,6.7285,6.623,6.5044,6.4235,6.3715,6.2919,6.263,6.2646,6.3005,6.311,6.3124,0.0,0.0,0.0,0.0,0.0,0.0,0.0,5.2181,5.2306,5.2306,5.212,5.2075,5.2284,5.2306,0.0,0.0,0.0,0.0,0.0,0.0,0.0,0.0,0.0,0.0,0.0,0.0,0.0,5.2687,5.2687,0.0,0.0,0.0,0.0,0.0,5.3423,5.4306,5.532,5.6024,5.692,0.0,0.0,5.7891,0.0,0.0,0.0,0.0,0.0,0.0,0.0,0.0,6.1214,6.1185,6.1037,6.0779,6.0637,6.1227,6.1394,6.1352,6.12,6.1293,6.1352,6.12,6.115,6.1119,6.1138,6.115,0.0,6.1171,6.115,6.1109,6.1109,6.1109,6.1142,0.0,6.1208,6.1142,6.1318,6.1351,6.155,0.0,6.2476,0.0,6.4288,6.4542,0.0,6.5348,6.5547,6.5646,6.5646,6.5646,6.5701,6.5867,6.643,6.6728,6.6728,6.7324,6.7688,6.7821,6.7821,6.792,6.8085,6.8416,6.8433,6.8202,6.8019,6.7817,6.7458,6.5814,6.5137,6.5073,6.4443,6.4216,6.4276,6.4815,6.4994,6.4904,0.0,0.0,0.0,0.0,0.0,0.0,0.0,5.2295,5.2306,5.2306,5.212,5.2075,5.2284,5.2306,0.0,0.0,0.0,0.0,0.0,0.0,0.0,0.0,0.0,0.0,0.0,0.0,0.0,5.2687,5.2687,0.0,0.0,0.0,0.0,0.0,0.0,5.3729,5.5322,5.5393,0.0,0.0,0.0,0.0,0.0,0.0,0.0,0.0,0.0,0.0,0.0,0.0,0.0,6.226,6.224,6.179,6.1294,6.1394,0.0,0.0,6.1363,6.1383,6.1394,6.1363,6.1241,6.1138,6.1311,0.0,6.1138,6.1322,6.1221,6.1109,6.1109,6.1109,6.1318,6.2001,6.156,6.1318,6.2001,6.2111,6.2101,6.2211,0.0,0.0,6.4387,6.4962,6.5315,6.5414,6.601,6.6397,6.6397,6.6397,6.6695,6.739,6.7456,6.7489,6.7489,6.7589,6.7931,6.8584,6.8584,6.8949,6.9576,6.8601,6.7584,6.664,6.7219,6.6892,6.5936,6.636,6.6507,6.6424,6.5332,6.4904,6.4904,6.4964,6.4994,6.4994,0.0,0.0,0.0,0.0,0.0,0.0,0.0,5.2431,5.2552,5.2552,5.2223,5.2151,5.2507,5.2291,0.0,0.0,0.0,0.0,0.0,0.0,0.0,0.0,0.0,0.0,0.0,0.0,5.2687,5.2687,5.2687,0.0,0.0,0.0,0.0,0.0,0.0,5.4653,5.5383,5.6416,0.0,0.0,0.0,0.0,0.0,0.0,0.0,0.0,0.0,0.0,6.2391,0.0,0.0,0.0,6.2391,6.21,0.0,0.0,6.1577,6.1547,6.1424,6.1486,6.1547,6.1424,6.1414,6.1468,6.1404,0.0,6.1314,6.1373,6.1241,6.1109,6.1109,6.145,6.1693,6.156,6.2024,6.2355,6.2211,6.2575,6.3029,6.3459,6.4056,0.0,0.0,0.0,6.5569,6.6032,6.6761,6.7357,6.7811,6.7402,6.7291,6.7589,6.8031,6.8274,6.8274,6.8705,6.9069,6.9346,6.9346,6.9512,6.9774,6.9053,6.8459,6.8003,6.7286,6.6728,6.6266,6.5871,6.5687,6.5658,6.5622,6.5607,6.5637,6.6071,6.6191,6.6161,0.0,0.0,0.0,0.0,0.0,0.0,5.2181,5.2484,5.2687,5.2687,5.2337,5.2234,5.2673,5.2325,5.2246,5.2653,0.0,0.0,0.0,0.0,0.0,0.0,0.0,0.0,0.0,0.0,5.2687,5.2687,5.2687,5.2687,0.0,0.0,5.2844,5.3124,0.0,0.0,0.0,0.0,0.0,0.0,0.0,0.0,0.0,0.0,0.0,0.0,0.0,0.0,0.0,0.0,0.0,0.0,0.0,0.0,0.0,0.0,6.18,6.177,6.1628,6.1689,6.176,6.1618,6.1638,6.1679,0.0,0.0,6.1414,6.1475,6.1283,6.1109,6.1109,6.1527,6.1759,6.145,6.23,6.2863,6.2575,6.3161,6.3824,6.4354,0.0,6.4962,6.5646,6.59,6.6375,6.7103,6.7633,6.8241,6.8982,6.8528,6.8263,6.8263,6.8738,6.9015,6.9015,6.9545,6.9909,7.0129,6.9772,6.9883,7.0413,6.904,6.8583,6.8844,6.7187,6.6483,6.6455,6.5846,6.5577,6.5637,6.6116,6.6311,6.634,6.6835,6.7014,6.6939,0.0,0.0,0.0,0.0,0.0,0.0,0.0,5.2413,5.2687,5.2687,5.2442,5.2397,5.2664,5.2442,5.2397,5.2664,0.0,0.0,0.0,0.0,0.0,0.0,0.0,0.0,0.0,0.0,0.0,0.0,5.2687,5.2687,5.2687,5.2687,5.3168,5.3934,0.0,0.0,0.0,0.0,0.0,0.0,0.0,0.0,0.0,0.0,0.0,0.0,0.0,0.0,0.0,0.0,0.0,0.0,0.0,6.2391,6.2351,6.2066,6.1997,6.1997,6.1997,6.1997,6.1997,6.1997,6.186,6.176,0.0,6.1699,6.1455,6.1659,6.1386,6.1109,6.1109,6.1109,6.1351,6.2068,6.2211,6.2476,6.3194,6.3923,6.4387,0.0,0.0,6.5668,6.643,6.7158,6.7898,6.8617,6.8684,6.9015,6.9744,6.9777,6.9777,6.9777,6.9777,6.9777,6.9777,6.981,7.0175,7.0879,6.9685,7.0127,7.1874,6.8332,6.7397,6.8409,6.672,6.6026,6.6056,6.6715,6.6984,6.6984,6.6984,6.6984,6.6984,6.7014,6.7014,6.7014,0.0,0.0,0.0,0.0,0.0,0.0,0.0,5.2586,5.2687,5.2687,5.2453,5.2397,5.2664,5.2442,5.2408,5.2664,0.0,0.0,0.0,0.0,0.0,0.0,0.0,0.0,0.0,0.0,0.0,0.0,0.0,0.0,5.2687,5.2687,5.2855,5.3124,5.3456,5.4221,0.0,0.0,0.0,0.0,0.0,0.0,6.096,0.0,0.0,0.0,0.0,0.0,0.0,0.0,0.0,0.0,0.0,0.0,0.0,6.2312,6.215,6.2007,6.2007,6.2007,6.2007,6.2007,6.21,6.213,6.2027,6.1897,6.1817,6.1887,6.1588,6.1447,6.1979,6.192,6.2101,6.283,6.3349,6.3747,6.4023,0.0,0.0,6.5083,6.5712,6.643,0.0,6.7931,6.844,6.8684,6.9181,6.9545,6.9777,6.981,6.981,6.981,6.981,7.0042,7.056,7.056,7.0924,7.1653,7.1264,7.0956,7.071,6.926,6.8349,6.7919,6.7049,6.667,6.67,6.6909,6.7014,6.7014,6.7014,6.7014,6.7014,6.7014,6.7014,6.7014,0.0,0.0,0.0,0.0,0.0,0.0,0.0,5.2883,5.2997,5.312,5.3013,5.3013,5.3254,5.3162,5.3071,5.3064,0.0,0.0,0.0,0.0,0.0,0.0,0.0,0.0,0.0,0.0,0.0,0.0,0.0,0.0,0.0,0.0,0.0,5.3192,5.3761,5.4496,0.0,0.0,0.0,0.0,0.0,0.0,6.1332,0.0,0.0,0.0,0.0,0.0,0.0,0.0,0.0,0.0,0.0,0.0,0.0,0.0,6.2268,6.216,6.216,6.216,6.216,6.216,6.2268,0.0,6.2189,6.1817,6.1582,6.1937,6.1673,6.1635,6.2364,6.2644,6.2859,6.3249,6.3879,6.4332,6.4376,0.0,0.0,6.5779,6.6706,0.0,6.7965,6.8672,6.9114,6.9114,6.9545,6.9931,7.0208,7.0208,7.0328,7.0626,7.0361,7.056,7.1322,7.1322,7.1457,7.1726,7.1275,7.0805,7.0305,6.9105,6.8397,6.8065,6.7306,6.7014,0.0,6.7014,6.7014,6.7014,6.7014,6.7014,6.7014,6.7014,6.7014,6.7014,0.0,0.0,0.0,0.0,0.0,0.0,0.0,0.0,0.0,0.0,5.3902,5.4009,5.4258,5.4305,5.4185,0.0,0.0,0.0,0.0,0.0,0.0,0.0,0.0,0.0,0.0,0.0,0.0,5.2687,5.2687,5.2687,5.2687,0.0,0.0,0.0,5.3891,0.0,0.0,0.0,0.0,0.0,0.0,0.0,0.0,0.0,0.0,0.0,0.0,0.0,0.0,0.0,0.0,0.0,0.0,0.0,0.0,0.0,0.0,0.0,0.0,6.2391,6.2391,0.0,0.0,0.0,6.2381,6.147,0.0,6.1914,6.1815,6.1761,6.2532,6.3182,6.3574,6.3459,6.399,6.442,6.4443,6.5061,0.0,0.0,6.7877,6.8717,6.8783,6.9412,6.981,6.9864,6.9876,7.0208,7.0924,7.0991,7.1286,7.194,7.1279,7.1315,7.2072,7.201,7.1759,7.1362,7.0154,6.9884,7.0403,6.8148,6.7699,6.8621,6.7487,6.7014,6.7014,6.7014,6.7014,6.7014,6.7014,6.7014,6.7014,6.7014,6.7014,6.7014,0.0,0.0,0.0,0.0,0.0,0.0,0.0,0.0,0.0,0.0,0.0,5.4223,5.4282,5.4477,0.0,0.0,0.0,0.0,0.0,0.0,0.0,0.0,0.0,0.0,0.0,0.0,0.0,5.2687,5.2687,5.2687,5.2687,5.2687,0.0,0.0,0.0,0.0,0.0,0.0,0.0,0.0,0.0,0.0,0.0,0.0,0.0,0.0,6.2391,6.2391,0.0,0.0,0.0,0.0,0.0,0.0,0.0,0.0,6.19,6.1493,6.2213,0.0,6.2391,6.2391,6.187,6.1513,0.0,6.1625,6.1329,6.2831,6.2959,6.3097,6.4203,6.3954,6.3895,6.4763,6.4608,6.4575,6.5094,6.5779,0.0,6.8009,6.8485,6.8915,6.9479,6.9711,7.003,7.0593,7.0626,7.0958,7.1686,7.1753,7.168,7.1454,7.131,7.174,7.2833,7.1917,7.1701,7.212,7.0913,6.995,6.9203,6.865,6.8028,6.7396,6.7107,6.7014,6.7014,6.7014,6.7014,6.7014,6.7014,6.7014,6.7014,6.7014,6.7014,6.7014,0.0,0.0,0.0,0.0,0.0,0.0,0.0,0.0,0.0,0.0,0.0,0.0,0.0,0.0,0.0,0.0,0.0,0.0,0.0,0.0,0.0,0.0,0.0,0.0,0.0,0.0,0.0,0.0,0.0,5.2687,0.0,0.0,0.0,0.0,0.0,0.0,0.0,0.0,0.0,0.0,6.0931,0.0,0.0,0.0,0.0,0.0,6.2391,6.2391,0.0,6.2391,6.2391,6.2391,0.0,0.0,0.0,0.0,6.1401,6.11,6.1615,6.178,6.178,6.178,6.1686,6.1544,6.1216,6.1324,6.174,6.2683,0.0,6.4011,6.5007,6.5044,6.5075,6.5503,6.526,6.5227,0.0,6.6838,6.7811,6.8617,6.9015,6.9346,6.9765,7.0108,7.0461,7.0858,7.1223,7.1466,7.167,7.2208,7.2279,7.1835,7.1796,7.2131,7.276,7.1584,7.1167,7.1552,7.0361,6.9131,6.7969,6.7969,6.7623,6.7014,6.7014,6.7014,6.7014,6.7014,6.7014,6.7014,6.7014,6.7014,6.7014,6.7014,6.7014,6.7014,0.0,0.0,0.0,0.0,0.0,0.0,0.0,0.0,0.0,0.0,0.0,0.0,0.0,0.0,0.0,0.0,0.0,0.0,0.0,0.0,0.0,0.0,0.0,0.0,0.0,0.0,0.0,0.0,0.0,0.0,0.0,0.0,5.2748,0.0,0.0,0.0,0.0,0.0,0.0,0.0,6.0877,0.0,0.0,0.0,0.0,0.0,0.0,0.0,0.0,6.2351,6.2302,6.2203,6.2203,0.0,0.0,0.0,0.0,0.0,6.109,6.0997,6.082,6.0955,6.1595,6.179,0.0,0.0,0.0,0.0,0.0,0.0,6.5446,6.6069,0.0,0.0,6.5913,6.6179,6.683,6.7933,6.875,6.8849,6.9412,6.9772,6.9703,7.0253,7.0715,7.0946,7.154,7.1766,7.1492,7.2618,7.2939,7.2146,7.2138,7.2138,7.2138,7.0933,7.0332,7.0304,6.9087,6.7983,6.7014,6.7014,6.7014,6.7014,6.7014,6.7014,6.7014,6.7014,6.7014,6.7014,6.7014,6.7014,6.7014,6.7014,6.7014,6.7014,0.0,0.0,0.0,0.0,0.0,0.0,0.0,0.0,0.0,0.0,0.0,0.0,0.0,0.0,0.0,0.0,0.0,0.0,0.0,0.0,0.0,0.0,0.0,0.0,0.0,0.0,0.0,0.0,0.0,0.0,5.2687,5.2687,5.2995,0.0,0.0,0.0,0.0,0.0,0.0,0.0,6.0733,0.0,0.0,0.0,0.0,0.0,0.0,0.0,0.0,6.212,6.188,6.1193,6.1193,0.0,0.0,0.0,0.0,0.0,6.1534,6.1018,6.0,6.0799,6.11,0.0,0.0,0.0,0.0,0.0,0.0,0.0,0.0,6.6429,6.641,0.0,6.6445,6.7201,6.851,6.8691,6.8915,6.9578,6.9732,6.9637,6.9244,6.9318,6.9883,7.1136,7.1331,7.1655,7.2211,7.3366,7.3063,7.0947,7.0878,7.0878,7.0878,6.9693,6.9073,6.9058,6.7849,6.7183,6.7014,6.7014,6.7014,6.7014,6.7014,6.7014,6.7014,6.7014,6.7014,6.7014,6.7014,6.7014,6.7014,6.7014,6.7014,6.7014,0.0,0.0,0.0,0.0,0.0,0.0,0.0,0.0,0.0,0.0,0.0,0.0,0.0,0.0,0.0,0.0,0.0,0.0,0.0,0.0,0.0,0.0,0.0,0.0,0.0,0.0,0.0,0.0,0.0,5.2687,5.2718,5.3076,5.3667,5.4432,0.0,0.0,0.0,0.0,0.0,0.0,0.0,0.0,0.0,0.0,0.0,0.0,0.0,0.0,0.0,0.0,6.137,6.0997,6.0997,0.0,0.0,0.0,0.0,0.0,5.9903,6.0531,6.0934,6.0869,6.1604,0.0,0.0,0.0,0.0,0.0,0.0,0.0,0.0,6.6991,6.7321,6.7486,6.7837,6.8322,6.9,6.9212,6.9578,7.0307,6.9808,6.9502,6.9691,7.006,7.0311,7.031,7.189,7.245,7.1484,7.2565,7.2729,7.1593,7.0933,7.0599,7.0599,6.9406,6.8795,6.8781,6.8221,6.7638,6.7014,6.7014,6.7014,6.7014,6.7014,6.7014,6.7014,6.7014,6.7014,6.7014,6.7014,6.7014,6.7014,6.7014,6.7014,6.7014,0.0,0.0,0.0,0.0,0.0,0.0,0.0,0.0,0.0,0.0,0.0,0.0,0.0,0.0,0.0,0.0,0.0,0.0,0.0,0.0,0.0,0.0,0.0,0.0,0.0,0.0,5.2922,5.2922,5.2779,5.2779,5.2964,5.3629,5.4368,0.0,0.0,0.0,0.0,0.0,0.0,0.0,0.0,0.0,0.0,0.0,0.0,0.0,0.0,0.0,0.0,0.0,0.0,0.0,0.0,0.0,0.0,5.8398,5.8546,5.8985,5.9089,6.0422,6.1782,6.1841,0.0,0.0,0.0,0.0,0.0,0.0,0.0,0.0,0.0,6.7508,6.8382,6.8962,6.9132,6.9133,6.9068,6.94,6.9758,7.0038,6.9639,6.942,6.9585,7.0374,7.0559,6.9805,7.1735,7.2379,7.1086,7.1909,7.2272,7.2004,7.1072,7.0459,7.0177,6.9261,6.8665,6.837,6.837,6.7894,6.7014,6.7014,6.7014,6.7014,6.7014,6.7014,6.7014,6.7014,6.7014,6.7014,6.7014,6.7104,6.7224,6.7074,6.7104,6.7224,0.0,0.0,0.0,0.0,0.0,0.0,0.0,0.0,0.0,0.0,0.0,0.0,0.0,0.0,0.0,0.0,0.0,0.0,0.0,0.0,0.0,0.0,0.0,0.0,0.0,5.3968,5.3629,5.3629,5.2995,5.3025,5.3629,5.4306,5.4999,5.5636,0.0,0.0,0.0,0.0,0.0,0.0,0.0,0.0,0.0,0.0,0.0,0.0,0.0,0.0,0.0,0.0,0.0,0.0,0.0,0.0,5.8292,5.8223,5.7617,5.7727,6.0925,6.1306,6.1524,6.4571,6.4937,0.0,6.4197,6.4945,0.0,6.5293,0.0,0.0,0.0,6.7858,6.9248,6.9981,6.9704,6.9267,6.8974,6.9056,6.8776,6.7777,6.9102,6.9524,6.8014,6.8942,6.9864,7.0473,6.9705,7.0075,7.2165,7.2352,7.1896,7.0767,7.0641,7.0064,6.8942,6.8839,6.8221,6.7122,6.7122,6.7076,6.7014,6.7014,6.7014,6.7014,6.7014,6.7014,6.7014,6.7014,6.7014,6.7014,6.7014,6.7373,6.7868,6.7224,6.7403,6.7838,0.0,0.0,0.0,0.0,0.0,0.0,0.0,0.0,0.0,0.0,0.0,0.0,0.0,0.0,0.0,0.0,0.0,0.0,0.0,0.0,0.0,0.0,0.0,5.6262,5.6004,5.4903,5.4326,5.4326,5.406,5.406,5.4337,5.4995,0.0,0.0,0.0,0.0,0.0,0.0,0.0,0.0,0.0,0.0,0.0,0.0,0.0,0.0,0.0,0.0,0.0,0.0,5.9222,5.866,5.8326,5.82,5.8084,5.7507,5.8228,5.9386,6.0143,6.1618,6.3078,6.3727,6.4941,0.0,0.0,6.5148,6.4961,6.6575,6.6721,0.0,0.0,6.9321,6.9804,6.9877,6.9421,6.901,6.8818,6.8991,6.9394,7.0065,6.9924,6.999,7.0553,6.967,6.9498,7.0512,7.0878,7.1113,7.1265,7.1278,7.1058,7.0613,6.9879,6.9261,6.8795,6.8795,6.8177,6.7014,6.7744,6.7744,6.7014,6.7014,6.7014,6.7014,6.7014,6.7254,6.7613,6.7613,6.7882,6.8226,6.8226,6.8405,6.8585,6.8345,6.8405,6.86,0.0,0.0,0.0,0.0,0.0,0.0,0.0,0.0,0.0,0.0,0.0,0.0,0.0,0.0,0.0,0.0,0.0,0.0,0.0,0.0,0.0,0.0,0.0,5.6798,5.6798,5.5881,5.5241,5.5026,5.5026,5.5026,5.5026,0.0,0.0,0.0,0.0,0.0,0.0,0.0,0.0,0.0,0.0,0.0,0.0,0.0,0.0,0.0,0.0,0.0,0.0,0.0,5.8728,5.82,5.82,5.7991,5.775,5.7614,5.8867,6.0359,6.0786,6.2558,6.4255,6.4099,0.0,0.0,6.7009,6.6079,6.5543,6.7088,6.7257,6.7744,6.9837,0.0,7.0037,7.0016,6.9357,6.8718,6.8396,6.8754,6.9411,7.0412,6.9902,6.9927,7.1132,7.0103,6.955,7.0007,7.0808,7.1072,7.0613,7.0248,7.0035,7.0035,6.9232,6.8635,6.8221,6.8221,6.7804,6.7014,6.8046,6.8001,6.7014,6.7224,6.7313,6.7313,6.7553,6.7882,6.8301,6.8301,6.86,6.9004,6.9004,6.9123,6.9273,6.9064,6.9123,6.9273,0.0,0.0,0.0,0.0,0.0,0.0,0.0,0.0,0.0,0.0,0.0,0.0,0.0,0.0,0.0,0.0,0.0,0.0,0.0,0.0,0.0,0.0,0.0,5.6798,5.6798,5.6798,5.6447,5.5727,5.5727,5.5727,5.5727,5.6447,0.0,0.0,0.0,0.0,0.0,0.0,0.0,0.0,0.0,6.1235,0.0,0.0,0.0,0.0,0.0,0.0,0.0,0.0,5.82,5.8188,5.8188,5.7566,5.715,5.8822,5.9316,6.0068,6.3397,6.432,6.4726,6.6377,0.0,0.0,6.7478,6.7873,6.7571,6.66,6.7625,6.9022,6.9984,6.9911,6.9931,7.0554,6.9557,6.8454,6.7707,6.8233,6.8488,6.7882,6.8718,6.9178,6.8839,6.9879,7.0078,6.8898,6.8795,6.9319,7.0515,6.9449,6.8781,6.8781,6.8781,6.8192,6.7029,6.7014,6.7014,6.7014,6.7688,6.7643,6.7029,6.7703,6.8017,6.8047,6.8704,6.9004,6.9004,6.9004,6.9034,6.9034,6.9034,6.9423,6.9917,6.9243,6.9439,6.9917,0.0,0.0,0.0,0.0,0.0,0.0,0.0,0.0,0.0,0.0,0.0,0.0,0.0,0.0,0.0,0.0,0.0,0.0,0.0,0.0,0.0,0.0,0.0,0.0,0.0,0.0,5.6705,5.6477,5.6477,5.6477,0.0,0.0,0.0,5.6834,0.0,0.0,0.0,0.0,0.0,0.0,5.9816,5.9685,0.0,0.0,0.0,0.0,0.0,0.0,0.0,0.0,0.0,0.0,5.7211,5.7831,5.8664,5.9159,6.0961,6.3022,6.4035,6.5164,6.5998,6.581,6.643,6.7085,0.0,6.6295,0.0,0.0,6.8224,6.9252,6.8798,6.9667,7.0021,6.866,6.8987,6.9037,6.7957,6.8364,6.8871,6.9124,6.9228,6.9511,7.0021,6.8855,6.8606,6.9964,6.9276,6.8956,6.9319,6.8985,6.8414,6.7563,6.7533,6.7366,6.7014,6.7463,6.7703,6.7703,6.8391,6.8361,6.7748,6.8391,6.872,6.8704,6.8914,6.9273,6.9738,7.0171,7.035,7.035,7.035,7.047,7.062,7.041,7.047,7.059,0.0,0.0,0.0,0.0,0.0,0.0,0.0,0.0,0.0,0.0,0.0,0.0,0.0,0.0,0.0,0.0,0.0,0.0,0.0,0.0,5.6798,5.6798,5.6798,5.6798,0.0,5.6798,5.6798,0.0,0.0,0.0,0.0,0.0,0.0,5.6822,0.0,5.733,0.0,0.0,0.0,5.7746,5.9056,5.8818,5.7781,0.0,0.0,0.0,0.0,0.0,0.0,0.0,0.0,0.0,5.7664,5.8711,5.9959,6.0535,6.2398,6.4452,6.5099,6.6039,6.6698,6.6397,6.7115,6.7891,6.7904,6.712,6.6831,6.8429,6.9261,6.9598,6.9207,6.9694,6.9715,6.8472,6.8685,6.8777,6.8181,6.882,6.9571,7.0191,6.9684,6.9655,7.0515,6.8855,6.8118,6.9104,6.8927,6.8606,6.8118,6.8088,6.7759,6.7029,6.7254,6.7403,6.7403,6.8062,6.8391,6.8391,6.9079,6.9199,6.8826,6.9199,6.9393,6.9393,6.9662,6.9991,7.0396,7.0739,7.0889,7.0889,7.0889,7.0889,7.0889,7.0889,7.0889,7.0889,0.0,0.0,0.0,0.0,0.0,0.0,0.0,0.0,0.0,0.0,0.0,0.0,0.0,0.0,0.0,0.0,0.0,0.0,0.0,0.0,5.6798,5.6798,5.6798,5.6798,5.6798,0.0,0.0,0.0,0.0,0.0,0.0,0.0,5.6798,5.6798,0.0,5.6882,0.0,5.7793,5.7641,5.6966,5.8762,5.8398,5.7014,5.8807,0.0,0.0,0.0,0.0,0.0,0.0,0.0,0.0,5.9115,6.012,6.1267,6.2544,6.3701,6.4869,6.6388,6.6869,6.7072,6.7726,6.7996,6.8504,6.9969,6.951,6.9261,7.0916,7.0396,6.9865,7.0544,6.9933,6.9342,6.9477,6.8848,6.8326,6.8444,6.9369,7.024,7.077,6.9842,6.9453,7.0234,6.929,6.8162,6.7061,6.8028,6.8177,6.7075,6.7014,6.7044,6.7104,6.7673,6.8047,6.8107,6.875,6.9093,6.9093,6.9752,7.0067,7.0067,7.0067,7.0067,7.0097,7.0649,7.0889,7.0889,7.0889,7.0889,7.0889,7.0889,7.0889,7.0889,7.0889,7.0889,7.0889,0.0,0.0,0.0,0.0,0.0,0.0,0.0,0.0,0.0,0.0,0.0,0.0,0.0,0.0,0.0,0.0,0.0,0.0,0.0,0.0,5.6798,5.6798,5.6798,5.6798,5.6798,5.6798,0.0,0.0,0.0,0.0,0.0,0.0,0.0,5.6834,0.0,5.7495,5.687,5.7793,5.7641,5.6906,5.8049,5.7817,5.693,5.8072,5.7793,0.0,0.0,0.0,0.0,0.0,0.0,0.0,6.0085,6.1826,6.3584,6.3903,6.5068,6.6333,6.6682,6.7208,6.7692,6.7861,6.8819,6.9925,7.0872,7.0681,7.0433,7.0814,7.0018,6.9482,7.0249,7.0642,7.0535,6.9717,7.0563,7.0743,6.9018,6.8785,6.8844,6.8976,6.8327,6.7969,6.8148,6.7684,6.729,6.7029,6.7244,6.7274,6.7029,6.7014,6.7254,6.7778,6.7928,6.8241,6.8764,6.9439,6.9798,6.9798,7.041,7.0709,7.0709,7.0709,7.0709,7.0709,7.0829,7.0889,7.0889,7.0889,7.0889,7.0889,7.0889,7.0889,7.0889,7.0889,7.0889,7.0889,0.0,0.0,0.0,0.0,0.0,0.0,0.0,0.0,0.0,0.0,0.0,0.0,0.0,0.0,0.0,0.0,0.0,0.0,0.0,0.0,0.0,0.0,5.6798,5.6798,5.6798,5.6798,5.6798,0.0,0.0,0.0,0.0,0.0,0.0,5.7484,0.0,5.7519,5.7484,5.7519,5.7246,5.6846,5.733,5.7234,5.6858,5.7341,0.0,5.6798,5.6798,0.0,0.0,0.0,0.0,0.0,0.0,0.0,6.4744,6.3656,6.4962,6.6774,6.6628,6.7247,6.8064,6.8819,6.9857,7.0906,7.1672,7.1689,7.1764,7.2467,7.146,7.0685,7.1398,7.1844,7.1818,7.1006,7.1241,7.1086,6.9867,6.9439,6.9282,6.9282,6.8726,6.8357,6.8357,6.7532,6.7014,6.7014,6.7014,6.7134,6.7463,6.7463,6.7792,6.8451,6.878,6.9109,6.9498,7.0111,7.0426,7.044,7.0739,7.0889,7.0889,7.0889,7.0889,7.0889,7.0889,7.0889,7.0889,7.0889,7.0889,7.0889,7.0889,7.0889,7.0889,7.0889,7.0889,7.0889,0.0,0.0,0.0,0.0,0.0,0.0,0.0,0.0,0.0,0.0,0.0,0.0,0.0,0.0,0.0,0.0,0.0,0.0,0.0,0.0,0.0,0.0,5.6798,5.6798,5.6798,5.6798,5.6798,0.0,0.0,0.0,0.0,0.0,0.0,5.7933,0.0,0.0,5.8142,5.7199,5.6894,5.705,5.687,5.6798,0.0,0.0,0.0,0.0,5.7229,5.7662,5.8378,5.9369,0.0,0.0,0.0,0.0,6.5526,6.3623,6.4818,6.6722,6.6668,6.7444,6.8639,7.0037,7.0939,7.1639,7.2259,7.2597,7.3138,7.4345,7.327,7.2336,7.3214,7.321,7.2932,7.2389,7.1506,7.0767,7.0347,7.0084,6.9899,6.9987,6.9456,6.9078,6.9078,6.7879,6.706,6.7014,6.7104,6.7403,6.7987,6.8107,6.8481,6.9153,6.9708,7.0037,7.0157,7.0649,7.0889,7.0889,7.0889,7.0889,7.0889,7.0889,7.0889,7.0889,7.0889,7.0889,7.0889,7.0889,7.0889,7.0889,7.0889,7.0889,7.0889,7.0889,7.0889,7.0919,0.0,0.0,0.0,0.0,0.0,0.0,0.0,0.0,0.0,0.0,0.0,0.0,0.0,0.0,0.0,0.0,0.0,0.0,5.6798,0.0,0.0,5.6798,5.6798,5.6798,5.6798,5.6798,5.6798,0.0,0.0,0.0,0.0,0.0,0.0,5.7026,0.0,0.0,0.0,5.7199,5.727,5.7933,5.7115,5.6798,0.0,0.0,0.0,0.0,0.0,0.0,6.0107,6.106,6.1968,0.0,0.0,0.0,6.6593,6.6299,6.6289,6.6579,6.745,6.8789,7.0105,7.0928,7.1706,7.2293,7.2394,7.3409,7.4345,7.4547,7.3636,7.3284,7.5013,7.4516,7.3526,7.2486,7.2167,7.137,6.9381,6.8844,6.8741,6.905,6.8535,6.8149,6.8149,6.7729,6.732,6.7029,6.7523,6.7898,6.7987,6.8541,6.9153,6.9858,6.9947,7.0247,7.0769,7.0859,7.0889,7.0889,7.0889,7.0889,7.0889,7.0889,7.0889,7.0889,7.0889,7.0889,7.0889,7.0889,7.0889,7.0889,7.0889,7.0889,7.0889,7.0889,7.0889,7.0979,0.0,0.0,0.0,0.0,0.0,0.0,0.0,0.0,0.0,0.0,0.0,0.0,0.0,0.0,0.0,5.6785,5.6798,5.6798,5.6798,5.6798,5.6798,5.6798,5.6798,5.6798,5.6798,5.6798,0.0,0.0,0.0,0.0,0.0,5.7945,5.8249,0.0,0.0,0.0,0.0,0.0,0.0,0.0,0.0,0.0,0.0,0.0,0.0,0.0,0.0,0.0,0.0,6.2628,6.3253,6.3529,6.4518,0.0,0.0,0.0,6.5563,6.6766,6.8659,6.9547,7.0238,7.1582,7.2157,7.2631,7.3431,7.4142,7.4717,7.5122,7.4305,7.3766,7.4604,7.434,7.3624,7.2486,7.1764,7.1003,6.9982,6.9195,6.8742,6.8889,6.8358,6.8075,6.8209,6.7638,6.7394,6.78,6.7946,6.8347,6.9079,6.9409,6.9858,7.047,7.05,7.062,7.0889,7.0889,7.0889,7.0889,7.0889,7.0889,7.0889,7.0889,7.0889,7.0889,7.0889,7.0889,7.0889,7.0889,7.0889,7.0889,7.0889,7.0889,7.0949,7.1308,7.1457,7.1547,0.0,0.0,0.0,0.0,0.0,0.0,0.0,0.0,0.0,0.0,0.0,0.0,0.0,0.0,0.0,0.0,5.6798,5.6798,5.6798,5.6798,5.6798,5.6798,5.6798,5.6798,5.6798,5.6798,0.0,0.0,0.0,0.0,5.7163,5.7649,5.8466,0.0,5.8875,0.0,0.0,0.0,0.0,0.0,0.0,0.0,0.0,0.0,0.0,0.0,0.0,0.0,0.0,0.0,0.0,0.0,0.0,6.5425,0.0,0.0,0.0,6.735,6.9173,6.981,7.0287,7.1639,7.2251,7.2881,7.4286,7.475,7.495,7.5193,7.4576,7.3815,7.3219,7.3381,7.318,7.2047,7.1136,7.0487,7.0209,6.9425,6.8904,6.8904,6.8491,6.8268,6.8372,6.7835,6.7771,6.8437,6.8504,6.893,6.9947,7.0157,7.044,7.0889,7.0889,7.0889,7.0889,7.0889,7.0889,7.0889,7.0889,7.0889,7.0919,7.1068,7.1158,7.1128,7.0979,7.0889,7.0889,7.0889,7.0889,7.0889,7.0889,7.1009,7.1218,7.1713,7.2013,7.2235,0.0,0.0,0.0,0.0,0.0,0.0,0.0,0.0,0.0,0.0,0.0,0.0,0.0,0.0,5.6519,5.6773,5.6798,5.6798,5.6798,5.6798,5.6798,5.6798,5.6798,0.0,5.6798,0.0,0.0,0.0,0.0,0.0,5.8107,5.727,5.7863,5.9587,5.9532,5.951,5.951,0.0,0.0,0.0,0.0,0.0,0.0,0.0,0.0,0.0,0.0,0.0,0.0,0.0,0.0,0.0,0.0,0.0,0.0,0.0,0.0,0.0,6.8279,6.9403,7.0702,7.0831,7.1904,7.3167,7.4323,7.5122,7.5366,7.4315,7.4051,7.3355,7.1164,7.1656,7.202,7.0878,7.0641,7.0237,6.9136,6.8948,6.8904,6.8904,6.8875,6.8742,6.8416,6.8652,6.8713,6.8528,6.9374,6.9917,7.0007,7.053,7.0859,7.0889,7.0889,7.0889,7.0889,7.0889,7.0889,7.0889,7.0889,7.0889,7.0919,7.1547,7.1863,7.1803,7.1188,7.0889,7.0889,7.0889,7.0889,7.0889,7.0889,7.1278,7.1863,7.1893,7.2295,7.2937,0.0,0.0,0.0,0.0,0.0,0.0,0.0,0.0,0.0,0.0,0.0,0.0,0.0,5.6652,5.6701,5.6785,5.6798,5.6798,5.6798,5.6798,5.6798,5.6798,5.6798,5.6798,5.6798,0.0,0.0,0.0,0.0,5.7578,5.7318,5.818,5.8883,5.9412,5.9548,5.9868,6.0344,6.0946,0.0,0.0,0.0,0.0,0.0,0.0,0.0,0.0,0.0,0.0,0.0,0.0,0.0,0.0,0.0,0.0,0.0,0.0,0.0,6.7475,6.8456,6.8691,6.9033,7.0659,7.1991,7.3119,7.4001,7.4421,7.4477,7.4089,7.3419,7.2433,7.0892,7.0947,7.085,6.9698,6.9511,6.9383,6.8963,6.8904,6.8904,6.8904,6.8727,6.8778,6.9296,6.8926,6.9029,6.9954,7.001,7.0157,7.056,7.0769,7.0889,7.0889,7.0889,7.0889,7.0889,7.0889,7.0889,7.0919,7.1338,7.1534,7.1547,7.2235,7.2535,7.2535,7.2295,7.2189,7.2189,7.2189,7.2189,7.2189,7.2189,7.2309,7.2595,7.3013,7.3343,7.3642,0.0,0.0,0.0,0.0,0.0,0.0,0.0,0.0,0.0,0.0,0.0,0.0,0.0,0.0,5.6798,5.6798,5.6798,5.6798,5.6798,5.6798,5.6798,5.6798,5.6798,5.6798,5.6798,0.0,0.0,0.0,0.0,0.0,0.0,5.9142,6.0109,6.0607,6.0759,6.1077,0.0,0.0,0.0,6.3472,0.0,0.0,6.4958,0.0,0.0,0.0,0.0,0.0,0.0,0.0,0.0,0.0,0.0,0.0,0.0,0.0,0.0,0.0,6.8259,6.8384,6.8554,7.0252,7.1394,7.2449,7.3716,7.3701,7.3535,7.3937,7.2776,7.1493,7.0739,7.0308,6.9767,6.9005,6.8904,6.8904,6.8904,6.8904,6.8904,6.8904,6.8713,6.8855,6.9665,6.9276,6.9452,7.0634,7.0461,7.0486,7.0889,7.0889,7.0889,7.0889,7.0889,7.0889,7.0889,7.1128,7.1248,7.1248,7.1906,7.2235,7.2265,7.2924,7.3253,7.3253,7.3462,7.3313,7.2907,7.2907,7.2907,7.2907,7.2907,7.3027,7.3283,7.3732,7.4031,7.4317,0.0,0.0,0.0,0.0,0.0,0.0,0.0,0.0,0.0,0.0,0.0,0.0,0.0,0.0,0.0,5.6798,5.6798,5.6798,5.6798,5.6828,5.6828,5.6828,5.6859,5.6859,5.6859,0.0,0.0,0.0,0.0,0.0,0.0,0.0,6.1439,0.0,6.3248,6.3292,6.3379,0.0,6.4502,6.4266,0.0,6.4107,6.4028,0.0,0.0,0.0,6.6089,6.6939,0.0,0.0,0.0,0.0,0.0,0.0,0.0,0.0,0.0,0.0,0.0,0.0,0.0,6.956,7.008,7.1164,7.3406,7.3024,7.2566,7.3701,7.2167,7.0613,7.0641,6.9756,6.9006,6.8963,6.8933,6.8904,6.8904,6.8904,6.8904,6.8904,6.8904,6.9079,6.9395,6.9732,7.006,7.0411,7.0723,7.0889,7.0889,7.0889,7.0889,7.0889,7.0889,7.0919,7.0919,7.1577,7.1923,7.1953,7.2624,7.2937,7.2937,7.3612,7.3911,7.3988,7.4616,7.4168,7.2967,7.2967,7.2967,7.2967,7.2967,7.3373,7.3911,7.3911,7.4347,7.4886,0.0,0.0,0.0,0.0,0.0,0.0,0.0,0.0,0.0,0.0,0.0,0.0,0.0,0.0,0.0,5.6798,5.6798,5.6798,5.6798,5.726,5.7525,5.7525,5.7986,5.8264,5.8264,0.0,0.0,0.0,0.0,0.0,0.0,0.0,0.0,0.0,6.4709,6.5318,6.5789,6.5501,0.0,0.0,6.5292,6.5714,0.0,0.0,0.0,0.0,0.0,6.7393,0.0,0.0,6.8882,6.9435,0.0,0.0,0.0,0.0,0.0,0.0,6.8318,0.0,0.0,0.0,0.0,0.0,7.1383,7.1288,7.1383,7.2539,7.1601,7.0864,7.1669,7.1561,7.1099,7.0248,6.9425,6.8904,6.8904,6.8904,6.8904,6.8904,6.9335,6.9844,7.0447,7.0571,7.0866,7.15,7.1168,7.0889,7.0889,7.0889,7.0889,7.0889,7.0889,7.1128,7.1623,7.1803,7.2146,7.2624,7.3313,7.3612,7.3642,7.4317,7.4616,7.4616,7.4826,7.4676,7.4347,7.4347,7.4347,7.4347,7.4347,7.4467,7.4616,7.4616,7.4736,7.4886,0.0,0.0,0.0,0.0,0.0,0.0,0.0,0.0,0.0,0.0,0.0,0.0,0.0,0.0,0.0,0.0,5.7617,5.7617,5.7617,5.7986,5.8202,5.8202,5.9005,5.9425,0.0,0.0,0.0,0.0,0.0,0.0,0.0,0.0,0.0,0.0,0.0,0.0,0.0,0.0,0.0,0.0,6.664,0.0,0.0,6.7769,6.8004,0.0,0.0,0.0,6.9197,6.9643,7.0069,0.0,0.0,0.0,0.0,0.0,0.0,0.0,0.0,0.0,0.0,0.0,0.0,0.0,7.1099,7.0947,7.1178,7.3283,7.2447,7.1656,7.2789,7.2618,7.1926,7.0795,7.0038,6.9425,6.8977,6.8904,6.8996,6.9273,6.9659,7.0229,7.1031,7.1122,7.1359,7.1962,7.161,7.1291,7.1129,7.1,7.0889,7.0889,7.1158,7.1487,7.1893,7.2461,7.2924,7.3343,7.4001,7.4317,7.4347,7.486,7.5023,7.4903,7.504,7.5023,7.4886,7.4886,7.4886,7.4886,7.4886,7.4886,7.4886,7.4886,7.4886,7.4886,0.0,0.0,0.0,0.0,0.0,0.0,0.0,0.0,0.0,0.0,0.0,0.0,0.0,0.0,0.0,0.0,5.8818,5.8868,5.8949,5.9024,0.0,0.0,0.0,0.0,0.0,0.0,0.0,0.0,0.0,0.0,0.0,0.0,0.0,0.0,0.0,0.0,0.0,0.0,0.0,6.8132,6.8064,6.8504,0.0,0.0,6.9722,0.0,7.0443,7.0906,7.1537,7.1537,7.1336,0.0,0.0,0.0,0.0,0.0,6.9282,0.0,0.0,0.0,0.0,0.0,0.0,0.0,7.1452,7.1155,7.1301,7.4489,7.3412,7.2301,7.3573,7.2868,7.1778,7.0767,7.0599,7.0209,6.9049,6.8904,6.915,6.9813,6.9981,7.037,7.1368,7.1489,7.1655,7.2026,7.2039,7.1834,7.15,7.1132,7.1,7.1032,7.1596,7.1939,7.2078,7.3286,7.3941,7.4018,7.4616,7.4886,7.4903,7.5244,7.521,7.4903,7.5244,7.521,7.4886,7.4937,7.492,7.4886,7.4886,7.4886,7.4886,7.4886,7.4886,7.4886,0.0,0.0,0.0,0.0,0.0,0.0,0.0,0.0,0.0,0.0,0.0,0.0,0.0,0.0,0.0,0.0,0.0,5.9148,0.0,0.0,0.0,0.0,0.0,0.0,0.0,0.0,0.0,0.0,0.0,0.0,0.0,0.0,0.0,0.0,0.0,0.0,0.0,0.0,0.0,6.9699,6.9113,0.0,7.0003,7.0003,7.0804,7.1954,7.1954,7.2439,7.3082,0.0,7.3023,7.2833,0.0,0.0,0.0,0.0,0.0,0.0,0.0,0.0,0.0,0.0,0.0,0.0,6.9453,6.9398,6.9684,7.126,7.0501,7.0194,7.2247,7.1696,7.0864,7.0627,7.0599,7.0209,6.9049,6.8904,6.915,6.9813,7.0367,7.1029,7.1798,7.2119,7.233,7.2389,7.2136,7.1975,7.1881,7.1516,7.1451,7.177,7.1857,7.2294,7.3085,7.3643,7.4151,7.4706,7.4826,7.4886,7.4903,7.5244,7.521,7.4903,7.5244,7.521,7.492,7.5176,7.5142,7.4886,7.4886,7.4886,7.4886,7.4886,7.4886,7.4886,0.0,0.0,0.0,0.0,0.0,0.0,0.0,0.0,0.0,0.0,0.0,0.0,0.0,0.0,0.0,0.0,0.0,0.0,0.0,0.0,0.0,0.0,0.0,0.0,0.0,0.0,0.0,0.0,0.0,0.0,0.0,0.0,0.0,0.0,0.0,0.0,0.0,0.0,7.0635,7.1221,7.05,0.0,7.1357,7.1695,7.2304,7.2947,7.2947,7.3184,7.3556,7.3916,7.4052,0.0,0.0,7.4022,7.398,0.0,7.2022,7.1926,0.0,0.0,0.0,6.9034,0.0,0.0,0.0,6.9756,7.0067,7.1191,7.1003,7.0961,7.2087,7.1832,7.1246,7.0697,7.0599,7.0209,6.9049,6.9181,6.9643,7.0305,7.1028,7.1736,7.2414,7.2643,7.2765,7.2765,7.2451,7.2246,7.2246,7.1913,7.1843,7.2206,7.2469,7.3049,7.3877,7.4385,7.4897,7.5384,7.5431,7.5431,7.5401,7.5786,7.5752,7.5431,7.5803,7.5752,7.5448,7.56,7.5566,7.5414,7.5227,7.504,7.4903,7.5091,7.504,7.492,0.0,0.0,0.0,0.0,0.0,0.0,0.0,0.0,0.0,0.0,0.0,0.0,0.0,0.0,0.0,0.0,0.0,0.0,0.0,0.0,0.0,0.0,0.0,6.6035,0.0,0.0,0.0,0.0,0.0,0.0,0.0,0.0,0.0,0.0,0.0,0.0,0.0,0.0,0.0,7.2563,0.0,7.2214,7.2665,7.3285,7.359,7.3725,7.386,7.3928,7.403,7.4615,0.0,7.492,7.5506,7.5412,0.0,0.0,0.0,0.0,0.0,0.0,0.0,0.0,0.0,6.9136,0.0,0.0,0.0,7.1452,7.1642,7.1642,7.1642,7.1642,7.1329,7.0417,7.0279,7.0001,6.919,6.9659,7.0274,7.0828,7.1552,7.226,7.2937,7.2999,7.2999,7.2999,7.2765,7.2608,7.2608,7.2278,7.228,7.2708,7.3227,7.3875,7.4606,7.5217,7.5651,7.5907,7.597,7.5954,7.5923,7.6307,7.6305,7.594,7.6324,7.6305,7.6018,7.599,7.6021,7.5967,7.5634,7.5346,7.5125,7.5397,7.5278,7.5023,0.0,0.0,0.0,0.0,0.0,0.0,0.0,0.0,0.0,0.0,0.0,0.0,0.0,0.0,0.0,0.0,0.0,0.0,6.5024,0.0,0.0,0.0,0.0,0.0,6.8656,0.0,0.0,0.0,0.0,0.0,0.0,0.0,0.0,0.0,7.0759,0.0,0.0,0.0,7.3285,0.0,7.4006,7.3883,0.0,7.3454,7.3916,7.4547,7.5202,7.5439,7.5473,0.0,7.5574,7.5574,0.0,7.4294,0.0,0.0,0.0,0.0,0.0,0.0,0.0,0.0,6.8904,0.0,0.0,0.0,6.9122,6.9267,0.0,6.9296,6.9296,0.0,0.0,6.9107,6.9078,6.925,6.9719,7.0367,7.0828,7.089,7.1552,7.226,7.2937,7.2999,7.2999,7.2999,7.2968,7.2936,7.2936,7.264,7.2883,7.3794,7.3876,7.4382,7.538,7.5737,7.5967,7.6001,7.6001,7.5954,7.5923,7.6307,7.6305,7.6018,7.6355,7.6305,7.6034,7.6321,7.6255,7.6001,7.595,7.587,7.5789,7.5823,7.5621,7.5346,0.0,0.0,0.0,0.0,0.0,0.0,0.0,0.0,0.0,0.0,0.0,0.0,0.0,0.0,0.0,0.0,0.0,6.6607,0.0,0.0,0.0,0.0,0.0,0.0,0.0,0.0,0.0,0.0,6.953,0.0,0.0,0.0,0.0,0.0,7.2439,0.0,7.3082,0.0,7.4153,0.0,0.0,0.0,0.0,7.4774,7.4965,7.527,7.5574,7.5709,7.5592,0.0,7.5137,0.0,0.0,0.0,0.0,0.0,0.0,0.0,0.0,0.0,0.0,0.0,0.0,0.0,0.0,0.0,6.8904,0.0,0.0,0.0,0.0,0.0,0.0,0.0,6.9489,6.969,7.0398,7.1075,7.1552,7.1552,7.2137,7.2691,7.2968,7.2999,7.2999,7.2999,7.2999,7.2999,7.2999,7.3243,7.3655,7.4281,7.4666,7.5256,7.6076,7.6219,7.6388,7.657,7.657,7.657,7.6523,7.6719,7.6934,7.7152,7.7302,7.7547,7.7828,7.7949,7.7915,7.7811,7.7811,7.704,7.5987,7.6174,7.6007,7.5705,0.0,0.0,0.0,0.0,0.0,0.0,0.0,0.0,0.0,0.0,0.0,0.0,6.4943,6.6623,0.0,0.0,0.0,6.8816,0.0,0.0,6.9383,0.0,0.0,0.0,0.0,0.0,0.0,0.0,0.0,7.1379,7.1909,0.0,0.0,0.0,0.0,7.3793,7.386,0.0,7.4886,7.4953,7.5473,7.5709,7.5709,7.5709,7.5709,7.5709,7.5709,7.5709,7.5602,7.4991,7.535,0.0,7.3932,0.0,0.0,0.0,0.0,0.0,7.0688,0.0,0.0,0.0,0.0,0.0,0.0,0.0,0.0,0.0,0.0,0.0,0.0,0.0,0.0,0.0,0.0,7.0398,7.1105,7.1644,7.1998,7.1998,7.2598,7.2999,7.2999,7.2999,7.2999,7.2999,7.2999,7.2999,7.2999,7.3645,7.4196,7.463,7.5289,7.5949,7.6623,7.6637,7.6769,7.6999,7.6999,7.7091,7.7276,7.7276,7.7645,7.8292,7.8292,7.8599,7.9109,7.9109,7.9109,7.9109,7.9109,7.8191,7.6854,7.689,7.6649,7.6351,0.0,6.3685,0.0,0.0,0.0,0.0,0.0,0.0,0.0,0.0,0.0,0.0,0.0,0.0,0.0,0.0,0.0,6.8069,6.9058,0.0,7.0172,0.0,0.0,0.0,0.0,0.0,0.0,0.0,0.0,7.3421,7.3421,7.3454,0.0,0.0,7.4255,7.4547,7.4615,7.5337,7.5676,7.5676,7.5676,7.5709,7.5709,0.0,7.5709,7.5709,7.5709,0.0,0.0,7.6553,7.6835,7.6766,0.0,0.0,0.0,0.0,0.0,0.0,0.0,0.0,0.0,7.0828,0.0,0.0,0.0,0.0,7.0828,0.0,0.0,0.0,0.0,0.0,0.0,0.0,0.0,0.0,0.0,7.1998,7.1998,7.1998,7.2598,7.2999,7.2999,7.2999,7.2999,7.2999,7.2999,7.2999,7.2999,7.3645,7.4307,7.4968,7.5629,7.6306,7.6983,7.6983,7.6983,7.6999,7.6999,7.7338,7.7967,7.7967,7.8384,7.9047,7.9047,7.9078,7.9109,7.9109,7.9109,7.9109,7.9109,7.9061,7.8921,7.8213,7.7751,7.7344,0.0,0.0,0.0,0.0,0.0,0.0,0.0,6.7233,0.0,0.0,0.0,0.0,0.0,0.0,6.9312,0.0,0.0,7.04,7.1222,7.1515,0.0,0.0,0.0,7.2778,0.0,0.0,0.0,0.0,0.0,0.0,7.4221,7.4221,7.4492,0.0,0.0,7.5337,0.0,0.0,0.0,0.0,0.0,7.6804,7.7176,0.0,7.6487,7.6555,7.7041,7.721,7.7146,7.6668,7.6457,7.6146,7.4409,7.3592,7.3029,7.1813,7.1206,7.089,0.0,0.0,7.089,7.089,0.0,0.0,0.0,0.0,0.0,0.0,0.0,0.0,0.0,0.0,0.0,0.0,0.0,0.0,0.0,7.266,7.266,7.266,7.2845,7.2999,7.2999,7.2999,7.2999,7.2999,7.2999,7.2999,7.2999,7.4061,7.4769,7.4984,7.6076,7.6784,7.6999,7.6999,7.6999,7.6999,7.7461,7.7783,7.7998,7.8507,7.9109,7.9755,7.9755,8.0001,8.0419,8.0419,8.0419,8.0419,8.0419,8.0419,8.0296,7.9139,7.8655,7.8476,6.8233,0.0,0.0,0.0,0.0,0.0,0.0,0.0,0.0,0.0,6.9485,0.0,7.0229,0.0,7.1086,0.0,7.1819,7.2293,7.2766,7.2812,0.0,7.3488,7.3488,0.0,0.0,0.0,0.0,0.0,0.0,7.4525,7.4987,7.4987,7.5236,7.5709,7.5709,7.5709,7.5709,7.6014,7.6115,0.0,0.0,7.7582,0.0,0.0,7.7536,7.7333,7.7819,7.7988,7.7924,7.7451,7.6973,7.6314,7.463,7.3774,7.3166,7.1978,7.166,7.166,7.166,7.166,0.0,7.166,7.166,0.0,7.166,0.0,0.0,0.0,0.0,0.0,0.0,0.0,0.0,0.0,0.0,0.0,0.0,7.2999,7.2999,7.2999,7.2999,7.3185,7.36,7.3247,7.3169,7.36,7.3646,7.3555,7.3369,7.4826,7.557,7.5369,7.687,7.7474,7.6999,7.7458,7.7566,7.7368,7.7783,7.8244,7.8753,7.9246,7.9817,8.0463,8.0463,8.0696,8.1113,8.1113,8.1113,8.1113,8.1113,8.1113,8.099,7.9847,7.9293,7.9075,0.0,0.0,0.0,0.0,6.9214,0.0,0.0,0.0,6.9519,0.0,7.0342,7.0917,7.2293,7.2462,7.2744,7.3454,7.3488,0.0,7.3556,7.3556,0.0,0.0,7.359,7.359,7.359,0.0,0.0,0.0,0.0,0.0,7.5709,7.5709,7.5709,7.5743,7.5743,7.5777,7.5845,7.6623,7.6961,7.7063,7.7785,7.809,7.8191,7.8889,7.8686,7.8056,7.809,7.809,7.8225,7.8911,7.8339,7.7219,7.6795,7.577,7.4528,7.3323,7.2969,7.2984,7.2922,7.2906,7.2906,7.2906,7.2906,0.0,0.0,0.0,7.2999,0.0,0.0,0.0,0.0,0.0,0.0,0.0,0.0,0.0,0.0,0.0,7.2999,7.2999,7.2999,7.3431,7.4609,7.3737,7.3539,7.4639,7.4756,7.4579,7.4016,7.5713,7.6479,7.6032,7.7903,7.8296,7.7016,7.8264,7.8592,7.7998,7.8029,7.8784,8.0077,8.0124,8.0494,8.1113,8.1113,8.1113,8.1113,8.1113,8.1113,8.1113,8.1113,8.1113,8.1004,8.0371,7.9755,7.9201,6.98,7.0804,7.1718,0.0,7.1018,7.0094,0.0,0.0,0.0,0.0,7.2642,7.2812,7.3184,7.3218,7.3285,7.3488,7.3488,0.0,0.0,0.0,0.0,7.5112,7.5134,7.5134,7.5134,7.5303,0.0,7.5439,0.0,0.0,7.5709,7.5709,7.6014,7.6589,7.6589,7.6893,7.7413,7.7616,7.8044,7.8539,7.8742,7.916,7.9667,7.9837,7.9464,7.8889,7.9431,7.9634,7.9667,7.987,7.8742,7.7265,7.7171,7.5924,7.4267,7.3048,7.2713,7.2521,7.1671,7.1444,7.1444,7.1444,7.186,7.226,7.226,0.0,0.0,0.0,0.0,0.0,0.0,0.0,0.0,0.0,0.0,0.0,0.0,0.0,0.0,7.2999,7.2999,7.3138,7.3447,7.3995,7.4101,7.3493,7.428,7.4579,7.4016,7.4947,7.5643,7.6,7.7903,7.8296,7.7016,7.8264,7.8592,7.7998,7.8569,7.9277,8.0124,8.0634,8.0942,8.1113,8.1113,8.1113,8.1113,8.1113,8.1113,8.1113,8.1113,8.1113,8.1082,8.0929,8.0727,8.059,7.156,0.0,0.0,7.3421,0.0,0.0,7.2191,7.2597,0.0,7.3454,7.3488,0.0,7.3962,7.3984,7.4119,7.4436,7.4469,0.0,0.0,0.0,0.0,7.5676,7.5709,7.5709,7.5709,7.5709,0.0,7.6217,0.0,0.0,7.6702,7.6702,7.6939,7.7379,7.7379,7.7616,7.8022,7.8348,7.8923,7.96,7.96,7.9837,0.0,8.0547,8.0412,8.0175,8.0885,8.0031,7.8504,7.8504,7.7477,7.6196,7.6196,7.5517,7.4486,7.3488,7.3216,7.3003,7.2074,7.1813,7.1813,7.1813,7.2137,7.2352,7.206,7.2306,7.2475,0.0,7.206,7.2198,0.0,0.0,0.0,0.0,0.0,0.0,0.0,0.0,0.0,0.0,7.2999,7.2999,7.2999,7.4101,7.452,7.3828,7.4889,7.5495,7.5278,7.6116,7.7085,7.8061,7.9154,7.9113,7.7847,7.8816,7.9047,7.8476,7.9201,7.9878,8.0542,8.0911,8.1113,8.1113,8.1113,8.1113,8.1113,8.1113,8.1113,8.1113,8.1113,8.1113,8.1113,8.1113,8.1113,8.1113,0.0,0.0,0.0,0.0,0.0,0.0,0.0,7.3725,0.0,7.3759,0.0,7.4018,7.4683,7.475,7.4987,7.5642,0.0,7.5709,7.5709,7.5709,7.5743,7.5845,7.5845,7.5912,7.598,7.598,0.0,0.0,0.0,0.0,7.7988,7.7988,7.8056,7.8157,7.8157,7.8191,7.8327,7.9092,7.9769,8.0344,8.0445,8.0479,8.0547,8.1202,8.1372,8.1372,8.2035,8.0037,7.7061,7.6905,7.6318,7.5603,7.5252,7.5296,7.5247,7.4344,7.4096,7.3941,7.3199,7.2999,7.2999,7.2999,7.306,7.2968,7.2383,7.2337,7.2198,7.1567,7.1444,7.1598,7.2167,0.0,0.0,0.0,0.0,0.0,0.0,0.0,0.0,0.0,0.0,0.0,7.2999,7.4101,7.4726,7.4579,7.5742,7.6615,7.6884,7.7987,7.9263,8.0766,8.0799,8.0233,7.9053,7.9606,7.9673,7.9232,7.98,8.0432,8.1113,8.1113,8.1113,8.1113,8.1113,8.1113,8.1113,8.1113,8.1113,8.1113,8.1113,8.1113,8.1113,8.1113,8.1113,8.1113,0.0,0.0,0.0,0.0,0.0,7.5303,7.5303,7.4796,7.4627,7.5236,7.5303,7.5371,7.5506,7.5506,7.5574,7.5676,7.5709,0.0,0.0,0.0,0.0,7.6657,7.669,7.6961,7.7582,7.7582,7.7684,0.0,0.0,0.0,7.7988,7.7988,7.8314,7.8911,7.8911,7.9261,7.987,8.0593,8.0999,8.1169,8.1765,8.2022,8.2022,8.2171,8.1832,8.1304,8.1439,8.1412,8.1181,8.0114,7.9935,7.9802,7.769,7.735,7.7325,7.5185,7.4559,7.4348,7.3278,7.2999,7.2999,7.2999,7.343,7.3783,7.3676,7.4076,7.443,7.4307,7.4276,7.4153,7.3738,0.0,0.0,0.0,0.0,0.0,0.0,0.0,0.0,0.0,0.0,7.2999,7.2999,7.4101,7.4385,7.3401,7.495,7.6212,7.687,7.7623,7.8899,8.0736,8.0799,8.0458,7.9716,7.9827,7.9924,7.994,8.0046,8.0432,8.1113,8.1113,8.1113,8.1113,8.1113,8.1113,8.1113,8.1113,8.1113,8.1113,8.1113,8.1113,8.1113,8.1113,8.1113,8.1113,0.0,0.0,0.0,0.0,0.0,0.0,7.6251,7.6014,7.5765,7.5709,7.5709,7.5709,7.5709,7.6082,7.6318,7.6318,7.6669,7.6906,7.6906,7.6906,7.7075,7.7447,7.7481,0.0,7.7988,7.7988,7.8191,7.8585,0.0,0.0,0.0,7.9139,7.9329,7.9701,8.0073,8.0648,8.1346,8.1731,8.1866,8.19,8.2259,8.2395,8.2428,8.2813,8.2746,8.2488,8.2881,8.324,8.3103,8.0388,7.9684,7.9782,7.8547,7.884,7.9154,7.6989,7.6369,7.6017,7.4453,7.4046,7.4046,7.4046,7.4276,7.443,7.4076,7.4245,7.4368,7.403,7.3968,7.3968,7.3999,7.3768,0.0,0.0,0.0,0.0,0.0,0.0,0.0,0.0,0.0,0.0,0.0,7.5165,7.5493,7.4573,7.5309,7.6856,7.9252,7.9052,8.0086,8.2684,8.182,8.118,8.0891,8.0983,8.0723,8.0124,8.1166,8.1831,8.2129,8.2129,8.2129,8.2129,8.2129,8.1737,8.1134,8.1856,8.172,8.1182,8.1873,8.1703,8.1113,8.1113,8.1113,8.1113,0.0,7.6082,0.0,0.0,7.6183,7.6386,7.7029,7.713,7.6906,7.6263,7.6183,7.6183,7.6183,7.6758,7.713,7.713,7.765,7.7988,7.7988,7.7988,7.8056,7.8225,7.8225,7.8327,7.8462,7.8462,7.8754,0.0,0.0,0.0,8.0209,0.0,8.0682,8.0682,8.1257,8.1866,8.2395,8.2564,8.2631,8.2631,8.28,8.2868,8.2936,8.3511,8.3727,8.3828,8.4377,8.4433,8.3692,8.048,7.9498,7.9538,7.9001,7.9555,8.0042,7.8247,7.7716,7.7356,7.5827,7.5446,7.5446,7.5446,7.5446,7.5292,7.4769,7.4645,7.4491,7.3968,7.3738,7.3799,7.4338,7.4615,0.0,0.0,0.0,0.0,0.0,0.0,0.0,0.0,0.0,0.0,7.5855,7.6475,7.6971,7.7108,7.6587,7.7733,8.1124,8.0489,8.1295,8.413,8.2385,8.1599,8.2049,8.1793,8.1342,8.0755,8.2347,8.3097,8.3097,8.3097,8.3262,8.3508,8.3229,8.265,8.2028,8.3097,8.2916,8.2045,8.313,8.2883,8.1943,8.1943,8.1943,8.1943,0.0,0.0,0.0,7.7785,7.7785,7.7819,7.7887,7.7887,7.7887,7.7785,7.7785,7.7785,7.7785,7.7853,7.7887,7.7887,7.7954,7.7988,7.7988,7.7988,7.8293,7.8978,7.9012,7.9317,7.9972,8.0006,8.004,0.0,0.0,8.0796,8.0242,0.0,8.2192,8.2192,8.2259,8.2327,8.2428,8.3118,8.3389,8.3456,8.412,8.4377,8.4411,8.4478,8.4492,8.4512,8.458,8.3852,8.2825,8.2428,8.2316,8.1933,7.9614,7.8972,7.8833,7.7478,7.7072,7.704,7.6847,7.6814,7.6814,7.6814,7.6814,7.6814,7.6722,7.6722,7.6691,7.663,7.6137,7.5754,7.5799,7.4861,7.4091,0.0,0.0,0.0,0.0,0.0,0.0,0.0,0.0,0.0,0.0,7.7504,7.8071,8.0941,7.9008,7.8383,7.9891,8.0434,8.1367,8.283,8.1041,8.0994,8.2873,8.1168,8.1138,8.2821,8.3,8.3097,8.3097,8.3097,8.3768,8.4854,8.3622,8.3719,8.4744,8.487,8.4839,8.4744,8.487,8.4839,8.4728,8.4728,8.4728,8.4728,7.7548,7.7785,7.7988,7.7988,7.7988,7.8157,7.8585,7.8653,7.8822,7.9261,7.8563,7.7988,7.7988,7.8394,7.8653,7.8653,7.9058,7.9342,7.9342,7.9342,7.9431,7.9769,8.0175,8.0547,8.0864,8.1291,8.1528,0.0,0.0,0.0,0.0,8.2124,8.2631,8.305,8.305,8.3308,8.3781,8.4539,8.489,8.4958,8.5675,8.598,8.598,8.598,8.598,8.598,8.598,8.5647,8.5227,8.5227,8.3574,8.1374,8.0382,8.005,7.9791,7.8502,7.8136,7.7992,7.7228,7.6999,7.6999,7.6999,7.6999,7.6999,7.6999,7.6999,7.6999,7.6999,7.6784,7.6599,7.6599,7.6168,7.5799,7.5799,0.0,0.0,0.0,0.0,0.0,0.0,0.0,0.0,0.0,7.8397,7.8647,7.9916,7.872,7.8958,8.1412,8.1535,8.1733,8.2206,8.3093,8.3569,8.3618,8.3275,8.3497,8.4299,8.4299,8.4728,8.5511,8.5511,8.5804,8.6232,8.4886,8.4602,8.5168,8.5972,8.5834,8.5184,8.5988,8.5819,8.5012,8.4219,8.3914,8.3784,7.8314,7.8496,7.8665,7.8665,7.8665,7.8834,7.935,7.9621,7.9938,8.0445,7.9815,7.9139,7.8699,7.9295,7.9769,7.9769,8.0412,8.0851,8.0851,8.0851,8.0851,8.0851,8.1372,0.0,8.1629,8.2137,8.2395,8.2395,8.2631,0.0,0.0,8.2834,8.3578,8.4505,8.4505,8.4796,8.5303,8.5892,8.6129,8.6176,8.669,8.6893,8.6893,8.6893,8.6893,8.6893,8.6893,8.6653,8.6329,8.6329,8.3924,8.1024,8.1789,8.1236,8.0198,7.97,7.9274,7.8762,7.7848,7.7615,7.7615,7.7615,7.7461,7.729,7.729,7.7153,7.6999,7.6999,7.7295,7.7572,7.7572,7.7572,7.7572,7.7572,0.0,0.0,0.0,0.0,0.0,0.0,7.8801,7.9175,7.9928,7.9668,7.9856,8.0838,8.0148,8.0471,8.2383,8.2195,8.224,8.2779,8.451,8.5182,8.4637,8.4936,8.5309,8.5696,8.5696,8.6186,8.712,8.7522,8.7459,8.7076,8.6504,8.6277,8.6338,8.7297,8.7135,8.6323,8.6897,8.6504,8.5542,8.4171,8.3946,8.4139,7.908,7.9667,8.0175,8.0175,8.0175,8.0175,8.0175,8.0796,8.127,8.127,8.19,8.1786,8.0344,8.083,8.127,8.127,8.1934,8.2361,8.2361,8.2361,8.2361,0.0,0.0,8.2395,8.2395,8.2395,8.2395,8.2395,0.0,0.0,8.2428,8.387,8.5391,8.6859,8.6859,8.6859,8.6859,8.6893,8.6893,8.6893,8.6893,8.6893,8.6893,8.6893,8.6893,8.6893,8.6893,8.6105,8.5009,8.5009,8.3257,8.1554,8.411,8.2292,7.9383,8.0673,8.0149,7.9095,7.9078,7.9078,7.9078,7.9078,7.8538,7.7998,7.7998,7.7492,7.6999,7.6999,7.7992,7.888,7.888,7.888,7.888,7.888,0.0,0.0,0.0,0.0,0.0,0.0,8.0427,7.9882,8.2387,8.1505,8.2152,8.5472,8.4556,8.3307,8.2067,8.1992,8.2901,8.489,8.4428,8.4741,8.6056,8.5429,8.5773,8.7076,8.7076,8.709,8.715,8.8486,8.8338,8.7164,8.8467,8.9044,8.9044,8.9058,8.9058,8.8931,8.7625,8.709,8.6927,8.5572,8.5911,8.7046,8.0492,8.0796,8.1101,8.1629,8.1684,8.1684,8.1684,8.19,8.2069,8.2069,8.2259,8.2225,8.1752,8.19,8.2069,8.2069,8.2259,8.2395,8.2395,8.2395,8.2395,8.2395,8.2881,8.3389,8.387,8.4437,8.4945,8.5473,8.5709,8.5709,8.5473,8.5946,8.642,8.6893,8.6893,8.6893,8.6927,8.7448,8.7651,8.7685,8.8192,8.8409,8.8409,8.8409,8.8409,8.8409,8.8409,8.8138,8.7794,8.7794,8.6615,8.5331,8.6173,8.3062,7.9179,7.9616,7.9447,7.9109,7.9109,7.9109,7.9109,7.9109,7.8924,7.8753,7.8753,7.8585,7.8432,7.8432,7.875,7.8893,7.8396,7.9017,7.9416,7.8974,7.93,0.0,8.068,0.0,0.0,0.0,8.0329,8.0617,8.328,8.1982,8.2173,8.5036,8.4079,8.3578,8.4006,8.4511,8.4665,8.44,8.6406,8.7258,8.6803,8.657,8.7135,8.8438,8.7551,8.7595,8.8501,8.8917,8.8875,8.8501,8.8917,8.8586,8.78,8.8714,8.8036,8.6413,8.6912,8.6534,8.5572,8.4219,8.4026,8.4235,8.1629,8.171,8.1866,8.2327,8.2395,8.2395,8.2395,8.2631,8.2902,8.3206,8.3477,8.3795,8.4052,8.4086,8.3849,8.3274,8.3511,8.3795,8.4052,8.4086,8.4086,8.4086,8.4525,8.4999,8.5473,8.596,8.6433,8.6893,8.6893,8.7028,8.7299,8.7299,8.7482,8.7719,8.7719,8.7719,8.7753,8.8226,8.8395,8.8443,8.8917,8.9086,8.9086,8.9086,8.9086,8.912,8.9424,8.9526,8.956,8.983,8.9062,8.7948,8.7948,8.5268,8.1954,8.0903,8.0257,7.9864,7.9864,7.9864,7.9864,7.9864,7.9663,7.9417,7.917,7.9109,7.9109,7.9109,7.9466,7.9677,7.921,7.9786,8.0349,8.0422,8.0698,8.1278,8.2251,0.0,8.2384,0.0,0.0,8.2469,8.4141,8.3271,8.3539,8.5945,8.5378,8.5423,8.6474,8.6266,8.6071,8.5995,8.8003,8.87,8.7858,8.7843,8.8267,8.9072,8.7741,8.7268,8.761,8.761,8.761,8.761,8.761,8.7401,8.7135,8.7445,8.6912,8.5834,8.5665,8.509,8.4171,8.2833,8.2682,8.2982,8.2462,8.2462,8.2496,8.2631,8.2631,8.2631,8.2699,8.3287,8.3998,8.4661,8.5418,8.6142,8.6825,8.6893,8.6352,8.4952,8.5486,8.6176,8.6859,8.6893,8.6893,8.6893,8.6893,8.6927,8.6961,8.6961,8.6995,8.7062,8.7062,8.7414,8.8091,8.8091,8.8443,8.9086,8.9086,8.9086,8.9086,8.9154,8.9187,8.9187,8.9221,8.9255,8.9255,8.9255,8.9255,8.9357,9.0019,9.0275,9.0377,9.1068,9.0462,8.9444,8.932,8.8427,8.6904,8.4132,8.2427,8.142,8.1286,8.122,8.1203,8.1131,8.0634,8.0001,7.9386,7.9316,7.9384,7.9384,8.0338,8.1138,8.1059,8.1075,8.1491,8.2786,8.2074,8.2245,8.4778,8.5144,8.5144,8.5144,8.5105,8.5123,8.521,8.5171,8.5949,8.794,8.8091,8.8375,8.9052,8.7324,8.7156,8.9024,8.9086,8.9086,8.9086,8.9086,8.9044,8.8945,8.761,8.6307,8.5106,8.5106,8.5153,8.5246,8.5246,8.5957,8.7016,8.585,8.6003,8.6699,8.4315,8.3327,8.3081,8.172,8.2042,8.3097,8.3118,8.3253,8.3625,8.4789,8.4992,8.5182,8.5743,8.598,8.6149,8.6318,8.6521,8.669,8.6893,8.6893,8.6961,8.7177,8.6859,8.669,8.6893,8.6893,8.6893,8.6893,8.6893,8.7164,8.7719,8.7753,8.8023,8.8578,8.8578,8.868,8.8849,8.8849,8.8917,8.9086,8.9086,8.9086,8.912,8.9681,8.9951,8.9985,9.056,9.0778,9.0778,9.0778,9.0778,9.0797,9.0966,9.1034,9.1068,9.1237,9.1083,9.0657,8.9625,8.9076,8.8386,8.6126,8.523,8.4649,8.3042,8.2648,8.2381,8.1358,8.0973,8.0819,8.0665,8.1423,8.2146,8.2146,8.2393,8.245,8.1913,8.1802,8.2031,8.2868,8.3561,8.4555,8.6217,8.646,8.646,8.646,8.603,8.6176,8.7198,8.6864,8.7235,8.8731,8.8849,8.8917,8.9086,8.8664,8.8602,8.9086,8.9086,8.9086,8.9086,8.9086,8.8586,8.7566,8.6216,8.5418,8.5106,8.5106,8.5665,8.6609,8.6609,8.6822,8.715,8.7858,8.7135,8.5619,8.6003,8.5542,8.4459,8.313,8.2816,8.2949,8.4911,8.5046,8.5317,8.6163,8.6298,8.6433,8.6825,8.6893,8.7028,8.738,8.7414,8.7516,8.7854,8.7922,8.8057,8.8477,8.782,8.755,8.7888,8.7922,8.7922,8.7922,8.7922,8.8091,8.8511,8.8511,8.8714,8.9086,8.9458,8.9579,8.9627,8.9966,9.0101,9.0101,9.0101,9.0101,9.0135,9.0527,9.0696,9.0729,9.1135,9.1305,9.1305,9.1305,9.1305,9.1338,9.1677,9.1798,9.188,9.2232,9.2368,9.2218,9.1487,9.0823,8.9997,8.8511,8.6983,8.5645,8.5131,8.456,8.3895,8.3168,8.298,8.273,8.1762,8.2117,8.2537,8.2242,8.265,8.2987,8.2608,8.3033,8.372,8.4726,8.5456,8.6367,8.7721,8.7922,8.7922,8.7922,8.7617,8.7711,8.8441,8.8222,8.831,8.9044,8.9086,8.9086,8.9086,8.9086,8.8799,8.8209,8.877,8.8832,8.8195,8.8785,8.8611,8.7587,8.6846,8.6364,8.6125,8.6125,8.6518,8.7185,8.7185,8.7537,8.8114,8.8234,8.7765,8.7031,8.7154,8.6752,8.603,8.5278,8.5002,8.4904,8.6758,8.6893,8.6927,8.7062,8.7062,8.7096,8.7211,8.7231,8.7448,8.8091,8.8158,8.8409,8.9018,8.9086,8.9154,8.9255,8.87,8.8531,8.9052,8.9086,8.9086,8.9086,8.9221,8.9255,8.9255,8.939,8.9424,8.9424,9.0053,9.0391,9.0377,9.1,9.1305,9.1305,9.1305,9.1305,9.1319,9.1406,9.1474,9.1474,9.1609,9.1643,9.1643,9.1643,9.1643,9.1711,9.2373,9.2575,9.2677,9.3383,9.3586,9.3556,9.3364,9.2453,9.1315,9.0404,8.8085,8.6027,8.7018,8.6417,8.5523,8.5523,8.5523,8.5029,8.3286,8.3041,8.3039,8.2464,8.3233,8.4038,8.4038,8.4699,8.572,8.7062,8.7171,8.7581,8.8917,8.9086,8.9086,8.9086,8.9086,8.9086,8.9086,8.9086,8.9086,8.9086,8.9086,8.9154,8.9255,8.9255,8.8702,8.7481,8.8516,8.8591,8.76,8.8626,8.8861,8.8364,8.8168,8.7807,8.7291,8.7291,8.7403,8.7594,8.7594,8.8349,8.9519,8.8364,8.8551,8.9504,8.8333,8.7894,8.7879,8.7673,8.7594,8.7562,8.6893,8.6893,8.7096,8.7719,8.782,8.8023,8.8646,8.8748,8.8815,8.8917,8.8917,8.8984,8.9086,8.9086,8.9357,8.9985,8.9918,8.9647,8.912,8.9086,8.9086,8.9086,8.9681,9.0019,9.0019,9.0628,9.0966,9.0966,9.1068,9.1135,9.1135,9.1237,9.1305,9.1305,9.1305,9.1305,9.1338,9.1967,9.2237,9.2305,9.2962,9.3248,9.3248,9.3248,9.3248,9.3248,9.3383,9.3417,9.3451,9.3552,9.3586,9.3394,9.2209,9.1665,9.1243,8.987,8.9089,8.8438,8.7486,8.7098,8.6969,8.6969,8.6969,8.6889,8.6581,8.7384,8.8152,8.8054,8.8191,8.8363,8.8363,8.7078,8.6467,8.7822,8.7503,8.7581,8.8917,8.9086,8.9086,8.9086,8.9086,8.9086,8.9086,8.9086,8.9086,8.9086,8.9086,8.9357,9.0019,9.0019,8.9697,8.8988,8.9067,8.9292,8.9701,8.9409,8.9205,8.9108,8.7967,8.7401,8.7291,8.7291,8.791,8.8984,8.8984,8.9745,9.0982,9.0759,9.0788,9.0982,9.0759,9.0686,9.0554,8.9429,8.8984,8.8831,8.7989,8.8091,8.8206,8.8545,8.8578,8.8714,8.9052,8.9086,8.9255,8.9647,8.9681,8.985,9.0236,9.027,9.0425,9.0763,9.0797,9.0662,9.0304,9.027,9.027,9.027,9.0594,9.0797,9.0797,9.1135,9.1305,9.1305,9.1711,9.1899,9.1899,9.2319,9.2537,9.2537,9.2537,9.2537,9.2571,9.2895,9.3064,9.3064,9.3451,9.3586,9.3586,9.3586,9.3586,9.3586,9.3586,9.3586,9.3586,9.3586,9.3586,9.3483,9.2834,9.2099,9.1229,8.9741,8.9283,8.9153,8.8522,8.8909,8.9372,8.8571,8.8989,8.9258,8.8084,8.8323,8.8651,8.8307,8.8815,8.9289,8.9289,8.91,8.9156,8.9768,8.9588,8.9591,9.0185,9.027,9.027,9.027,9.027,9.027,9.027,9.027,9.027,9.027,9.027,9.0439,9.0763,9.0797,9.064,9.0388,8.9601,8.9729,9.0783,9.0518,9.056,9.0947,9.0345,9.0271,9.07,9.07,9.102,9.1629,9.1629,9.1975,9.2537,9.2537,9.2537,9.2537,9.2537,9.2537,9.2464,9.1837,9.1629,9.1539,8.8984,8.9086,8.9086,8.9086,8.9255,8.9357,8.9357,8.9492,8.983,9.0391,9.0459,9.0662,9.1237,9.1305,9.1372,9.1541,9.1575,9.1643,9.1812,9.1826,9.1677,9.1305,9.1474,9.1643,9.1826,9.1826,9.1826,9.1826,9.2421,9.2677,9.2677,9.33,9.3586,9.3586,9.3586,9.3586,9.3586,9.3586,9.3586,9.3586,9.3586,9.3586,9.3586,9.3586,9.3586,9.3586,9.3586,9.3586,9.3586,9.3586,9.3586,9.3542,9.3212,9.2377,9.1229,8.9741,8.9052,8.8787,8.8787,9.0129,9.1244,9.0097,9.0912,9.1563,8.9904,8.9535,8.9388,8.8862,8.959,9.0308,9.0308,9.0983,9.1575,9.1575,9.1406,9.1305,9.1305,9.1305,9.1305,9.1305,9.1305,9.1305,9.1305,9.1305,9.1305,9.1305,9.1305,9.1372,9.1541,9.1575,9.1643,9.1826,9.0668,9.0523,9.1561,9.1744,9.2116,9.2677,9.2677,9.2996,9.3586,9.3586,9.3586,9.3586,9.3586,9.3586,9.3586,9.3586,9.3586,9.3586,9.3586,9.3586,9.3586,9.3586,9.3586,9.3586,8.9086,8.9086,8.9086,8.9086,8.9681,9.0106,9.0106,9.0696,9.1169,9.1203,9.1203,9.1237,9.1271,9.1305,9.1575,9.2271,9.2339,9.2643,9.3383,9.3417,9.2774,9.1372,9.1933,9.2677,9.3417,9.3417,9.3417,9.3417,9.3484,9.3518,9.3518,9.3586,9.3586,9.3586,9.3586,9.3586,9.3586,9.3586,9.3586,9.3586,9.3586,9.3586,9.3586,9.3586,9.3586,9.3586,9.3586,9.3586,9.3586,9.3586,9.3586,9.3379,9.2068,9.1572,9.1229,8.9741,8.8384,8.736,8.736,8.9381,9.1463,9.1369,9.2407,9.339,9.3233,9.3204,9.3185,9.3151,9.3225,9.3284,9.3284,9.2768,9.2339,9.2339,9.1744,9.1305,9.1305,9.1305,9.1305,9.1305,9.1305,9.1305,9.1305,9.1305,9.1305,9.1305,9.1305,9.1609,9.2257,9.2339,9.2643,9.3417,9.2589,9.2203,9.2339,9.3064,9.3451,9.3518,9.3518,9.3552,9.3586,9.3586,9.3586,9.3586,9.3586,9.3586,9.3586,9.3586,9.3586,9.3586,9.3586,9.3586,9.3586,9.3586,9.3586,9.3586,8.9782,9.0169,9.0473,9.0473,9.0696,9.0865,9.0865,9.1102,9.1474,9.1933,9.1967,9.2184,9.2672,9.274,9.2841,9.3131,9.3131,9.3267,9.3586,9.3586,9.3349,9.274,9.2996,9.3281,9.3586,9.3586,9.3586,9.3586,9.3586,9.3586,9.3586,9.3586,9.3586,9.3586,9.3586,9.3586,9.3586,9.3586,9.3586,9.3586,9.3586,9.3586,9.3586,9.3586,9.3586,9.3586,9.3586,9.3586,9.3586,9.3586,9.3586,9.3512,9.2954,9.2804,9.2514,9.107,8.9643,8.8518,8.8518,8.9315,9.0338,9.1291,9.2544,9.3586,9.3586,9.3586,9.3586,9.3586,9.3586,9.3586,9.3586,9.3334,9.3131,9.3131,9.2909,9.274,9.274,9.274,9.274,9.274,9.274,9.274,9.274,9.274,9.274,9.274,9.274,9.2841,9.3131,9.3131,9.3267,9.3586,9.33,9.3131,9.3131,9.3451,9.3586,9.3586,9.3586,9.3586,9.3586,9.3586,9.3586,9.3586,9.3586,9.3586,9.3586,9.3586,9.3586,9.3586,9.3586,9.3586,9.3586,9.3586,9.3586,9.3586,9.056,9.0966,9.1305,9.1305,9.1474,9.1643,9.1643,9.1846,9.2184,9.2711,9.2778,9.2996,9.3552,9.3586,9.3586,9.3586,9.3586,9.3586,9.3586,9.3586,9.3586,9.3586,9.3586,9.3586,9.3586,9.3586,9.3586,9.3586,9.3586,9.3586,9.3586,9.3586,9.3586,9.3586,9.3586,9.3586,9.3586,9.3586,9.3586,9.3586,9.3586,9.3586,9.3586,9.3586,9.3586,9.3586,9.3586,9.3586,9.3586,9.3586,9.3586,9.3586,9.3586,9.3586,9.3423,9.2438,9.1117,9.0097,9.0514,9.0322,9.0226,9.126,9.2544,9.3586,9.3586,9.3586,9.3586,9.3586,9.3586,9.3586,9.3586,9.3586,9.3586,9.3586,9.3586,9.3586,9.3586,9.3586,9.3586,9.3586,9.3586,9.3586,9.3586,9.3586,9.3586,9.3586,9.3586,9.3586,9.3586,9.3586,9.3586,9.3586,9.3586,9.3586,9.3586,9.3586,9.3586,9.3586,9.3586,9.3586,9.3586,9.3586,9.3586,9.3586,9.3586,9.3586,9.3586,9.3586,9.3586,9.3586,9.3586,9.3586,9.3586,9.3586,9.3586,9.3586,9.1305,9.1305,9.1305,9.1305,9.1933,9.2406,9.2406,9.3098,9.3586,9.3586,9.3586,9.3586,9.3586,9.3586,9.3586,9.3586,9.3586,9.3586,9.3586,9.3586,9.3586,9.3586,9.3586,9.3586,9.3586,9.3586,9.3586,9.3586,9.3586,9.3586,9.3586,9.3586,9.3586,9.3586,9.3586,9.3586,9.3586,9.3586,9.3586,9.3586,9.3586,9.3586,9.3586,9.3586,9.3586,9.3586,9.3586,9.3586,9.3586,9.3586,9.3586,9.3586,9.3586,9.3586,9.3586,9.3586,9.2589,9.1822,9.3212,9.2559,9.151,9.151,9.2559,9.3586,9.3586,9.3586,9.3586,9.3586,9.3586,9.3586,9.3586,9.3586,9.3586,9.3586,9.3586,9.3586,9.3586,9.3586,9.3586,9.3586,9.3586,9.3586,9.3586,9.3586,9.3586,9.3586,9.3586,9.3586,9.3586,9.3586,9.3586,9.3586,9.3586,9.3586,9.3586,9.3586,9.3586,9.3586,9.3586,9.3586,9.3586,9.3586,9.3586,9.3586,9.3586,9.3586,9.3586,9.3586,9.3586,9.3586,9.3586,9.3586,9.3586,9.3586,9.3586,9.3586,9.2068,9.2522,9.2909,9.2909,9.3112,9.3233,9.3233,9.3451,9.3586,9.3586,9.3586,9.3586,9.3586,9.3586,9.3586,9.3586,9.3586,9.3586,9.3586,9.3586,9.3586,9.3586,9.3586,9.3586,9.3586,9.3586,9.3586,9.3586,9.3586,9.3586,9.3586,9.3586,9.3586,9.3586,9.3586,9.3586,9.3586,9.3586,9.3586,9.3586,9.3586,9.3586,9.3586,9.3586,9.3586,9.3586,9.3586,9.3586,9.3586,9.3586,9.3586,9.3586,9.3586,9.3586,9.3586,9.3586,9.3286,9.3077,9.3483,9.3286,9.2954,9.2954,9.3271,9.3586,9.3586,9.3586,9.3586,9.3586,9.3586,9.3586,9.3586,9.3586,9.3586,9.3586,9.3586,9.3586,9.3586,9.3586,9.3586,9.3586,9.3586,9.3586,9.3586,9.3586,9.3586,9.3586,9.3586,9.3586,9.3586,9.3586,9.3586,9.3586,9.3586,9.3586,9.3586,9.3586,9.3586,9.3586,9.3586,9.3586,9.3586,9.3586,9.3586,9.3586,9.3586,9.3586,9.3586,9.3586,9.3586,9.3586,9.3586,9.3586,9.3586,9.3586,9.3586,9.3586,9.288,9.3281,9.3586,9.3586,9.3586,9.3586,9.3586,9.3586,9.3586,9.3586,9.3586,9.3586,9.3586,9.3586,9.3586,9.3586,9.3586,9.3586,9.3586,9.3586,9.3586,9.3586,9.3586,9.3586,9.3586,9.3586,9.3586,9.3586,9.3586,9.3586,9.3586,9.3586,9.3586,9.3586,9.3586,9.3586,9.3586,9.3586,9.3586,9.3586,9.3586,9.3586,9.3586,9.3586,9.3586,9.3586,9.3586,9.3586,9.3586,9.3586,9.3586,9.3586,9.3586,9.3586,9.3586,9.3586,9.3586,9.3586,9.3586,9.3586,9.3586,9.3586,9.3586,9.3586,9.3586,9.3586,9.3586,9.3586,9.3586,9.3586,9.3586,9.3586,9.3586,9.3586,9.3586,9.3586,9.3586,9.3586,9.3586,9.3586,9.3586,9.3586,9.3586,9.3586,9.3586,9.3586,9.3586,9.3586,9.3586,9.3586,9.3586,9.3586,9.3586,9.3586,9.3586,9.3586,9.3586,9.3586,9.3586,9.3586,9.3586,9.3586,9.3586,9.3586,9.3586,9.3586,9.3586,9.3586,9.3586,9.3586,9.3586,9.3586,9.3586,9.3586,9.3586,9.3586,9.3586,9.3586,9.3586,9.3586,9.3586,9.3586,9.3586,9.3586,9.3586,9.3586,9.3586,9.3586,9.3586,9.3586,9.3586,9.3586,9.3586,9.3586,9.3586,9.3586,9.3586,9.3586,9.3586,9.3586,9.3586,9.3586,9.3586,9.3586,9.3586,9.3586,9.3586,9.3586,9.3586,9.3586,9.3586,9.3586,9.3586,9.3586,9.3586,9.3586,9.3586,9.3586,9.3586,9.3586,9.3586,9.3586,9.3586,9.3586,9.3586,9.3586,9.3586,9.3586,9.3586,9.3586,9.3586,9.3586,9.3586,9.3586,9.3586,9.3586,9.3586,9.3586,9.3586,9.3586,9.3586,9.3586,9.3586,9.3586,9.3586,9.3586,9.3586,9.3586,9.3586,9.3586,9.3586,9.3586,9.3586,9.3586,9.3586,9.3586,9.3586,9.3586,9.3586,9.3586,9.3586,9.3586,9.3586,9.3586,9.3586,9.3586,9.3586,9.3586,9.3586,9.3586,9.3586,9.3586,9.3586,9.3586,9.3586,9.3586,9.3586,9.3586,9.3586,9.3586,9.3586,9.3586,9.3586,9.3586,9.3586,9.3586,9.3586,9.3586,9.3586,9.3586,9.3586,9.3586,9.3586,9.3586,9.3586,9.3586,9.3586,9.3586,9.3586,9.3586,9.3586,9.3586,9.3586,9.3586,9.3586,9.3586,9.3586,9.3586,9.3586,9.3586,9.3586,9.3586,9.3586,9.3586,9.3586,9.3586,9.3586,9.3586,9.3586,9.3586,9.3586,9.3586,9.3586,9.3586,9.3586,9.3586,9.3586,9.3586,9.3586,9.3586,9.3586,9.3586,9.3586,9.3586,9.3586,9.3586,9.3586,9.3586,9.3586,9.3586,9.3586,9.3586,9.3586,9.3586,9.3586,9.3586,9.3586,9.3586,9.3586,9.3586,9.3586,9.3586,9.3586,9.3586,9.3586,9.3586,9.3586,9.3586,9.3586,9.3586,9.3586,9.3586,9.3586,9.3586,9.3586,9.3586,9.3586,9.3586,9.3586,9.3586,9.3586,9.3586,9.3586,9.3586,9.3586,9.3586,9.3586,9.3586,9.3586,9.3586,9.3586,9.3586,9.3586,9.3586,9.3586,9.3586,9.3586,9.3586,9.3586,9.3586,9.3586,9.3586,9.3586,9.3586,9.3586,9.3586,9.3586,9.3586,9.3586,9.3586,9.3586,9.3586,9.3586,9.3586,9.3586,9.3586,9.3586,9.3586,9.3586,9.3586,9.3586,9.3586,9.3586,9.3586,9.3586,9.3586,9.3586,9.3586,9.3586,9.3586,9.3586,9.3586,9.3586,9.3586,9.3586,9.3586,9.3586,9.3586,9.3586,9.3586,9.3586,9.3586,9.3586,9.3586,9.3586,9.3586,9.3586,9.3586,9.3586,9.3586,9.3586,9.3586,9.3586,9.3586,9.3586,9.3586,9.3586,9.3586,9.3586,9.3586,9.3586,9.3586,9.3586,9.3586,9.3586,9.3586,9.3586,9.3586,9.3586,9.3586,9.3586,9.3586,9.3586,9.3586,9.3586,9.3586,9.3586,9.3586,9.3586,9.3586,9.3586,9.3586,9.3586,9.3586,9.3586,9.3586,9.3586,9.3586,9.3586,9.3586,9.3586,9.3586,9.3586,9.3586,9.3586,9.3586,9.3586,9.3586,9.3586,9.3586,9.3586,9.3586,9.3586,9.3586,9.3586,9.3586,9.3586,9.3586,9.3586,9.3586,9.3586,9.3586,9.3586,9.3586,9.3586,9.3586,9.3586,9.3586,9.3586,9.3586,9.3586,9.3586,9.3586,9.3586,9.3586,9.3586,9.3586,9.3586,9.3586,9.3586,9.3586,9.3586,9.3586,9.3586,9.3586,9.3586,9.3586,9.3586,9.3586,9.3586,9.3586,9.3586,9.3586,9.3586,9.3586,9.3586,9.3586,9.3586,9.3586,9.3586,9.3586,9.3586,9.3586,9.3586,9.3586,9.3586,9.3586,9.3586,9.3586,9.3586,9.3586,9.3586,9.3586,9.3586,9.3586,9.3586,9.3586,9.3586,9.3586,9.3586,9.3586,9.3586,9.3586,9.3586,9.3586,9.3586,9.3586,9.3586,9.3586,9.3586,9.3586,9.3586,9.3586,9.3586,9.3586,9.3586,9.3586,9.3586,9.3586,9.3586,9.3586,9.3586,9.3586,9.3586,9.3586,9.3586,9.3586,9.3586,9.3586,9.3586,9.3586,9.3586,9.3586,9.3586,9.3586,9.3586,9.3586,9.3586,9.3586,9.3586,9.3586,9.3586,9.3586,9.3586,9.3586,9.3586,9.3586,9.3586,9.3586,9.3586,9.3586,9.3586,9.3586,9.3586,9.3586,9.3586,9.3586,9.3586,9.3586,9.3586,9.3586,9.3586,9.3586,9.3586,9.3586,9.3586,9.3586,9.3586,9.3586,9.3586,9.3586,9.3586,9.3586,9.3586,9.3586,9.3586,9.3586,9.3586,9.3586,9.3586,9.3586,9.3586,9.3586,9.3586,9.3586,9.3586,9.3586,9.3586,9.3586,9.3586,9.3586,9.3586,9.3586,9.3586,9.3586,9.3586,9.3586,9.3586,9.3586,9.3586,9.3586,9.3586,9.3586,9.3586,9.3586,9.3586,9.3586,9.3586,9.3586,9.3586,9.3586,9.3586,9.3586,9.3586,9.3586,9.3586,9.3586,9.3586,9.3586,9.3586,9.3586,9.3586,9.3586,9.3586,9.3586,9.3586,9.3586,9.3586,9.3586,9.3586,9.3586,9.3586,9.3586,9.3586,9.3586,9.3586,9.3586,9.3586,9.3586,9.3586,9.3586,9.3586,9.3586,9.3586,9.3586,9.3586,9.3586,9.3586,9.3586,9.3586,9.3586,9.3586,9.3586,9.3586,9.3586,9.3586,9.3586,9.3586,9.3586,9.3586,9.3586,9.3586,9.3586,9.3586,9.3586,9.3586,9.3586,9.3586,9.3586,9.3586,9.3586,9.3586,9.3586,9.3586,9.3586,9.3586,9.3586,9.3586,9.3586,9.3586,9.3586,9.3586,9.3586,9.3586,9.3586,9.3586,9.3586,9.3586,9.3586,9.3586,9.3586,9.3586,9.3586,9.3586,9.3586,9.3586,9.3586,9.3586,9.3586,9.3586,9.3586,9.3586,9.3586,9.3586,9.3586,9.3586,9.3586,9.3586,9.3586,9.3586,9.3586,9.3586,9.3586,9.3586,9.3586,9.3586,9.3586,9.3586,9.3586,9.3586,9.3586,9.3586,9.3586,9.3586,9.3586,9.3586,9.3586,9.3586,9.3586,9.3586,9.3586,9.3586,9.3586,9.3586,9.3586,9.3586,9.3586,9.3586,9.3586,9.3586,9.3586,9.3586,9.3586,9.3586,9.3586,9.3586,9.3586,9.3586,9.3586,9.3586,9.3586,9.3586,9.3586,9.3586,9.3586,9.3586,9.3586,9.3586,9.3586,9.3586,9.3586,9.3586,9.3586,9.3586,9.3586,9.3586,9.3586,9.3586,9.3586,9.3586,9.3586,9.3586,9.3586,9.3586,9.3586,9.3586,9.3586,9.3586,9.3586,9.3586,9.3586,9.3586,9.3586,9.3586,9.3586,9.3586,9.3586,9.3586,9.3586,9.3586,9.3586,9.3586,9.3586,9.3586,9.3586,9.3586,9.3586,9.3586,9.3586,9.3586,9.3586,9.3586,9.3586,9.3586,9.3586,9.3586,9.3586,9.3586,9.3586,9.3586,9.3586,9.3586]}]]